[[{"header":{"parameterUnit":"m.s-1","parameterCategory":1,"la1":30.6,"la2":28.766,"lo1":-90.7593,"lo2":-88.6598,"dy":0.0162,"dx":0.0183,"nx":116,"ny":114,"refTime":"2024-04-07T00:00:00:Z","depth":0,"parameterNumber":2,"parameterNumberName":"U-component_of_WINDS"},"data":[0.0,0.0,0.0,0.0,0.0,0.0,0.0,0.0,0.0,0.0,0.0,0.0,0.0,0.0,0.0,0.0,0.0,0.0,0.0,0.0,0.0,0.0,0.0,0.0,0.0,0.0,0.0,0.0,0.0,0.0,0.0,0.0,0.0,0.0,0.0,0.0,0.0,0.0,0.0,0.0,0.0,0.0,0.0,0.0,0.0,0.0,0.0,0.0,0.0,0.0,0.0,0.0,0.0,0.0,0.0,0.0,0.0,0.0,0.0,0.0,0.0,0.0,0.0,0.0,0.0,0.0,0.0,0.0,0.0,0.0,0.0,0.0,0.0,0.0,0.0,0.0,0.0,0.0,0.0,0.0,0.0,0.0,0.0,0.0,0.0,0.0,0.0,0.0,0.0,0.0,0.0,0.0,0.0,0.0,0.0,0.0,0.0,0.0,0.0,0.0,0.0,0.0,0.0,0.0,0.0,0.0,0.0,0.0,0.0,0.0,0.0,0.0,0.0,0.0,0.0,0.0,0.0,0.0,0.0,0.0,0.0,0.0,0.0,0.0,0.0,0.0,0.0,0.0,0.0,0.0,0.0,0.0,0.0,0.0,0.0,0.0,0.0,0.0,0.0,0.0,0.0,0.0,0.0,0.0,0.0,0.0,0.0,0.0,0.0,0.0,0.0,0.0,0.0,0.0,0.0,0.0,0.0,0.0,0.0,0.0,0.0,0.0,0.0,0.0,0.0,0.0,0.0,0.0,0.0,0.0,0.0,0.0,0.0,0.0,0.0,0.0,0.0,0.0,0.0,0.0,0.0,0.0,0.0,0.0,0.0,0.0,0.0,0.0,0.0,0.0,0.0,0.0,0.0,0.0,0.0,0.0,0.0,0.0,0.0,0.0,0.0,0.0,0.0,0.0,0.0,0.0,0.0,0.0,0.0,0.0,0.0,0.0,0.0,0.0,0.0,0.0,0.0,0.0,0.0,0.0,0.0,0.0,0.0,0.0,0.0,0.0,0.0,0.0,0.0,0.0,0.0,0.0,0.0,0.0,0.0,0.0,0.0,0.0,0.0,0.0,0.0,0.0,0.0,0.0,0.0,0.0,0.0,0.0,0.0,0.0,0.0,0.0,0.0,0.0,0.0,0.0,0.0,0.0,0.0,0.0,0.0,0.0,0.0,0.0,0.0,0.0,0.0,0.0,0.0,0.0,0.0,0.0,0.0,0.0,0.0,0.0,0.0,0.0,0.0,0.0,0.0,0.0,0.0,0.0,0.0,0.0,0.0,0.0,0.0,0.0,0.0,0.0,0.0,0.0,0.0,0.0,0.0,0.0,0.0,0.0,0.0,0.0,0.0,0.0,0.0,0.0,0.0,0.0,0.0,0.0,0.0,0.0,0.0,0.0,0.0,0.0,0.0,0.0,0.0,0.0,0.0,0.0,0.0,0.0,0.0,0.0,0.0,0.0,0.0,0.0,0.0,0.0,0.0,0.0,0.0,0.0,0.0,0.0,0.0,0.0,0.0,0.0,0.0,0.0,0.0,0.0,0.0,0.0,0.0,0.0,0.0,0.0,0.0,0.0,0.0,0.0,0.0,0.0,0.0,0.0,0.0,0.0,0.0,0.0,0.0,0.0,0.0,0.0,0.0,0.0,0.0,0.0,0.0,0.0,0.0,0.0,0.0,0.0,0.0,0.0,0.0,0.0,0.0,0.0,0.0,0.0,0.0,0.0,0.0,0.0,0.0,0.0,0.0,0.0,0.0,0.0,0.0,0.0,0.0,0.0,0.0,0.0,0.0,0.0,0.0,0.0,0.0,0.0,0.0,0.0,0.0,0.0,0.0,0.0,0.0,0.0,0.0,0.0,0.0,0.0,0.0,0.0,0.0,0.0,0.0,0.0,0.0,0.0,0.0,0.0,0.0,0.0,0.0,0.0,0.0,0.0,0.0,0.0,0.0,0.0,0.0,0.0,0.0,0.0,0.0,0.0,0.0,0.0,0.0,0.0,0.0,0.0,0.0,0.0,0.0,0.0,0.0,0.0,0.0,0.0,0.0,0.0,0.0,0.0,0.0,0.0,0.0,0.0,0.0,0.0,0.0,0.0,0.0,0.0,0.0,0.0,0.0,0.0,0.0,0.0,0.0,0.0,0.0,0.0,0.0,0.0,0.0,0.0,0.0,0.0,0.0,0.0,0.0,0.0,0.0,0.0,0.0,0.0,0.0,0.0,0.0,0.0,0.0,0.0,0.0,0.0,0.0,0.0,0.0,0.0,0.0,0.0,0.0,0.0,0.0,0.0,0.0,0.0,0.0,0.0,0.0,0.0,0.0,0.0,0.0,0.0,0.0,0.0,0.0,0.0,0.0,0.0,0.0,0.0,0.0,0.0,0.0,0.0,0.0,0.0,0.0,0.0,0.0,0.0,0.0,0.0,0.0,0.0,0.0,0.0,0.0,0.0,0.0,0.0,0.0,0.0,0.0,0.0,0.0,0.0,0.0,0.0,0.0,0.0,0.0,0.0,0.0,0.0,0.0,0.0,0.0,0.0,0.0,0.0,0.0,0.0,0.0,0.0,0.0,0.0,0.0,0.0,0.0,0.0,0.0,0.0,0.0,0.0,0.0,0.0,0.0,0.0,0.0,0.0,0.0,0.0,0.0,0.0,0.0,0.0,0.0,0.0,0.0,0.0,0.0,0.0,0.0,0.0,0.0,0.0,0.0,0.0,0.0,0.0,0.0,0.0,0.0,0.0,0.0,0.0,0.0,0.0,0.0,0.0,0.0,0.0,0.0,0.0,0.0,0.0,0.0,0.0,0.0,0.0,0.0,0.0,0.0,0.0,0.0,0.0,0.0,0.0,0.0,0.0,0.0,0.0,0.0,0.0,0.0,0.0,0.0,0.0,0.0,0.0,0.0,0.0,0.0,0.0,0.0,0.0,0.0,0.0,0.0,0.0,0.0,0.0,0.0,0.0,0.0,0.0,0.0,0.0,0.0,0.0,0.0,0.0,0.0,0.0,0.0,0.0,0.0,0.0,0.0,0.0,0.0,0.0,0.0,0.0,0.0,0.0,0.0,0.0,0.0,0.0,0.0,0.0,0.0,0.0,0.0,0.0,0.0,0.0,0.0,0.0,0.0,0.0,0.0,0.0,0.0,0.0,0.0,0.0,0.0,0.0,0.0,0.0,0.0,0.0,0.0,0.0,0.0,0.0,0.0,0.0,0.0,0.0,0.0,0.0,0.0,0.0,0.0,0.0,0.0,0.0,0.0,0.0,0.0,0.0,0.0,0.0,0.0,0.0,0.0,0.0,0.0,0.0,0.0,0.0,0.0,0.0,0.0,0.0,0.0,0.0,0.0,0.0,0.0,0.0,0.0,0.0,0.0,0.0,0.0,0.0,0.0,0.0,0.0,0.0,0.0,0.0,0.0,0.0,0.0,0.0,0.0,0.0,0.0,0.0,0.0,0.0,0.0,0.0,0.0,0.0,0.0,0.0,0.0,0.0,0.0,0.0,0.0,0.0,0.0,0.0,0.0,0.0,0.0,0.0,0.0,0.0,0.0,0.0,0.0,0.0,0.0,0.0,0.0,0.0,0.0,0.0,0.0,0.0,0.0,0.0,0.0,0.0,0.0,0.0,0.0,0.0,0.0,0.0,0.0,0.0,0.0,0.0,0.0,0.0,0.0,0.0,0.0,0.0,0.0,0.0,0.0,0.0,0.0,0.0,0.0,0.0,0.0,0.0,0.0,0.0,0.0,0.0,0.0,0.0,0.0,0.0,0.0,0.0,0.0,0.0,0.0,0.0,0.0,0.0,0.0,0.0,0.0,0.0,0.0,0.0,0.0,0.0,0.0,0.0,0.0,0.0,0.0,0.0,0.0,0.0,0.0,0.0,0.0,0.0,0.0,0.0,0.0,0.0,0.0,0.0,0.0,0.0,0.0,0.0,0.0,0.0,0.0,0.0,0.0,0.0,0.0,0.0,0.0,0.0,0.0,0.0,0.0,0.0,0.0,0.0,0.0,0.0,0.0,0.0,0.0,0.0,0.0,0.0,0.0,0.0,0.0,0.0,0.0,0.0,0.0,0.0,0.0,0.0,0.0,0.0,0.0,0.0,0.0,0.0,0.0,0.0,0.0,0.0,0.0,0.0,0.0,0.0,0.0,0.0,0.0,0.0,0.0,0.0,0.0,0.0,0.0,0.0,0.0,0.0,0.0,0.0,0.0,0.0,0.0,0.0,0.0,0.0,0.0,0.0,0.0,0.0,0.0,0.0,0.0,0.0,0.0,0.0,0.0,0.0,0.0,0.0,0.0,0.0,0.0,0.0,0.0,0.0,0.0,0.0,0.0,0.0,0.0,0.0,0.0,0.0,0.0,0.0,0.0,0.0,0.0,0.0,0.0,0.0,0.0,0.0,0.0,0.0,0.0,0.0,0.0,0.0,0.0,0.0,0.0,0.0,0.0,0.0,0.0,0.0,0.0,0.0,0.0,0.0,0.0,0.0,0.0,0.0,0.0,0.0,0.0,0.0,0.0,0.0,0.0,0.0,0.0,0.0,0.0,0.0,0.0,0.0,0.0,0.0,0.0,0.0,0.0,0.0,0.0,0.0,0.0,0.0,0.0,0.0,0.0,0.0,0.0,0.0,0.0,0.0,0.0,0.0,0.0,0.0,0.0,0.0,0.0,0.0,0.0,0.0,0.0,0.0,0.0,0.0,0.0,0.0,0.0,0.0,0.0,0.0,0.0,0.0,0.0,0.0,0.0,0.0,0.0,0.0,0.0,0.0,0.0,0.0,0.0,0.0,0.0,0.0,0.0,0.0,0.0,0.0,0.0,0.0,0.0,0.0,0.0,0.0,0.0,0.0,0.0,0.0,0.0,0.0,0.0,0.0,0.0,0.0,0.0,0.0,0.0,0.0,0.0,0.0,0.0,0.0,0.0,0.0,0.0,0.0,0.0,0.0,0.0,0.0,0.0,0.0,0.0,0.0,0.0,0.0,0.0,0.0,0.0,0.0,0.0,0.0,0.0,0.0,0.0,0.0,0.0,0.0,0.0,0.0,0.0,0.0,0.0,0.0,0.0,0.0,0.0,0.0,0.0,0.0,0.0,0.0,0.0,0.0,0.0,0.0,0.0,0.0,0.0,0.0,0.0,0.0,0.0,0.0,0.0,0.0,0.0,0.0,0.0,0.0,0.0,0.0,0.0,0.0,0.0,0.0,0.0,0.0,0.0,0.0,0.0,0.0,0.0,0.0,0.0,0.0,0.0,0.0,0.0,0.0,0.0,0.0,0.0,0.0,0.0,0.0,0.0,0.0,0.0,0.0,0.0,0.0,0.0,0.0,0.0,0.0,0.0,0.0,0.0,0.0,0.0,0.0,0.0,0.0,0.0,0.0,0.0,0.0,0.0,0.0,0.0,0.0,0.0,0.0,0.0,0.0,0.0,0.0,0.0,0.0,0.0,0.0,0.0,0.0,0.0,0.0,0.0,0.0,0.0,0.0,0.0,0.0,0.0,0.0,0.0,0.0,0.0,0.0,0.0,0.0,0.0,0.0,0.0,0.0,0.0,0.0,0.0,0.0,0.0,0.0,0.0,0.0,0.0,0.0,0.0,0.0,0.0,0.0,0.0,0.0,0.0,0.0,0.0,0.0,0.0,0.0,0.0,0.0,0.0,0.0,0.0,0.0,0.0,0.0,0.0,0.0,0.0,0.0,0.0,0.0,0.0,0.0,0.0,0.0,0.0,0.0,0.0,0.0,0.0,0.0,0.0,0.0,0.0,0.0,0.0,0.0,0.0,0.0,0.0,0.0,0.0,0.0,0.0,0.0,0.0,0.0,0.0,0.0,0.0,0.0,0.0,0.0,0.0,0.0,0.0,0.0,0.0,0.0,0.0,0.0,0.0,0.0,0.0,0.0,0.0,0.0,0.0,0.0,0.0,0.0,0.0,0.0,0.0,0.0,0.0,0.0,0.0,0.0,0.0,0.0,0.0,0.0,0.0,0.0,0.0,0.0,0.0,0.0,0.0,0.0,0.0,0.0,0.0,0.0,0.0,0.0,0.0,0.0,0.0,0.0,0.0,0.0,0.0,0.0,0.0,0.0,0.0,0.0,0.0,0.0,-3.9298,-3.7332,0.0,0.0,0.0,0.0,0.0,0.0,0.0,0.0,0.0,0.0,0.0,0.0,0.0,0.0,0.0,0.0,0.0,0.0,0.0,0.0,0.0,0.0,0.0,-3.2404,-3.3336,-3.3593,-3.3259,-3.2959,-3.2875,-3.2567,0.0,0.0,0.0,0.0,-3.1041,-3.0623,-3.0878,-3.1832,-3.3126,-3.5094,-3.7575,-3.7238,-3.5462,-3.2616,0.0,0.0,0.0,0.0,0.0,0.0,0.0,0.0,0.0,0.0,0.0,0.0,0.0,0.0,0.0,0.0,0.0,0.0,0.0,0.0,0.0,0.0,0.0,0.0,0.0,0.0,0.0,0.0,0.0,0.0,0.0,0.0,0.0,0.0,0.0,0.0,0.0,0.0,0.0,0.0,0.0,0.0,0.0,0.0,0.0,0.0,0.0,0.0,0.0,0.0,0.0,0.0,0.0,0.0,0.0,0.0,0.0,0.0,0.0,0.0,0.0,0.0,0.0,0.0,0.0,0.0,0.0,0.0,0.0,0.0,-4.2482,-4.1241,0.0,0.0,0.0,0.0,0.0,0.0,0.0,0.0,0.0,0.0,0.0,0.0,0.0,0.0,0.0,0.0,0.0,0.0,0.0,0.0,0.0,-3.1154,-3.194,-3.3185,-3.4254,-3.5074,-3.4488,-3.403,-3.3979,-3.3211,-3.2499,-3.1959,-3.1697,-3.1358,-3.0907,-3.0926,-3.1955,-3.4106,-3.6781,-4.0335,-4.4665,-4.478,-4.2406,-3.7938,-3.6537,0.0,0.0,0.0,0.0,0.0,0.0,0.0,0.0,0.0,0.0,0.0,0.0,0.0,0.0,0.0,0.0,0.0,0.0,0.0,0.0,0.0,0.0,0.0,0.0,0.0,0.0,0.0,0.0,0.0,0.0,0.0,0.0,0.0,0.0,0.0,0.0,0.0,0.0,0.0,0.0,0.0,0.0,0.0,0.0,0.0,0.0,0.0,0.0,0.0,0.0,0.0,0.0,0.0,0.0,0.0,0.0,0.0,0.0,0.0,0.0,0.0,0.0,0.0,-4.6027,-4.6665,-4.6998,-4.7606,-4.8348,-4.9034,-4.6703,-4.6425,-4.7325,-4.3471,0.0,0.0,0.0,0.0,0.0,0.0,0.0,0.0,0.0,0.0,0.0,0.0,0.0,0.0,0.0,0.0,0.0,0.0,0.0,-3.1463,-3.2782,-3.363,-3.4826,-3.6711,-3.6004,-3.5701,-3.632,-3.5025,-3.3919,-3.3211,-3.2595,-3.2256,-3.2163,-3.2721,-3.4291,-3.6969,-4.2504,-4.6779,-4.9774,-4.9743,-4.9554,-4.8932,-4.3813,-4.1124,-4.017,0.0,0.0,0.0,0.0,0.0,0.0,0.0,0.0,0.0,0.0,0.0,0.0,0.0,0.0,0.0,0.0,0.0,0.0,0.0,0.0,0.0,0.0,0.0,0.0,0.0,0.0,0.0,0.0,0.0,0.0,0.0,0.0,0.0,0.0,0.0,0.0,0.0,0.0,0.0,0.0,0.0,-4.0532,-4.104,0.0,0.0,0.0,0.0,0.0,0.0,0.0,0.0,0.0,0.0,0.0,0.0,0.0,-4.4593,-4.6399,-4.8359,-4.9876,-5.1072,-5.3561,-5.4314,-5.3691,-5.432,-5.4254,-5.3685,-5.4304,0.0,-4.9036,-4.698,0.0,0.0,0.0,0.0,0.0,0.0,0.0,0.0,0.0,0.0,0.0,0.0,0.0,0.0,0.0,0.0,0.0,0.0,0.0,0.0,0.0,-3.7328,-3.9566,-4.1137,-4.2354,-4.1938,-3.9433,-3.8555,-3.6755,-3.3694,-3.3177,-3.2967,-3.2967,-3.5122,-3.9123,-4.491,-4.9696,-5.327,-5.552,-5.5376,-5.5432,-5.5439,-5.249,-4.8724,-4.4264,-4.0451,0.0,0.0,0.0,0.0,0.0,0.0,0.0,0.0,0.0,0.0,0.0,0.0,0.0,0.0,0.0,0.0,0.0,0.0,0.0,0.0,0.0,0.0,0.0,0.0,0.0,0.0,0.0,0.0,0.0,0.0,0.0,0.0,0.0,0.0,0.0,0.0,0.0,0.0,0.0,-4.0271,-4.2491,-4.2278,-4.172,-3.9996,0.0,0.0,0.0,0.0,0.0,0.0,0.0,0.0,0.0,-4.7038,-4.7712,-4.9234,-5.1624,-5.2938,-5.396,-5.4791,-5.5991,-5.6299,-5.5706,-5.6332,-5.6568,-5.6522,-5.7065,-5.6559,-5.508,-5.1595,-4.8573,-4.575,0.0,0.0,0.0,0.0,-4.0567,-4.1924,0.0,0.0,0.0,0.0,0.0,0.0,0.0,0.0,0.0,0.0,0.0,0.0,-3.785,-4.1212,-4.4088,-4.6066,-4.7757,-4.7107,-4.3353,-4.1616,-3.8929,-3.4924,-3.3884,-3.3583,-3.3921,-3.8631,-4.4664,-5.1959,-5.5765,-5.8614,-6.0599,-6.0282,-6.0213,-6.0311,-5.9463,-5.5558,-4.9351,-4.5102,-4.1889,-3.9199,0.0,0.0,0.0,0.0,0.0,0.0,0.0,0.0,0.0,0.0,0.0,0.0,0.0,0.0,0.0,0.0,0.0,0.0,0.0,0.0,0.0,0.0,0.0,0.0,0.0,0.0,0.0,0.0,0.0,0.0,0.0,0.0,0.0,0.0,0.0,0.0,0.0,-4.2894,-4.4873,-4.3962,-4.4977,-4.3824,0.0,0.0,0.0,0.0,0.0,0.0,-4.6195,-4.7038,-4.8808,-5.1813,-5.2461,-5.3978,-5.6349,-5.6703,-5.7231,-5.788,-5.7752,-5.756,-5.7228,-5.7825,-5.834,-5.8841,-5.9073,-5.9643,-5.9941,-5.5138,-5.2099,-5.0091,-4.6211,-4.4149,-4.3525,-4.4719,-4.5723,-4.6944,0.0,0.0,0.0,0.0,0.0,0.0,0.0,0.0,0.0,0.0,0.0,-3.6681,-4.2334,-4.4118,-4.6525,-5.0596,-4.9513,-4.8522,-4.8333,-4.3055,-3.927,-3.7685,-3.4901,-3.4014,-3.5398,-4.3741,-5.0513,-5.5438,-5.9226,-6.2127,-6.4142,-6.3776,-6.3827,-6.4141,-6.2875,-6.0421,-5.7001,-5.2148,-4.8994,-4.652,-3.9157,0.0,0.0,0.0,0.0,0.0,0.0,0.0,0.0,0.0,0.0,0.0,0.0,0.0,0.0,0.0,0.0,0.0,0.0,0.0,0.0,0.0,0.0,0.0,0.0,0.0,0.0,0.0,0.0,0.0,0.0,0.0,0.0,0.0,0.0,0.0,0.0,0.0,0.0,-4.7081,-5.0096,0.0,0.0,0.0,0.0,-4.4911,-4.6167,-4.8246,-5.1253,-5.2574,-5.44,-5.6929,-5.7603,-5.8559,-5.9816,-5.9555,-5.9848,-6.0712,-6.038,-6.0073,-5.9724,-6.0321,-6.062,-6.0701,-6.1814,-6.2004,-6.1135,-5.6359,-5.3347,-5.1363,-4.8327,-4.7106,-4.7295,-4.8409,-4.9956,-5.1665,0.0,0.0,0.0,0.0,0.0,-3.0334,-2.9608,-2.984,-3.0624,-3.1985,-3.6043,-4.0001,-4.3216,-4.8841,-5.3321,-5.5637,-5.7263,-5.6857,-5.3733,-4.8522,-4.4883,-4.3328,-3.911,-3.9686,-4.5772,-5.0266,-5.5099,-6.027,-6.2072,-6.3802,-6.5441,-6.4862,-6.4691,-6.4783,-6.4303,-6.3492,-6.2078,-5.6582,-5.257,-4.9479,-4.3818,-3.902,0.0,0.0,0.0,0.0,0.0,0.0,0.0,0.0,0.0,0.0,0.0,0.0,0.0,0.0,0.0,0.0,0.0,0.0,0.0,0.0,0.0,0.0,0.0,0.0,0.0,0.0,0.0,0.0,0.0,0.0,0.0,0.0,0.0,0.0,0.0,0.0,0.0,-5.0724,-5.3535,0.0,-4.8379,-4.9036,-5.0068,-5.0644,-5.2202,-5.4064,-5.6213,-5.688,-5.7828,-5.9121,-5.9373,-6.0273,-6.1931,-6.18,-6.1957,-6.243,-6.1706,-6.1176,-6.0797,-6.0811,-6.1189,-6.1922,-6.2356,-6.2411,-6.1949,-5.872,-5.6549,-5.5084,-5.3239,-5.2289,-5.2099,-5.3293,-5.4406,-5.5328,0.0,0.0,0.0,0.0,0.0,-3.045,-2.9743,-3.0202,-3.1374,-3.3412,-3.8518,-4.3295,-4.6893,-5.3378,-5.8013,-5.9439,-6.1407,-6.093,-5.7182,-5.1767,-4.798,-4.6372,-4.3113,-4.4925,-5.2575,-5.5376,-5.9008,-6.3533,-6.4458,-6.5389,-6.63,-6.5892,-6.5802,-6.6011,-6.5562,-6.5473,-6.5413,-6.1014,-5.7124,-5.3443,-4.8596,-4.4206,-4.0189,0.0,0.0,0.0,0.0,0.0,0.0,0.0,0.0,0.0,0.0,0.0,0.0,0.0,0.0,0.0,0.0,0.0,0.0,0.0,0.0,0.0,0.0,0.0,0.0,0.0,0.0,0.0,0.0,0.0,0.0,0.0,0.0,0.0,0.0,-5.0788,-5.4327,-5.354,-5.6646,-5.7109,-5.2507,-5.3713,-5.5168,-5.6023,-5.703,-5.8367,-6.0081,-6.0371,-6.0666,-6.1059,-6.1481,-6.2183,-6.3195,-6.3314,-6.3241,-6.3165,-6.2756,-6.2193,-6.1425,-6.2035,-6.2465,-6.2872,-6.3252,-6.3197,-6.2709,-6.0918,-5.9589,-5.8476,-5.6495,-5.5844,-5.6115,-5.6902,-5.7581,-5.8069,0.0,0.0,0.0,0.0,0.0,-3.0642,-2.9653,-3.0225,-3.2539,-3.7464,-4.1331,-4.6334,-5.3556,-5.7356,-6.0128,-6.2012,-6.1328,-6.0138,-5.851,-5.2366,-4.8074,-4.6466,-4.6748,-4.9497,-5.4806,-5.8885,-6.2271,-6.498,-6.6257,-6.6938,-6.6998,-6.7004,-6.742,-6.8019,-6.667,-6.646,-6.6969,-6.5652,-6.2839,-5.886,-5.3544,-4.9699,-4.6429,0.0,0.0,0.0,0.0,0.0,0.0,0.0,0.0,0.0,0.0,0.0,0.0,0.0,0.0,0.0,0.0,0.0,0.0,0.0,0.0,0.0,0.0,0.0,0.0,0.0,0.0,0.0,0.0,0.0,0.0,0.0,0.0,0.0,-4.8895,-5.3849,-5.6928,-5.5464,-5.9675,-6.0879,-5.6308,-5.8241,-6.0104,-6.0756,-6.0435,-6.1031,-6.283,-6.2942,-6.2942,-6.2942,-6.4122,-6.4459,-6.3869,-6.4119,-6.3777,-6.2852,-6.3649,-6.3242,-6.1802,-6.412,-6.4554,-6.355,-6.469,-6.45,-6.336,-6.2763,-6.2166,-6.1271,-5.7825,-5.7553,-5.9073,-5.91,-5.9453,-5.9833,0.0,0.0,0.0,-3.1574,-3.2039,-3.1875,-3.0083,-3.1279,-3.3443,-3.6238,-4.2071,-4.7787,-5.2652,-5.8257,-6.2297,-6.4006,-6.3461,-6.2329,-6.0693,-5.4597,-5.0511,-4.9188,-5.32,-5.7038,-6.0517,-6.2671,-6.4857,-6.7104,-6.7191,-6.7779,-6.8725,-6.8273,-6.8418,-6.905,-6.844,-6.8286,-6.8345,-6.7029,-6.5412,-6.3326,-5.8565,-5.4467,-5.0757,0.0,0.0,0.0,0.0,0.0,0.0,0.0,0.0,0.0,0.0,0.0,0.0,0.0,0.0,0.0,0.0,0.0,0.0,0.0,0.0,0.0,0.0,0.0,0.0,0.0,0.0,0.0,0.0,0.0,0.0,0.0,-4.993,-5.3559,-5.3559,-5.7361,-6.0148,-6.0205,-6.2637,-6.3651,-6.1849,-6.2389,-6.2993,-6.345,-6.3008,-6.2962,-6.3216,-6.3441,-6.356,-6.356,-6.3869,-6.4403,-6.5162,-6.5262,-6.49,-6.4243,-6.5153,-6.5039,-6.4151,-6.5225,-6.5455,-6.5154,-6.5189,-6.4283,-6.2692,-6.253,-6.2166,-6.1569,-6.1027,-6.0837,-6.0945,-6.1407,-6.1135,-6.0457,0.0,0.0,0.0,-3.1957,-3.2116,-3.1839,-3.0595,-3.2006,-3.4583,-3.8347,-4.388,-4.9414,-5.4598,-5.9677,-6.2953,-6.3672,-6.3113,-6.1599,-5.8906,-5.4711,-5.2807,-5.3778,-5.769,-6.1093,-6.3788,-6.5621,-6.7012,-6.7935,-6.8166,-6.8631,-6.9395,-6.8758,-6.9026,-6.9868,-6.9313,-6.909,-6.9112,-6.7769,-6.6721,-6.5644,-6.232,-5.9011,-5.5748,-5.2394,-5.0135,-4.8401,-4.6049,-4.5127,-4.4688,-4.2808,0.0,0.0,0.0,0.0,0.0,0.0,0.0,0.0,0.0,0.0,0.0,0.0,0.0,0.0,0.0,0.0,0.0,0.0,0.0,0.0,0.0,0.0,0.0,0.0,-5.4371,-5.7971,-5.9597,-6.1309,-6.2703,-6.3603,-6.4706,-6.5344,-6.5257,-6.4735,-6.4696,-6.54,-6.4433,-6.3937,-6.4307,-6.4539,-6.4459,-6.4207,-6.4712,-6.519,-6.5668,-6.6062,-6.5936,-6.5348,-6.6434,-6.6513,-6.5707,-6.6698,-6.6725,-6.5765,-6.5545,-6.4618,-6.3252,-6.3008,-6.2845,-6.2709,0.0,0.0,0.0,0.0,-6.1804,-6.1252,0.0,0.0,0.0,-3.2159,-3.1847,-3.1424,-3.1261,-3.2625,-3.5855,-4.1924,-4.5927,-5.0797,-5.7644,-6.0947,-6.2575,-6.2316,-6.1579,-5.9525,-5.5809,-5.4277,-5.5247,-5.919,-6.097,-6.3056,-6.5699,-6.7923,-6.8825,-6.8274,-6.9116,-6.9608,-6.97,-6.9093,-6.951,-7.0655,-6.9673,-6.9385,-6.9511,-6.8203,-6.7248,-6.6533,-6.4983,-6.2998,-6.0589,-5.702,-5.543,-5.4691,-5.1329,-4.9533,-4.8395,-4.6533,0.0,0.0,0.0,0.0,0.0,0.0,0.0,0.0,0.0,0.0,0.0,0.0,0.0,0.0,0.0,0.0,0.0,0.0,0.0,0.0,0.0,0.0,0.0,0.0,-5.8639,-6.1977,-6.5548,-6.5054,-6.4793,-6.5896,-6.6099,-6.636,-6.6941,-6.5972,-6.5717,-6.6707,-6.5188,-6.4612,-6.5527,-6.5696,0.0,0.0,0.0,-6.6483,-6.6005,-6.6817,-6.6855,-6.6269,-6.7662,-6.7709,-6.6546,-6.8271,-6.7883,-6.5865,-6.5838,-6.5218,-6.4256,-6.3822,-6.393,-6.4256,-6.2573,-6.2177,-6.2594,-6.2202,-6.2006,-6.1952,0.0,0.0,-3.2756,-3.3116,-3.3532,-3.3457,-3.2312,-3.397,-3.694,-4.1401,-4.5635,-5.0408,-5.6251,-5.949,-6.1703,-6.2924,-6.1852,-6.034,-5.859,-5.8011,-5.9064,-6.206,-6.4433,-6.6596,-6.8551,-6.9577,-7.0143,-7.0336,-7.0522,-7.0922,-7.1506,-7.1046,-7.1163,-7.1668,-7.1198,-7.0783,-7.049,-6.9269,-6.8326,-6.758,-6.6468,-6.4689,-6.2439,-6.0941,-5.9859,-5.8929,-5.7766,-5.7824,-5.8086,-5.5616,-5.3984,-5.2406,-4.9586,-4.5373,0.0,0.0,0.0,0.0,0.0,0.0,0.0,0.0,0.0,0.0,0.0,0.0,0.0,0.0,0.0,0.0,0.0,0.0,0.0,-5.8581,-6.1977,-6.4677,-6.6447,-6.6476,-6.6418,-6.668,-6.7173,-6.7551,-6.7667,-6.7642,-6.7419,-6.6822,-6.6611,-6.6069,-6.5062,-6.5892,-6.637,-6.6258,-6.696,-6.7522,-6.7916,-6.8097,-6.79,-6.7212,-6.8586,0.0,-6.7337,-6.8344,-6.7939,-6.6257,-6.5966,-6.5245,-6.4337,-6.469,-6.4907,-6.4934,-6.4093,-6.3659,-6.3423,-6.3199,-6.2784,-6.2378,0.0,-3.3534,-3.3273,-3.3392,-3.3806,-3.3877,-3.3139,-3.44,-3.7067,-4.153,-4.446,-4.8307,-5.3876,-5.6001,-5.7183,-5.7504,-5.639,-5.63,-5.7747,-5.8939,-6.1302,-6.5145,-6.7049,-6.8558,-6.9557,-7.0614,-7.0906,-7.0398,-7.1256,-7.1781,-7.1967,-7.1598,-7.1775,-7.2399,-7.2047,-7.1593,-7.1106,-7.0122,-6.9303,-6.8595,-6.7618,-6.6516,-6.5297,-6.3696,-6.2718,-6.2035,-6.1425,-6.1396,-6.1338,-5.9597,-5.8373,-5.7059,-5.4081,-5.0817,-4.714,0.0,0.0,0.0,0.0,0.0,0.0,0.0,0.0,0.0,0.0,0.0,0.0,0.0,0.0,-4.9146,-5.202,0.0,-5.8987,-6.2499,-6.4415,-6.6012,-6.7638,-6.758,-6.7376,-6.7376,-6.7957,-6.8479,-6.8799,-6.8489,-6.8216,-6.8011,-6.7353,-6.6838,-6.6493,-6.6988,-6.7425,-6.7522,-6.7831,-6.814,-6.8478,-6.8787,-6.8759,-6.845,-6.9405,-6.9517,-6.8927,-6.9325,-6.8594,-6.6816,-6.5991,-6.5163,-6.4337,-6.4636,-6.4598,-6.4424,-6.4346,-6.4165,-6.3992,-6.3695,-6.3325,-6.3082,0.0,0.0,-3.4012,-3.3749,-3.3848,-3.3998,-3.3848,-3.4797,-3.7136,-4.1564,-4.3467,-4.629,-5.1331,-5.2383,-5.232,-5.1373,-5.1271,-5.2813,-5.6379,-5.9616,-6.3318,-6.7629,-6.8957,-6.981,-7.0308,-7.1374,-7.1575,-7.067,-7.1963,-7.2519,-7.2306,-7.1875,-7.2143,-7.2854,-7.2595,-7.2103,-7.1414,-7.0796,-7.0076,-6.9357,-6.8447,-6.8082,-6.7712,-6.5933,-6.4881,-6.4299,-6.3607,-6.2884,-6.2069,-6.1408,-6.0765,-5.9739,-5.7122,-5.5453,-5.3275,-4.6841,-4.5829,0.0,0.0,0.0,0.0,0.0,0.0,0.0,0.0,-4.4061,-4.5698,-4.911,-5.2333,-5.538,-5.8087,-6.0438,-6.2906,-6.5838,-6.6302,-6.6941,-6.877,-6.8567,-6.8247,-6.8247,-6.8712,-6.9205,-6.9728,-6.9088,-6.8738,-6.9004,-6.7781,-6.7393,-6.8002,-6.8187,-6.8372,-6.8594,-6.8775,-6.8843,-6.8843,-6.9321,-6.9573,-6.9573,-7.0079,-7.0248,-7.0135,-7.0135,-6.9021,-6.7065,-6.6064,-6.5245,-6.469,-6.4907,-6.4579,-6.4061,-6.4462,-6.4581,-6.44,-6.4,-6.3746,-6.3665,0.0,0.0,0.0,-3.4934,-3.4759,-3.4783,-3.4759,-3.6073,-3.8074,-4.0979,-4.3659,-4.6422,-4.9349,-5.0322,-5.0269,-4.9153,-5.2805,-5.5782,-5.728,-6.2329,-6.6226,-6.845,-6.9904,-7.1093,-7.1979,-7.2167,-7.2676,-7.3441,-7.3415,-7.3385,-7.3324,-7.2984,-7.2884,-7.2854,-7.2854,-7.2465,-7.1781,-7.1123,-7.0271,-6.9357,-6.8989,-6.853,-6.7988,-6.8008,-6.7054,-6.5548,-6.4672,-6.3509,-6.2518,-6.2762,-6.2381,-6.1733,-6.1077,-5.9559,-5.7238,-5.3247,-4.9373,-4.5789,-4.3031,-4.2169,-4.2347,-4.3702,-4.4228,-4.6268,0.0,-5.4178,-5.4304,-5.8361,-6.0472,-6.1934,-6.3055,-6.398,-6.5257,-6.7318,-6.7667,-6.8131,-6.9466,-6.9612,-6.9554,-6.9554,-6.9641,-6.9699,-6.9757,-6.9699,-6.9261,-6.8428,-6.8216,-6.8022,-6.7793,-6.8499,-6.8939,-6.8924,-6.9664,-7.0107,-7.0107,-7.0164,-7.0192,-7.0192,-7.0276,-7.0023,-6.9489,-6.9489,-6.8378,-6.6439,-6.6192,-6.5985,-6.5992,-6.7051,-6.6535,-6.5078,-6.5694,-6.5585,-6.5043,-6.4427,-6.3912,-6.3533,0.0,0.0,0.0,-3.5928,-3.5714,-3.5642,-3.5545,-3.6173,-3.7353,-3.9315,-4.1172,-4.2936,-4.4423,-4.469,-4.4724,-4.469,-4.9314,-5.3317,-5.589,-6.2381,-6.7034,-6.9063,-7.0711,-7.1724,-7.2007,-7.28,-7.3258,-7.3312,-7.3809,-7.3845,-7.3509,-7.3788,-7.3874,-7.3815,-7.4276,-7.3955,-7.3068,-7.257,-7.1653,-7.0534,-7.0007,-6.9422,-6.8748,-6.7885,-6.6652,-6.5275,-6.4461,-6.3113,0.0,-6.12,-6.1138,-6.1225,-6.1043,-6.0053,-5.8256,-5.4862,-5.2453,-5.0674,-4.9791,-4.8492,-4.7688,-4.9266,-5.0815,-5.296,-5.6898,-5.7897,-5.9092,-6.2736,-6.4555,-6.5743,-6.6651,-6.7028,-6.7559,-6.8544,-6.9077,-6.9418,-6.9767,-6.9962,-7.003,-6.9854,-6.9437,-6.9379,-6.9728,-6.9786,-6.9601,-6.9204,-6.8652,-6.8533,-6.9084,-6.8725,-6.8825,-6.9562,-6.9708,-6.977,-6.977,-7.0135,-7.0304,-7.0304,-6.9939,-6.9826,-6.9911,-6.9545,-6.8608,-6.7218,-6.6083,-6.5733,-6.5908,-6.6203,-6.5884,-6.5233,-6.5477,-6.5205,-6.4663,-6.4391,-6.4364,-6.4446,0.0,0.0,0.0,-3.7066,-3.6759,-3.6504,-3.6381,-3.6621,-3.727,-3.8509,-3.956,-4.0353,-4.0823,-4.066,-4.0681,-4.1206,-4.6178,-5.08,-5.4484,-6.1705,-6.7023,-6.9692,-7.1424,-7.2436,-7.2623,-7.3523,-7.3926,-7.3857,-7.4202,-7.4243,-7.3911,-7.4346,-7.4495,-7.4531,-7.502,-7.4855,-7.4254,-7.3436,-7.2646,-7.1741,-7.0914,-7.0206,-6.9526,-6.7805,-6.608,-6.4363,-6.3179,-6.129,-5.9162,-5.7927,-5.8029,-5.8535,-5.8357,-5.8429,-5.7975,-5.5167,-5.3744,-5.2995,-5.2456,-5.1917,-5.1858,-5.3354,-5.5987,-5.853,-5.9757,-6.1383,-6.3356,-6.5793,-6.7343,-6.8289,-6.8566,-6.8847,-6.9165,-6.927,-6.996,-7.039,-7.0087,-7.0215,-7.005,-6.936,-6.8857,-6.8683,-6.8944,-6.9292,-6.9525,-6.9525,-6.899,-6.9084,-6.9979,-6.9292,-6.9309,-7.0075,-6.9939,-6.9804,-6.9658,-7.0079,-7.0304,-7.0304,-6.9854,-6.9883,-7.0276,-6.9584,-6.8944,-6.827,-6.6706,-6.6211,-6.6432,-6.6302,-6.6119,-6.5818,-6.5818,-6.5472,-6.5063,-6.4736,-6.48,-6.488,0.0,0.0,0.0,0.0,-3.7936,-3.7443,-3.7286,-3.7894,-3.8576,-3.9209,-3.9945,-4.0326,-4.016,-4.002,-3.9878,-3.9772,-4.4984,-4.9876,-5.3785,-6.0688,-6.6424,-7.0364,-7.1932,-7.334,-7.4683,-7.4461,-7.4987,-7.6264,-7.5034,-7.4583,-7.4965,-7.4625,-7.4495,-7.4531,-7.4531,-7.4703,-7.4861,-7.3134,-7.2625,-7.2823,-7.1418,-7.0723,-7.0287,-6.862,-6.5951,-6.2842,-6.0562,-5.7689,-5.4633,-5.2968,-5.2875,-5.3294,-5.2665,-5.459,-5.6773,-5.477,-5.2348,-4.9897,-4.8027,-4.9793,-5.2636,-5.464,-5.8082,-6.1672,-6.4246,-6.634,-6.7894,-6.8262,-6.9417,-6.9821,-6.8189,-6.9014,-6.9737,-6.9337,-7.0162,-7.0808,-7.0668,-7.0438,-6.9699,-6.814,-6.7928,-6.7667,-6.7028,-6.8102,-6.8857,-6.8857,-6.9408,-6.9757,-6.9815,-7.0556,-7.0864,-7.0535,-7.07,-7.0645,-7.0276,-7.0304,-7.0304,-7.0304,-7.0276,-7.0276,-7.0276,-6.929,-6.9096,-6.9625,-6.8567,-6.8142,-6.8197,-6.8777,-6.8335,-6.7285,-6.7285,-6.7258,-6.7092,-6.5932,-6.4988,-6.441,0.0,0.0,0.0,0.0,0.0,-3.8497,-3.895,-3.874,-3.8772,-3.9348,-3.9727,0.0,0.0,0.0,0.0,0.0,-4.4524,-4.8735,-5.2921,-5.9458,-6.4796,-6.8377,-7.1584,-7.3615,-7.4357,-7.4555,-7.5087,-7.598,-7.4871,-7.4549,-7.4977,-7.5554,-7.5589,-7.5206,-7.6067,-7.5969,-7.4936,-7.4123,-7.3084,-7.1897,-7.118,-7.0026,-6.8636,-6.7638,-6.4048,-5.9038,0.0,-5.3324,-5.0939,-4.9927,-4.9464,-4.9464,-5.0541,-5.1079,-5.096,-4.9584,-4.9779,-5.0711,-5.1793,-5.4051,-5.6705,-5.9159,-6.2421,-6.5353,-6.667,-6.8196,-6.9363,-6.9445,-6.8921,-6.8228,-6.7433,-6.7618,-6.8071,-6.8643,-7.0489,-7.1783,-7.1483,-7.1992,-7.1264,-6.8246,-6.8071,-6.7619,-6.6102,-6.7334,-6.8538,-6.9379,-6.9435,-6.9927,-7.0976,-7.0473,-7.0392,-7.0864,-7.0519,-7.0226,-7.008,-7.0255,-7.0304,-7.0304,-7.0304,-7.0079,-6.9714,-6.9467,-6.9663,-7.0054,-6.8771,-6.8567,-6.9151,-6.8658,-6.8031,-6.7313,-6.7313,-6.6816,-6.607,-6.5656,-6.5347,-6.5132,0.0,0.0,0.0,0.0,0.0,0.0,0.0,0.0,0.0,0.0,0.0,0.0,0.0,0.0,0.0,0.0,0.0,-4.7504,-5.1758,-5.6897,-6.1687,-6.5879,-6.8466,-7.0338,-7.1411,-7.1263,-7.1721,-7.2907,-7.2692,-7.2934,-7.3764,-7.4974,-7.521,-7.4625,-7.5618,-7.5459,-7.4372,-7.3683,-7.2546,-7.1108,-6.9671,-6.797,-6.6052,-6.3811,-5.9554,0.0,-5.0472,-4.7387,-4.5128,-4.4866,-4.4945,-4.5364,-4.6381,-4.7322,-4.7962,-4.7588,-4.9354,-5.2118,-5.5129,-5.7595,-6.0101,-6.3252,-6.6102,-6.8228,-6.8773,-6.9669,-7.0111,-6.9423,-6.7859,-6.6425,-6.5712,-6.538,-6.5638,-6.7126,-6.9095,-7.0664,-7.1352,-7.177,-7.1014,-6.8283,-6.8112,-6.7594,-6.6002,-6.6977,-6.809,-6.9031,-6.929,-7.0014,-7.1266,-7.0729,-7.0719,-7.1395,-7.0878,-7.0473,-7.0327,-7.0329,-7.0304,-7.0304,-7.0304,-7.0107,-6.9742,-6.9839,-7.0082,-7.0276,-6.9365,-6.9347,-6.983,-6.9217,-6.8614,-6.803,-6.7836,-6.7252,-6.6557,-6.6307,-6.639,-6.6501,0.0,0.0,0.0,0.0,0.0,0.0,0.0,0.0,0.0,0.0,0.0,0.0,0.0,0.0,0.0,0.0,0.0,0.0,-5.0156,-5.31,-5.7257,-6.2909,-6.3153,-6.4124,-6.6272,-6.5207,-6.564,-6.7618,-6.8624,-6.9922,-7.1396,-7.278,-7.3061,-7.2532,-7.2948,-7.3044,-7.2921,-7.1629,-7.0832,-7.0091,-6.6927,-6.4527,-6.2432,-5.7608,-5.3213,-4.9061,-4.4348,-4.054,-3.7733,-3.8312,-3.9955,-4.1632,-4.1033,-4.4038,-4.7968,-4.8966,-5.1136,-5.4127,-5.7764,-6.0337,-6.2871,-6.6703,-6.8898,-7.0179,-7.0438,-7.0667,-7.0231,-6.8198,-6.6101,-6.4246,-6.2897,-6.2241,-6.2694,-6.4932,-6.6427,-6.8094,-7.0563,-7.02,-6.9322,-6.82,-6.8077,-6.7683,-6.6563,-6.7055,-6.7597,-6.7936,-6.9089,-7.0076,-7.0744,-7.1382,-7.185,-7.2129,-7.1725,-7.1361,-7.0996,-7.0526,-7.0304,-7.0304,-7.0304,-7.0304,-7.0304,-7.0304,-7.0304,-7.0304,-7.0304,-7.0304,-7.0304,-7.0304,-6.9939,-6.9321,-6.8759,-6.8506,-6.8393,-6.7775,-6.7916,-6.8253,0.0,0.0,0.0,0.0,0.0,0.0,0.0,0.0,0.0,0.0,0.0,0.0,0.0,0.0,0.0,0.0,0.0,0.0,-4.7835,-5.0752,-5.408,-5.7945,-6.0788,-6.3076,-6.4807,-6.5056,-6.5626,-6.6499,-6.6059,-6.6291,-6.7145,-6.7673,-6.7714,-6.7346,-6.8318,-6.8289,-6.7598,-6.7243,-6.5768,-6.3556,-6.2139,-5.9727,-5.6769,-5.5476,-5.1464,-4.6224,-4.4361,-4.0916,-3.7449,-3.9277,-4.2677,-4.6177,-4.6717,-4.8536,-5.0689,-5.1894,-5.4857,-5.8288,-6.0768,-6.4171,-6.7485,-6.9002,-7.0787,-7.1964,-7.0745,-7.02,-6.884,-6.532,-6.2055,-5.9093,-5.6402,-5.8488,-6.0984,-6.2067,-6.6967,-7.1033,-7.2209,-7.2604,-7.1984,-6.9769,-6.9689,-6.9139,-6.7382,-6.7789,-6.8335,-6.8911,-6.9457,-7.025,-7.1382,-7.2021,-7.2385,-7.2459,-7.2129,-7.1942,-7.1768,-7.1114,-7.06,-7.0304,-7.0304,-7.0304,-7.0304,-7.0304,-7.0304,-7.0304,-7.0304,-7.0304,-7.0304,-7.0304,-6.9939,-6.9377,-6.9208,-6.8871,-6.845,-6.8281,-6.8028,-6.7719,0.0,0.0,0.0,0.0,0.0,0.0,0.0,0.0,0.0,0.0,0.0,0.0,0.0,0.0,0.0,0.0,0.0,0.0,0.0,-4.806,-5.0357,-5.3165,-5.517,-5.6955,-5.851,-5.8717,-5.9263,-6.014,-6.0424,-6.1018,-6.1909,-6.2652,-6.281,-6.2531,-6.3255,-6.3096,-6.2316,-6.2404,-6.0924,0.0,0.0,-5.473,-5.1867,-5.0389,-4.7077,-4.3033,-4.1631,-4.0482,-4.0041,-4.2599,-4.5546,-4.8386,-5.0053,-5.1939,-5.3928,-5.5678,-5.8837,-6.2281,-6.4468,-6.7718,-7.0616,-7.0982,-7.2256,-7.2614,-6.9426,-6.8304,-6.6429,-6.1152,-5.7527,-5.452,-5.2171,-5.4529,-5.7543,-5.9645,-6.4901,-6.9583,-7.2283,-7.2361,-7.1936,-7.1338,-7.1177,-7.0593,-6.9298,-6.9536,-6.9817,-7.0127,-6.9933,-7.0337,-7.1615,-7.1992,-7.234,-7.2602,-7.2273,-7.2014,-7.1869,-7.1215,-7.0922,-7.082,-7.0673,-7.0673,-7.082,-7.082,-7.0747,-7.0526,-7.0526,-7.0452,-7.0304,-7.0304,-6.9939,-6.9377,-6.9377,-6.918,-6.8871,-6.8871,-6.8815,-6.8702,0.0,0.0,0.0,0.0,0.0,0.0,0.0,0.0,0.0,0.0,-4.4421,-4.3633,0.0,0.0,0.0,0.0,0.0,0.0,0.0,0.0,-4.6987,-4.9288,-4.8995,-4.9521,-5.1179,-5.0815,-5.1177,-5.2378,-5.4071,-5.5351,-5.6359,-5.7613,-5.7985,-5.772,-5.786,-5.7614,-5.7078,-5.7152,-5.5891,-5.3706,-5.1983,-4.9884,-4.7454,0.0,-4.2145,-4.0016,-3.8039,-3.9642,-4.3282,-4.6701,-4.8816,-5.0439,-5.2857,-5.5446,-5.7928,-6.0096,-6.3041,-6.6062,-6.829,-7.074,-7.2762,-7.2823,-7.3303,-7.2441,-6.7505,-6.5772,-6.3264,-5.6455,-5.2799,-5.0366,-4.8829,-5.0683,-5.3748,-5.7756,-6.1966,-6.6583,-7.1797,-7.1263,-7.1038,-7.2834,-7.2445,-7.1894,-7.1592,-7.1592,-7.1562,-7.1532,-7.0682,-7.0581,-7.1615,-7.1847,-7.2166,-7.2718,-7.2489,-7.21,-7.1579,-7.1215,-7.1215,-7.1507,-7.1142,-7.1142,-7.1507,-7.1507,-7.1288,-7.0996,-7.0996,-7.0747,-7.0452,-7.0452,-7.0142,-6.9664,-6.959,-6.959,-6.959,-6.9517,-6.9798,-7.0107,0.0,0.0,0.0,0.0,0.0,0.0,0.0,0.0,0.0,0.0,-4.6777,-4.4865,0.0,0.0,0.0,0.0,0.0,0.0,0.0,0.0,0.0,-4.874,-4.8652,-4.9393,-5.1179,-5.1559,-5.1769,-5.1847,-5.202,-5.22,-5.2383,-5.2301,-5.2234,-5.2155,-5.1885,-5.1683,-5.1556,-5.1032,-4.9718,-4.7958,-4.7767,-4.5896,-4.3225,-4.3082,0.0,0.0,-3.7863,-3.9198,-4.2432,-4.843,-5.3252,-5.7106,-5.941,-6.1664,-6.3725,-6.5257,-6.7258,-6.9382,-7.0953,-7.2552,-7.3874,-7.4459,-7.3442,-7.1261,-6.7286,-6.3776,-5.9417,-5.2581,-4.8875,-4.6183,-4.396,-4.7722,-5.2546,-5.6596,-6.2203,-6.7727,-7.2551,-7.2733,-7.2744,-7.3612,-7.3133,-7.2678,-7.2678,-7.241,-7.2408,-7.2963,-7.2218,-7.179,-7.1714,-7.2689,-7.3327,-7.3443,-7.3371,-7.2894,-7.2014,-7.1913,-7.1797,-7.1507,-7.1434,-7.1434,-7.1507,-7.1507,-7.1434,-7.1434,-7.1434,-7.1361,-7.1288,-7.1288,-7.1231,-7.1117,-7.0752,-7.0679,-7.0606,-7.0311,-6.9883,-6.9545,0.0,0.0,0.0,0.0,0.0,0.0,0.0,-4.6516,-4.8567,-5.2509,-5.1508,-4.9808,-4.8286,-4.6567,-4.5688,0.0,0.0,0.0,0.0,0.0,0.0,-4.7646,-4.7838,-4.8321,-4.9194,-4.9656,-4.9814,-4.9606,0.0,-4.9254,-4.9393,-4.8969,-4.8824,-4.8897,-4.8111,-4.7837,-4.7737,-4.6925,-4.6044,-4.5227,-4.5298,-4.4299,-4.2754,-4.2685,0.0,0.0,-3.8767,-4.0677,-4.3858,-4.7663,-5.3661,-6.0032,-6.273,-6.4906,-6.6735,-6.8089,-6.9659,-7.129,-7.2645,-7.3753,-7.443,-7.403,-7.2675,-6.9815,-6.3831,-5.985,-5.534,-4.7773,-4.4533,-4.2498,-4.0995,-4.4669,-4.923,-5.2963,-5.7719,-6.3075,-6.9149,-6.9619,-7.047,-7.3522,-7.3612,-7.3552,-7.3911,-7.3806,-7.3721,-7.3813,-7.3359,-7.2871,-7.2519,-7.2818,-7.3095,-7.3095,-7.3095,-7.2878,-7.2345,-7.2201,-7.2057,-7.2057,-7.1942,-7.1942,-7.2057,-7.2057,-7.1985,-7.1797,-7.1579,-7.1507,-7.1507,-7.1288,-7.1288,-7.1507,-7.1288,-7.1215,-7.1215,-7.0996,-7.0724,-7.0469,0.0,0.0,0.0,0.0,0.0,0.0,-4.7033,-4.889,-5.1486,-5.5925,-5.647,-5.5271,-5.2277,-4.9061,-4.7153,0.0,0.0,0.0,0.0,0.0,0.0,0.0,0.0,0.0,-4.7709,0.0,0.0,-4.8035,-4.7864,0.0,0.0,0.0,0.0,0.0,-4.5984,-4.5491,-4.552,-4.4356,-4.3965,0.0,0.0,-4.3881,-4.3441,0.0,0.0,0.0,0.0,-4.17,-4.4486,-4.6734,-5.2386,-5.9086,-6.2747,-6.5737,-6.8139,-6.9466,-7.1007,-7.2552,-7.4034,-7.4774,-7.4898,-7.3756,-7.1904,-6.8386,-6.0435,-5.621,-5.1696,-4.3771,-4.0957,-3.9749,-3.9168,-4.2046,-4.5752,-4.9622,-5.319,-5.8001,-6.5453,-6.6433,-6.8226,-7.3103,-7.3821,-7.4151,-7.4809,-7.4869,-7.4731,-7.4456,-7.404,-7.3639,-7.3261,-7.3093,-7.295,-7.2834,-7.2834,-7.2776,-7.2602,-7.2345,-7.2345,-7.2602,-7.2345,-7.2345,-7.2602,-7.2602,-7.2416,-7.2057,-7.1797,-7.1652,-7.1579,-7.1288,-7.1434,-7.1725,-7.1652,-7.1652,-7.1652,-7.1507,-7.1507,-7.1478,0.0,0.0,0.0,0.0,0.0,0.0,-4.7786,-5.0326,-5.3891,-5.9943,-6.015,-5.9082,-5.7225,-5.3107,-4.9859,0.0,0.0,0.0,0.0,0.0,0.0,0.0,0.0,0.0,0.0,0.0,0.0,-4.916,-4.9488,0.0,0.0,0.0,0.0,0.0,0.0,-4.5141,-4.549,-4.3557,0.0,0.0,0.0,0.0,0.0,0.0,0.0,0.0,0.0,-4.0374,-4.1635,-4.7478,-5.0316,-5.2363,-5.7684,-6.3308,-6.8052,-6.9423,-7.126,-7.3254,-7.5247,-7.5839,-7.5714,-7.5029,-7.1852,-6.7094,-5.9911,-5.4744,-4.9388,-4.2176,-3.9613,-3.8629,-3.8567,-4.0413,-4.3642,-4.8912,-5.217,-5.6587,-6.4058,-6.6643,-6.9093,-7.2595,-7.3522,-7.4151,-7.4809,-7.4869,-7.4869,-7.4869,-7.4179,-7.3745,-7.3574,-7.4053,-7.4082,-7.3531,-7.3531,-7.324,-7.2631,-7.2559,-7.2559,-7.2602,-7.2559,-7.2559,-7.2602,-7.2602,-7.2416,-7.2057,-7.2057,-7.2057,-7.2057,-7.1985,-7.2201,-7.2488,-7.2129,-7.2057,-7.2014,-7.1652,-7.1507,-7.1421,0.0,0.0,0.0,0.0,0.0,0.0,-4.9256,-5.0734,-5.3923,-6.1082,-6.1358,-6.0771,-6.0598,-5.7291,-5.3479,-4.9398,0.0,0.0,0.0,0.0,0.0,0.0,0.0,0.0,0.0,0.0,-4.9588,-4.9491,-4.9857,0.0,0.0,0.0,0.0,0.0,0.0,-4.5537,-4.531,-4.3521,0.0,0.0,0.0,0.0,0.0,0.0,0.0,0.0,0.0,0.0,-4.2656,-4.4661,-4.7743,-5.0907,-5.1401,-5.6109,-6.228,-6.666,-6.9075,-7.1194,-7.4997,-7.5714,-7.5215,-7.4529,-7.091,-6.5802,-5.9269,-5.3432,-4.776,-4.2062,-3.9111,-3.7684,-3.7991,-3.87,-4.0612,-4.4726,-4.5886,-4.8766,-5.6051,-5.9017,-6.2562,-6.8076,-7.0739,-7.2834,-7.4689,-7.4869,-7.498,-7.516,-7.5228,-7.4881,-7.3978,-7.3588,-7.3269,-7.3037,-7.3008,-7.2892,-7.2602,-7.2602,-7.2602,-7.2602,-7.2602,-7.2602,-7.2602,-7.2602,-7.2559,-7.2416,-7.2201,-7.2201,-7.2416,-7.2201,-7.2273,-7.2631,-7.2488,-7.2416,-7.2358,-7.184,-7.1653,-7.1537,0.0,0.0,0.0,0.0,0.0,-4.5473,-4.9968,-5.1378,-5.4333,-6.0944,-6.1703,-6.1772,-6.2117,-5.9426,-5.588,-5.1645,-4.9765,0.0,0.0,0.0,0.0,0.0,0.0,0.0,0.0,0.0,-5.0488,-5.0324,-5.0993,-5.1257,0.0,0.0,-4.9976,-4.9123,0.0,0.0,0.0,0.0,0.0,0.0,0.0,0.0,0.0,0.0,0.0,0.0,0.0,0.0,0.0,0.0,0.0,-4.8825,-4.7056,-5.0153,-5.5784,-6.2492,-6.6385,-6.9327,-7.3584,-7.5053,-7.5085,-7.4145,-7.0292,-6.5008,-5.8811,-5.2539,-4.6716,-4.1803,-3.8777,-3.7094,-3.7343,-3.756,-3.8579,-4.1247,-4.1893,-4.4425,-5.1075,-5.4268,-5.8241,-6.4483,-6.7631,-7.0355,-7.3163,-7.448,-7.5368,-7.5746,-7.5933,-7.5608,-7.4672,-7.3453,-7.2702,-7.2602,-7.2602,-7.2602,-7.2602,-7.2602,-7.2602,-7.2602,-7.2602,-7.2602,-7.2602,-7.2602,-7.2646,-7.2677,-7.2288,-7.2403,-7.2937,-7.2345,-7.2388,-7.2892,-7.2689,-7.2602,-7.2544,-7.1905,-7.1673,-7.1557,0.0,0.0,0.0,0.0,0.0,-4.5436,-4.9396,-5.2563,-5.5839,-5.9702,-6.153,-6.2186,-6.1392,-5.8633,-5.6429,-5.5407,-5.1871,0.0,0.0,0.0,0.0,0.0,0.0,0.0,0.0,0.0,-5.2102,-5.2068,-5.3342,-5.3573,-5.287,-5.252,-5.158,-5.0122,0.0,0.0,0.0,0.0,0.0,0.0,0.0,0.0,-4.6617,0.0,0.0,0.0,0.0,0.0,0.0,0.0,0.0,0.0,0.0,-4.6834,-4.9489,-5.7137,-6.3299,-6.8229,-7.1105,-7.3886,-7.5656,-7.4265,-7.022,-6.4922,-5.8499,-5.2115,-4.619,-4.1153,-3.8465,-3.6938,-3.6723,-3.725,-3.8084,-3.9339,-4.2138,-4.6051,-5.1438,-5.4934,-5.8503,-6.2879,-6.4656,-6.6673,-6.9786,-7.3582,-7.6155,-7.6784,-7.5865,-7.5454,-7.5648,-7.4114,-7.2986,-7.2602,-7.2602,-7.2602,-7.2602,-7.2602,-7.2602,-7.2602,-7.2602,-7.2602,-7.2602,-7.2602,-7.2735,-7.295,-7.2345,-7.285,-7.3917,-7.2648,-7.2648,-7.3531,-7.2863,-7.2602,-7.2544,-7.1905,-7.1673,-7.1498,0.0,0.0,0.0,0.0,0.0,0.0,-4.8598,-4.9452,-5.1653,-5.6949,-5.6743,-5.7222,-6.022,-5.7739,-5.5887,-5.6028,-5.2951,0.0,0.0,0.0,0.0,0.0,0.0,0.0,0.0,-5.2166,-5.3281,-5.3822,-5.5063,-5.5794,-5.5883,-5.4662,-5.3515,-5.2274,-4.9619,-4.8628,0.0,0.0,0.0,0.0,0.0,-4.7937,-4.7742,0.0,0.0,0.0,0.0,0.0,0.0,0.0,0.0,0.0,0.0,0.0,0.0,-5.0374,-5.6473,-6.2541,-6.5353,-6.7471,-6.8419,-6.6523,-6.3836,-6.036,-5.5437,-5.0956,-4.6539,-4.2055,-3.9471,-3.7806,-3.7062,-3.7561,-3.9181,-4.2458,-4.3932,-4.6133,-5.0393,-5.4962,-5.9049,-6.2062,-6.8516,-7.3078,-7.4255,-7.594,-7.6914,-7.6814,-7.6494,-7.6074,-7.5483,-7.4303,-7.3269,-7.2631,-7.2602,-7.2602,-7.2602,-7.2602,-7.2602,-7.2602,-7.2602,-7.2602,-7.2602,-7.2602,-7.2907,-7.3371,-7.3169,-7.3313,-7.3734,-7.3328,-7.3009,-7.2921,-7.2689,-7.2602,-7.2544,-7.1905,-7.1673,-7.1557,0.0,0.0,0.0,0.0,0.0,0.0,-4.7392,-4.7735,-4.9409,-5.3695,-5.335,-5.434,-5.8669,-5.6367,-5.5068,-5.6474,-5.4053,0.0,0.0,0.0,0.0,0.0,0.0,0.0,-5.1623,-5.2841,-5.4363,-5.6149,-5.6951,-5.7779,-5.8528,-5.7435,-5.5884,-5.3841,-5.1541,-5.0283,0.0,0.0,0.0,0.0,-4.8576,-4.8795,-4.8955,0.0,0.0,0.0,0.0,0.0,0.0,0.0,0.0,0.0,0.0,0.0,0.0,0.0,-5.0437,-5.5999,-6.0645,-6.3299,-6.4405,-6.2825,-6.0455,-5.7484,-5.3597,-4.9584,-4.5665,-4.1968,-3.9977,-3.8589,-3.7683,-3.8059,-3.9529,-4.2457,-4.3525,-4.558,-4.9977,-5.4481,-5.893,-6.3152,-6.9641,-7.4006,-7.465,-7.6115,-7.6873,-7.6664,-7.6555,-7.6095,-7.5328,-7.4465,-7.3691,-7.3057,-7.2773,-7.2602,-7.2602,-7.2602,-7.2602,-7.2602,-7.2602,-7.2747,-7.3008,-7.3008,-7.3472,-7.4314,-7.4053,-7.4082,0.0,-7.3821,-7.3356,-7.2979,-7.2718,-7.2602,-7.2544,-7.1905,-7.1673,-7.1586,0.0,0.0,0.0,0.0,0.0,0.0,0.0,-4.7313,-4.8748,-5.0222,-5.1131,-5.3009,-5.6542,-5.452,-5.3941,-5.6541,-5.4873,0.0,0.0,0.0,0.0,0.0,0.0,0.0,-5.2367,-5.3281,-5.5375,-5.8728,-5.8862,-5.9588,-6.0792,-6.0531,-5.848,-5.5052,-5.3971,-5.2638,-5.1214,-5.1072,-5.0639,-4.9977,-4.9594,-4.9776,0.0,0.0,0.0,0.0,0.0,0.0,0.0,0.0,0.0,0.0,0.0,0.0,0.0,0.0,0.0,0.0,0.0,-6.036,-6.2256,-6.1435,-5.8797,-5.562,-5.2238,-4.7972,0.0,-4.1178,-4.0072,-3.9345,-3.8622,-3.8842,-3.9433,-4.0522,-4.2045,-4.5018,-5.0387,-5.4175,-5.9061,-6.6208,-6.9062,-7.0948,-7.2192,-7.4838,-7.6409,-7.6409,-7.6064,-7.5687,-7.5308,-7.4615,-7.4149,-7.3831,-7.3128,-7.2702,-7.2702,-7.2702,-7.2702,-7.2702,-7.2702,-7.295,-7.3531,-7.3531,-7.4227,-7.533,-7.4721,-7.4808,-7.5272,-7.4111,-7.3589,-7.3472,-7.2863,-7.2602,-7.2544,-7.1963,-7.1731,-7.1644,0.0,0.0,0.0,0.0,0.0,0.0,0.0,0.0,0.0,0.0,-4.843,-4.9176,-5.1928,-5.1492,-5.1739,0.0,0.0,0.0,0.0,0.0,0.0,0.0,0.0,0.0,-5.3179,-5.5074,-5.6894,-5.8728,-6.041,-6.179,-6.2857,-6.1683,-6.0004,-5.7852,-5.5355,-5.2837,-5.0485,-5.1014,-5.1146,-5.0946,-5.07,-5.0293,0.0,0.0,0.0,0.0,-4.4199,-4.3809,0.0,0.0,0.0,0.0,0.0,0.0,0.0,0.0,-4.4183,-4.5286,-4.8193,0.0,-5.1891,-5.0153,-4.9489,-4.8762,0.0,-4.5539,-4.3927,-4.1178,-4.0451,-4.0354,-4.0374,-4.0156,-4.1466,-4.5874,-4.7472,-4.948,-5.3267,-5.9378,-6.5688,-7.1568,-7.3625,-7.4817,-7.5348,-7.6264,-7.6653,-7.6409,-7.5614,-7.5108,-7.497,-7.4039,-7.3714,-7.4179,-7.3761,-7.348,-7.348,-7.348,-7.348,-7.348,-7.3199,-7.3145,-7.3291,-7.3006,-7.3298,-7.4053,-7.3908,-7.3908,-7.4024,-7.3734,-7.3327,-7.2834,-7.2689,-7.2602,-7.2602,-7.2456,-7.2398,-7.2369,0.0,0.0,0.0,0.0,0.0,0.0,0.0,0.0,0.0,0.0,-4.7024,-4.7733,-4.9668,-5.0212,-5.0934,0.0,0.0,0.0,0.0,0.0,0.0,0.0,-5.1928,-5.2369,-5.3821,-5.5036,-5.7083,-5.9929,-6.114,-6.2649,-6.4407,-6.3278,-6.1376,-5.8767,-5.5487,-5.2771,-5.075,-5.1409,-5.1473,-5.114,-5.0824,0.0,0.0,0.0,0.0,0.0,-4.3879,-4.3619,0.0,-4.4024,-4.4432,-4.4678,0.0,0.0,0.0,0.0,-4.2252,-4.2505,-4.3579,-4.655,-4.8952,-4.7214,-4.7277,-4.7308,-4.5602,-4.4464,-4.3074,-4.0609,-4.0609,-4.0985,-4.072,-4.1406,-4.3207,-4.6849,-4.914,-5.2361,-5.7801,-6.3064,-6.8274,-7.3383,-7.4645,-7.5535,-7.663,-7.6452,-7.6082,-7.5775,-7.4804,-7.4174,-7.3971,-7.3708,-7.3759,-7.4147,-7.4238,-7.411,-7.3761,-7.3761,-7.3908,-7.4203,-7.3698,-7.3803,-7.429,-7.3754,-7.3917,-7.4531,-7.4531,-7.4313,-7.3906,-7.3906,-7.3355,-7.2602,-7.2602,-7.2602,-7.2602,-7.2602,-7.2602,-7.2602,0.0,0.0,0.0,0.0,0.0,0.0,0.0,0.0,0.0,0.0,0.0,0.0,0.0,0.0,0.0,0.0,0.0,0.0,0.0,0.0,0.0,-5.2201,-5.2132,-5.2808,-5.4256,-5.4389,-5.6556,-6.0876,-6.1442,-6.2955,-6.526,-6.4995,-6.2808,-5.8933,-5.5587,-5.3132,-5.1609,-5.196,-5.1753,-5.1224,-5.0671,0.0,0.0,0.0,0.0,0.0,0.0,0.0,0.0,-4.4064,-4.5208,-4.6215,-4.4397,0.0,0.0,0.0,0.0,0.0,-4.1652,-4.576,-4.9299,-4.7403,-4.7688,-4.7877,-4.5792,-4.3959,-4.2157,-4.023,-4.0862,-4.168,-4.1449,-4.3122,-4.5192,-4.7146,-5.0257,-5.5117,-6.2836,-6.58,-6.8889,-7.3445,-7.4091,-7.4861,-7.6677,-7.6012,-7.5348,-7.5048,-7.396,-7.3202,-7.3043,-7.3559,-7.3889,-7.4031,-7.4569,-7.4594,-7.397,-7.397,-7.4296,-7.4916,-7.4226,-7.448,-7.5601,-7.4881,-7.4881,-7.5412,-7.5412,-7.4945,-7.416,-7.416,-7.3625,-7.2744,-7.2744,-7.2744,-7.2744,-7.2744,-7.2744,-7.2744,0.0,0.0,0.0,0.0,0.0,0.0,0.0,0.0,0.0,0.0,0.0,0.0,0.0,0.0,0.0,0.0,0.0,0.0,0.0,0.0,0.0,-5.19,-5.1429,-5.2169,-5.4256,-5.4718,-5.6178,-5.8613,-6.1708,-6.372,-6.4564,-6.632,-6.4531,-5.9761,-5.7939,-5.5506,-5.2814,-5.2317,-5.224,-5.2421,-5.1172,0.0,0.0,0.0,0.0,0.0,0.0,0.0,0.0,-4.3202,-4.378,-4.3939,-4.3287,0.0,0.0,0.0,0.0,0.0,-4.2695,-4.6139,-4.8004,-4.3643,-4.4433,-4.5728,-4.3643,-4.2916,-4.241,-4.1462,-4.1936,-4.3321,-4.5908,-4.6597,-4.8266,-5.2945,-5.6367,-6.0476,-6.636,-6.7966,-6.9936,-7.3568,-7.4491,-7.5199,-7.6092,-7.5736,-7.5348,-7.5048,-7.3733,-7.3194,-7.3672,-7.355,-7.3888,-7.4689,-7.4839,-7.4869,-7.4731,-7.4731,-7.509,-7.5677,-7.4714,-7.4634,-7.5346,-7.4344,-7.3967,-7.4056,-7.4056,-7.3997,-7.3838,-7.3838,-7.3779,-7.3621,-7.3621,-7.3621,-7.3621,-7.3621,-7.3621,-7.3621,0.0,0.0,0.0,0.0,0.0,0.0,0.0,0.0,0.0,0.0,0.0,0.0,0.0,0.0,0.0,0.0,0.0,0.0,0.0,-5.1562,-5.1997,-5.297,-5.1865,-5.2099,-5.3939,-5.577,-5.7886,-6.0314,-6.3567,-6.568,-6.6684,-6.5724,-6.3173,-5.9297,-5.6614,-5.4423,-5.266,-5.1717,-5.1671,-5.2187,0.0,0.0,0.0,0.0,0.0,0.0,0.0,0.0,0.0,0.0,-4.3912,-4.5454,-4.3612,0.0,0.0,0.0,0.0,0.0,-4.0988,-4.3421,-4.5286,-4.4148,-4.7403,-5.0216,-4.7719,-4.6866,-4.6297,-4.5223,-4.5254,-4.6129,-4.827,-5.0247,-5.3543,-5.9644,-6.2124,-6.4607,-6.8166,-6.9247,-7.0608,-7.3199,-7.403,-7.4707,-7.5384,-7.5317,-7.4905,-7.4245,-7.3571,-7.3222,-7.3106,-7.3298,-7.3714,-7.433,-7.4689,-7.4869,-7.4869,-7.4869,-7.5228,-7.5886,-7.4991,-7.4952,-7.5578,-7.4754,-7.4387,-7.4387,-7.4387,-7.4248,-7.404,-7.404,-7.397,-7.3761,-7.3761,-7.3761,-7.3761,-7.3761,-7.3761,-7.3731,0.0,0.0,0.0,0.0,0.0,0.0,0.0,0.0,0.0,0.0,0.0,0.0,0.0,0.0,0.0,0.0,0.0,0.0,0.0,-5.0358,-5.1192,-5.3031,-5.2524,-5.3052,-5.4955,-5.7143,-5.9757,-6.2719,-6.579,-6.8042,-6.9368,-6.5724,-6.2278,-5.8999,-5.5487,-5.3232,-5.2004,-5.1158,-5.1143,-5.1655,0.0,0.0,0.0,0.0,0.0,0.0,0.0,0.0,0.0,0.0,0.0,0.0,0.0,0.0,0.0,-4.2006,-4.0198,-3.9281,-4.0483,-4.2097,-4.393,-4.6013,-5.0026,-5.3123,-5.1954,-5.0911,-5.0058,-4.9679,-4.9584,-4.9923,-5.096,-5.4478,-5.9109,-6.4777,-6.6697,-6.8152,-7.0196,-7.097,-7.1809,-7.3385,-7.397,-7.443,-7.4953,-7.5015,-7.4579,-7.3586,-7.3461,-7.3266,-7.2706,-7.3123,-7.3654,-7.4091,-7.4599,-7.4869,-7.4869,-7.4869,-7.5228,-7.5886,-7.5198,-7.5228,-7.5886,-7.5198,-7.4869,-7.4869,-7.4869,-7.4731,-7.4456,-7.4456,-7.4248,-7.404,-7.404,-7.404,-7.404,-7.404,-7.404,-7.3951,0.0,0.0,0.0,0.0,0.0,0.0,0.0,0.0,0.0,0.0,0.0,0.0,0.0,0.0,0.0,0.0,0.0,0.0,0.0,-5.0187,-5.0286,-5.0486,-5.2904,-5.5733,-5.8752,-5.882,-6.063,-6.4233,-6.7811,-7.0328,-7.1686,-6.8009,-6.4001,-5.9794,-5.6812,-5.382,-5.1032,-5.0999,-5.1143,-5.1336,-4.9968,0.0,0.0,0.0,0.0,0.0,0.0,0.0,0.0,0.0,0.0,0.0,0.0,0.0,-4.5888,-4.3677,-4.1884,-4.1214,-4.3883,-4.5186,-4.6226,-4.8168,-4.8541,-4.9394,-5.3028,-5.2333,-5.1606,-5.406,-5.4565,-5.4786,-5.5588,-5.9721,-6.3814,-6.6386,-6.8889,-7.1381,-7.3819,-7.3911,-7.4094,-7.5181,-7.5083,-7.4953,-7.5015,-7.5015,-7.4579,-7.3586,-7.3461,-7.348,-7.337,-7.3364,-7.3864,-7.4817,-7.4839,-7.4869,-7.4869,-7.4869,-7.5228,-7.5886,-7.5198,-7.5228,-7.5886,-7.5198,-7.4869,-7.4869,-7.4869,-7.4869,-7.4869,-7.4869,-7.48,-7.48,-7.48,-7.48,-7.48,-7.48,-7.48,-7.471,0.0,0.0,0.0,0.0,0.0,0.0,0.0,0.0,0.0,0.0,0.0,0.0,0.0,0.0,0.0,0.0,0.0,0.0,-4.8133,-4.8597,-4.9856,-5.2108,-5.3089,-5.5539,-5.9617,-6.2288,-6.5227,-6.844,-7.0262,-7.0991,-7.0527,-6.5955,-6.1947,-5.8469,-5.5123,-5.2967,-5.177,-5.0737,-5.0856,-5.1521,-4.9939,-4.8527,0.0,0.0,0.0,0.0,0.0,0.0,0.0,0.0,-4.4302,-4.579,-4.4137,-4.4903,-4.5888,-4.3326,-4.1438,-4.0515,-4.214,-4.3705,-4.5617,-4.839,-4.9906,-5.1651,-5.5221,-5.7105,-5.8527,-6.0012,-6.0676,-6.1036,-6.1433,-6.4058,-6.6603,-6.7958,-7.0608,-7.2922,-7.4003,-7.4961,-7.5333,-7.462,-7.4801,-7.483,-7.4399,-7.4769,-7.4643,-7.384,-7.4577,-7.4653,-7.3754,-7.3754,-7.4124,-7.4907,-7.4091,-7.3851,-7.427,-7.427,-7.439,-7.4659,-7.4809,-7.5018,-7.5258,-7.4988,-7.4869,-7.4869,-7.4869,-7.4629,-7.427,-7.427,-7.427,-7.43,-7.4719,-7.4629,-7.427,-7.427,-7.4001,-7.3552,0.0,0.0,0.0,0.0,0.0,0.0,0.0,0.0,0.0,0.0,0.0,0.0,0.0,0.0,0.0,0.0,0.0,0.0,-4.6908,-4.7802,-4.9558,-5.2274,-5.328,-5.5683,-5.977,-6.4321,-6.7804,-7.0196,-7.1885,-7.1587,-6.9334,-6.4697,-6.1127,-5.8336,-5.4692,-5.3069,-5.297,-5.1303,-5.0925,-5.1303,-4.9648,-4.8169,0.0,0.0,0.0,0.0,0.0,0.0,0.0,0.0,-4.4075,-4.5662,-4.4235,-4.5035,-4.599,-4.3683,-4.2686,-4.2205,-4.1949,-4.3425,-4.5667,-4.8216,-5.0819,-5.3692,-5.7625,-6.055,-6.3078,-6.5322,-6.5638,-6.5607,-6.6072,-6.7034,-6.8126,-6.9463,-7.2088,-7.4251,-7.5021,-7.5795,-7.589,-7.462,-7.4586,-7.443,-7.3753,-7.4276,-7.4399,-7.3722,-7.4859,-7.4932,-7.3647,-7.391,-7.4245,-7.4608,-7.3881,-7.3642,-7.3881,-7.3881,-7.3791,-7.3582,-7.4031,-7.436,-7.4569,-7.4779,-7.4749,-7.4569,-7.4569,-7.43,-7.3881,-7.3881,-7.4001,-7.424,-7.4689,-7.4599,-7.421,-7.421,-7.3791,-7.3133,0.0,0.0,0.0,0.0,0.0,0.0,0.0,0.0,0.0,0.0,0.0,0.0,0.0,0.0,0.0,0.0,0.0,0.0,-4.6939,-4.8266,-4.9425,-5.0187,-5.3482,-5.6599,-5.9498,-6.4314,-6.741,-6.8705,-7.2316,-7.2216,-6.8539,-6.4929,-6.208,-5.9794,-5.6145,-5.4523,-5.439,-5.2788,-5.1586,-5.0582,-4.8966,-4.7749,-4.673,0.0,0.0,0.0,0.0,0.0,0.0,0.0,-4.4302,-4.4075,-4.618,-4.6754,-4.6357,-4.5142,-4.6173,-4.7065,-4.4265,-4.5039,-4.6898,-4.7978,-5.0811,-5.4792,-6.0218,-6.1972,-6.4058,-6.9683,-6.9114,-6.8017,-6.913,-6.8457,-6.8525,-7.1027,-7.3385,-7.5574,-7.7225,-7.6595,-7.5882,-7.5554,-7.4589,-7.3722,-7.3045,-7.3599,-7.3722,-7.3045,-7.3928,-7.4066,-7.2979,-7.3864,-7.4255,-7.3911,-7.451,-7.454,-7.3881,-7.3881,-7.3552,-7.2894,-7.2924,-7.3283,-7.3911,-7.4569,-7.451,-7.3881,-7.3881,-7.3881,-7.3881,-7.3881,-7.427,-7.4869,-7.4869,-7.4869,-7.4869,-7.4869,-7.442,-7.3791,0.0,0.0,0.0,0.0,0.0,0.0,0.0,0.0,0.0,0.0,0.0,0.0,0.0,0.0,0.0,0.0,0.0,0.0,-4.6908,-4.7638,-4.896,-5.0883,-5.197,-5.3563,-5.5743,-5.9135,-6.3526,-6.8989,-6.9022,-6.718,-6.3594,-6.1445,-5.9341,-5.723,-5.7164,-5.5982,-5.3977,-5.2458,-5.1594,-5.1088,-4.9059,-4.8007,-4.7508,0.0,0.0,0.0,0.0,0.0,0.0,0.0,0.0,0.0,-4.3654,-4.5139,-4.636,-4.5175,-4.5462,-4.5941,-4.4721,-4.6694,-4.9429,-5.0902,-5.5027,-5.9848,-6.4096,-6.5574,-6.766,-7.3285,-7.2369,-7.074,-7.1394,-7.0814,-7.0396,-7.0945,-7.2671,-7.4283,-7.5275,-7.533,-7.5109,-7.4495,-7.4185,-7.3907,-7.3722,-7.4307,-7.4615,-7.443,-7.5597,-7.5797,-7.4768,-7.4805,-7.4831,-7.4977,-7.4016,-7.3402,-7.3223,-7.3672,-7.3313,-7.2206,-7.3163,-7.3702,-7.3911,-7.4091,-7.4091,-7.3881,-7.3881,-7.3343,-7.2535,-7.3013,-7.3582,-7.418,-7.418,-7.418,-7.4061,-7.3133,-7.2654,-7.2385,0.0,0.0,0.0,0.0,0.0,0.0,0.0,0.0,0.0,0.0,-4.4865,-4.5257,0.0,0.0,0.0,0.0,0.0,0.0,-4.6908,-4.777,-4.9026,-5.0679,-5.1241,-5.2622,-5.5058,-5.7593,-6.0457,-6.3656,-6.444,-6.3252,-6.0233,-6.0191,-5.9493,-5.8314,-5.9713,-5.8731,-5.5948,-5.4397,-5.272,-5.0949,-4.9538,-4.8586,-4.7864,0.0,0.0,0.0,0.0,0.0,0.0,0.0,0.0,0.0,-4.2197,-4.3331,-4.4623,-4.4754,-4.5627,-4.6657,-4.7181,-4.9515,-5.2385,-5.4659,-5.8364,-6.2715,-6.7577,-6.962,-7.161,-7.5561,-7.4391,-7.288,-7.3682,-7.2625,-7.1849,-7.2207,-7.3314,-7.4346,-7.5182,-7.5241,-7.4957,-7.443,-7.4153,-7.3907,-7.363,-7.3968,-7.4214,-7.4214,-7.5199,-7.5501,-7.4749,-7.5007,-7.5013,-7.46,-7.3888,-7.3177,-7.2505,-7.2894,-7.2565,-7.1517,-7.2325,-7.2834,-7.3103,-7.3373,-7.3343,-7.3103,-7.3402,-7.3043,-7.2325,-7.2744,-7.3313,-7.3881,-7.3612,-7.3492,-7.3402,-7.2595,-7.2116,-7.1816,0.0,0.0,-4.1745,-4.3139,0.0,0.0,0.0,0.0,0.0,0.0,-4.4787,-4.5407,0.0,0.0,0.0,0.0,0.0,0.0,0.0,-4.8233,-4.9258,-4.9879,-5.1077,-5.3166,-5.6122,-5.8,-5.7644,-5.5021,-5.9118,-6.0027,-5.7888,-6.0237,-6.135,-6.1415,-6.2811,-6.1797,-5.8918,-5.7151,-5.4072,-5.0322,-5.0107,-4.9256,-4.8026,-4.7184,0.0,0.0,0.0,0.0,0.0,0.0,0.0,0.0,-4.1547,-4.1612,-4.2001,-4.3913,-4.618,-4.8447,-5.0357,-5.2689,-5.5392,-5.8763,-6.132,-6.458,-7.0648,-7.3507,-7.5276,-7.6698,-7.5403,-7.4423,-7.5814,-7.4155,-7.2944,-7.4231,-7.471,-7.5247,-7.6114,-7.5678,-7.518,-7.4894,-7.4338,-7.3722,-7.3045,-7.3106,-7.3137,-7.3076,-7.3691,-7.3965,-7.3617,-7.4779,-7.482,-7.3491,-7.3967,-7.3563,-7.1906,-7.1936,-7.1607,-7.0889,-7.0949,-7.1278,-7.1816,-7.2505,-7.2475,-7.1906,-7.2475,-7.2774,-7.2834,-7.2834,-7.3223,-7.3732,-7.3073,-7.2864,-7.2894,-7.2774,-7.2385,-7.1876,0.0,0.0,-4.2354,-4.324,0.0,0.0,0.0,0.0,0.0,0.0,-4.4404,0.0,0.0,0.0,0.0,0.0,0.0,0.0,0.0,-4.7902,-4.8562,-4.9846,-5.1459,-5.2856,-5.3984,-5.3369,-5.2721,-5.2074,-5.5791,-5.6481,-5.4468,-5.829,-6.0075,-6.014,-6.1536,-6.027,-5.6904,-5.3779,-5.1534,-5.014,-4.9483,-4.9062,-4.8673,-4.7378,-4.6018,0.0,0.0,0.0,0.0,0.0,0.0,0.0,-4.1255,-4.1612,-4.1677,-4.2163,-4.4982,-4.8123,-4.8576,-5.23,-5.6987,-6.0857,-6.5948,-7.0663,-7.2901,-7.4202,-7.5276,-7.6698,-7.575,-7.5118,-7.6509,-7.5438,-7.4431,-7.4715,-7.4665,-7.4491,-7.4467,-7.4159,-7.3819,-7.3477,-7.3753,-7.3722,-7.3045,-7.3937,-7.4338,-7.3814,-7.4399,-7.4705,-7.4641,-7.4691,-7.4459,-7.3915,-7.3677,-7.3082,-7.1876,-7.2415,-7.2086,-7.0919,-7.1427,-7.1487,-7.1128,-7.1816,-7.2026,-7.1876,-7.1487,-7.1637,-7.2116,-7.2116,-7.2505,-7.3043,-7.2385,-7.2445,-7.2774,-7.1727,-7.1577,-7.1876,0.0,0.0,0.0,0.0,0.0,0.0,0.0,0.0,0.0,0.0,0.0,0.0,0.0,0.0,0.0,0.0,-4.7471,0.0,0.0,-4.7803,-4.8262,-4.9567,-5.1369,-5.2188,-5.1782,-5.1394,-5.0681,-4.9677,-5.1847,-5.2883,-5.2883,-5.7191,-5.9555,-6.0299,-6.1692,-5.9943,-5.583,-5.3661,-5.1329,-4.9159,-4.9807,-4.9451,-4.8414,-4.7313,-4.5597,-4.3524,-4.1743,0.0,0.0,0.0,0.0,0.0,0.0,0.0,-4.0318,-4.1678,-4.3913,-4.6698,-5.0131,-5.4244,-5.9046,-6.5464,-7.0001,-7.3225,-7.4368,-7.5047,-7.5624,-7.6351,-7.5656,-7.5308,-7.673,-7.5845,-7.4897,-7.4897,-7.4778,-7.4605,-7.4434,-7.4344,-7.4036,-7.3538,-7.3783,-7.3722,-7.3045,-7.363,-7.3907,-7.3537,-7.3845,-7.4184,-7.4491,-7.4331,-7.4075,-7.3754,-7.3399,-7.2706,-7.1688,-7.1822,-7.1607,-7.0889,-7.1248,-7.1248,-7.0919,-7.1248,-7.1577,-7.1876,-7.1517,-7.1757,-7.2355,-7.2026,-7.2116,-7.2355,-7.1667,-7.1637,-7.1876,-7.1158,-7.1128,-7.1427,0.0,0.0,0.0,0.0,0.0,0.0,0.0,0.0,0.0,0.0,0.0,0.0,0.0,0.0,-4.5282,0.0,0.0,0.0,0.0,0.0,0.0,-4.9319,-5.0955,-5.1361,-5.0325,-5.0519,-4.9839,-4.8188,-4.8346,-4.977,-5.2495,-5.6543,-5.936,-6.1012,-6.1789,-5.9587,-5.515,-5.3855,-5.1102,-4.7799,-4.9548,-4.9192,-4.754,-4.6795,-4.4917,-4.236,-4.0513,-4.0542,-4.1158,-3.9509,0.0,0.0,0.0,0.0,-3.8829,-4.1033,-4.2619,-4.5014,-5.094,-5.5798,-6.1245,-6.9857,-7.2921,-7.4051,-7.52,-7.5669,-7.5905,-7.6092,-7.5557,-7.5403,-7.6414,-7.5687,-7.4866,-7.4739,-7.4802,-7.4848,-7.4839,-7.481,-7.4563,-7.3877,-7.3907,-7.3722,-7.3045,-7.3076,-7.3106,-7.2983,-7.2983,-7.3229,-7.3783,-7.3814,-7.3688,-7.3372,-7.3053,-7.2395,-7.1435,-7.1083,-7.0984,-7.0889,-7.0889,-7.0889,-7.0954,-7.0919,-7.1188,-7.1727,-7.1727,-7.2026,-7.2535,-7.2086,-7.1816,-7.1667,-7.1248,-7.1009,-7.0889,-7.0889,-7.0889,-7.0919,0.0,0.0,0.0,0.0,0.0,0.0,0.0,0.0,0.0,0.0,-4.552,-4.5196,0.0,0.0,0.0,-4.5879,-4.5947,-4.6245,-4.7007,0.0,0.0,-4.9529,-5.0087,-5.0584,-5.1038,-4.9321,-4.8576,-4.8864,-4.698,-4.8497,-5.32,-5.6284,-5.9134,-6.1595,-5.9943,-5.7482,-5.4276,-5.0487,-4.7799,-4.6115,-4.6407,-4.6342,-4.6018,-4.5338,-4.4043,-4.2489,-4.1614,-4.1029,-4.0675,-4.1061,-4.051,0.0,0.0,0.0,-3.8343,-3.8056,-4.0739,-4.3913,-4.4885,-5.3078,-6.3088,-7.0212,-7.3086,-7.4389,-7.5515,-7.564,-7.566,-7.6232,-7.6057,-7.5719,-7.5245,-7.5024,-7.4707,-7.4139,-7.4518,-7.469,-7.4151,-7.4061,-7.3817,-7.3231,-7.363,-7.3722,-7.3045,-7.3506,-7.363,-7.3014,-7.2983,-7.3014,-7.3106,-7.3106,-7.2982,-7.2668,-7.2605,-7.2165,-7.1435,-7.1371,-7.1178,-7.0889,-7.0889,-7.1018,-7.1277,-7.1018,-7.0949,-7.1038,-7.1038,-7.1068,-7.1218,-7.1697,-7.1547,-7.1068,-7.1577,-7.1398,-7.0889,-7.0889,-7.0889,-7.0979,0.0,0.0,0.0,0.0,0.0,0.0,0.0,0.0,0.0,0.0,0.0,-4.559,0.0,0.0,0.0,-4.5026,-4.5061,-4.5298,-4.5863,-4.665,-4.743,-4.8044,-4.8615,-4.8868,-4.8771,-4.7864,-4.7313,-4.7216,-4.5821,-4.8343,-5.4503,-5.5766,-5.8097,-6.1174,-5.9381,-5.6792,-5.3531,-4.9645,-4.7151,-4.5791,-4.5791,-4.7022,-4.8479,-4.537,-4.4528,-4.4625,-4.1547,-4.0218,-3.9959,-3.9862,-3.9897,-3.9962,-3.9476,0.0,0.0,0.0,-3.9541,-4.2747,-4.9127,-5.6802,-6.4542,-7.0732,-7.296,-7.3826,-7.4711,-7.5259,-7.5417,-7.4823,-7.5188,-7.5641,-7.5557,-7.4866,-7.436,-7.4455,-7.4707,-7.4659,-7.3966,-7.3905,-7.3661,-7.3045,-7.326,-7.3322,-7.3014,-7.326,-7.3291,-7.3014,-7.2983,-7.2983,-7.2983,-7.2983,-7.2921,-7.2796,-7.2608,-7.2446,-7.2236,-7.2043,-7.2094,-7.2324,-7.1899,-7.1913,-7.2266,-7.1745,-7.1517,-7.1427,-7.1068,-7.1338,-7.1996,-7.1517,-7.1398,-7.1457,-7.1368,-7.0949,-7.044,-7.0769,-7.0679,-7.047,0.0,0.0,0.0,0.0,0.0,0.0,0.0,0.0,0.0,0.0,0.0,0.0,0.0,0.0,0.0,0.0,-4.4243,-4.4416,-4.482,-4.5473,-4.5992,-4.6444,-4.6927,-4.6925,-4.6374,-4.618,-4.5888,-4.5532,-4.5013,-4.8375,-5.5319,-5.5633,-5.7893,-6.1698,-6.0126,-5.731,-5.3589,-5.026,-4.7961,-4.6633,-4.6633,-4.822,-5.0293,-4.7313,-4.7022,-4.7605,-4.2812,-4.0869,-4.0383,-3.9282,-3.9509,-4.0092,-3.9217,-3.8829,0.0,0.0,0.0,-4.0934,-5.1264,-5.732,-6.2275,-6.8719,-7.112,-7.2316,-7.3928,-7.4896,-7.5093,-7.4033,-7.4371,-7.5024,-7.5487,-7.4672,-7.4012,-7.4297,-7.4644,-7.4656,-7.3868,-7.3872,-7.3692,-7.3169,-7.3045,-7.2983,-7.2983,-7.2983,-7.2983,-7.2983,-7.2983,-7.2983,-7.2983,-7.2983,-7.3076,-7.3229,-7.3042,-7.3033,-7.332,-7.2997,-7.3109,-7.3658,-7.3109,-7.2997,-7.3351,-7.28,-7.2387,-7.2139,-7.1563,-7.1792,-7.2595,-7.1757,-7.1607,-7.1846,-7.1338,-7.0769,-7.026,-7.0739,-7.062,-7.029,0.0,0.0,0.0,0.0,0.0,0.0,0.0,0.0,0.0,0.0,0.0,-4.4752,-4.4718,-4.4059,-4.3539,-4.3452,-4.3484,-4.369,-4.4194,-4.4788,-4.518,-4.518,-4.5048,0.0,-4.4885,-4.4237,-4.4204,-4.4852,-4.4622,-4.8128,-5.5031,-5.6285,-5.9537,-6.432,-6.246,-5.9295,-5.5118,-5.2236,-5.0196,-4.8832,-4.8832,-4.8929,-4.935,-5.1841,-5.2462,-5.1361,-4.7022,-4.4625,-4.3168,-4.1096,-4.0024,-3.9667,-4.0189,-3.993,-3.9052,0.0,0.0,0.0,-4.5403,-4.958,-5.3887,-6.234,-6.6485,-6.9561,-7.3674,-7.4402,-7.4405,-7.4984,-7.4211,-7.362,-7.4288,-7.4093,-7.3696,-7.3033,-7.4012,-7.4526,-7.354,-7.368,-7.3814,-7.3478,-7.3169,-7.2983,-7.2983,-7.2983,-7.2983,-7.2983,-7.2983,-7.2983,-7.2983,-7.2983,-7.326,-7.3907,-7.3937,-7.4055,-7.4409,-7.4085,-7.4115,-7.447,-7.4115,-7.4085,-7.4409,-7.4054,-7.3525,-7.2914,-7.253,-7.2204,-7.1996,-7.2565,-7.2445,-7.1876,-7.1846,-7.1427,-7.0859,-7.0889,-7.0889,-7.0859,0.0,0.0,0.0,0.0,0.0,0.0,0.0,0.0,0.0,0.0,0.0,0.0,0.0,-4.3764,-4.3509,-4.3235,-4.299,-4.2966,-4.3164,-4.3392,-4.3718,-4.4172,-4.414,-4.4107,-4.4107,-4.3848,-4.3622,-4.3395,-4.3299,-4.6205,-5.1888,-5.3592,-5.6606,-6.0476,-6.0277,-5.8927,-5.6478,-5.1782,-4.9483,-4.9026,-4.9548,-5.1361,-5.3693,-5.243,-5.379,-5.5636,-5.0422,-4.7346,-4.5629,-4.4852,-4.3233,-4.1387,-4.0707,-4.0027,-3.9181,-3.7469,-3.7922,-4.0059,-4.4885,-4.8285,-5.2009,-5.8324,-6.2372,-6.5546,-6.8493,-7.1173,-7.2972,-7.2616,-7.2848,-7.3299,-7.3834,-7.3537,-7.3412,-7.4044,-7.4549,-7.4684,-7.4134,-7.4142,-7.4057,-7.357,-7.3386,-7.3231,-7.3045,-7.2983,-7.2983,-7.2983,-7.2983,-7.2983,-7.2983,-7.2983,-7.3291,-7.3968,-7.3568,-7.375,-7.45,-7.5028,-7.5455,-7.5754,-7.526,-7.5112,-7.5437,-7.4878,-7.4412,-7.394,-7.4237,-7.385,-7.2835,-7.2457,-7.2355,-7.2445,-7.1577,-7.0859,-7.035,-7.0769,-7.0889,-7.0949,0.0,0.0,0.0,-4.5128,0.0,-4.4821,-4.4644,-4.4604,-4.4527,-4.4142,0.0,0.0,0.0,0.0,-4.4106,-4.3537,-4.3163,-4.2845,-4.2619,-4.2586,-4.2813,-4.3298,-4.3589,-4.3557,-4.3331,-4.3589,-4.3233,-4.2261,-4.2716,-4.5239,-4.966,-5.1591,-5.4668,-5.8546,-5.7751,-5.7935,-5.8496,-5.4019,-5.1791,-5.1474,-5.2262,-5.4017,-5.6122,-5.5895,-5.7158,-5.8443,-5.4697,-5.1782,-4.9645,-4.89,-4.7087,-4.4722,-4.2618,-4.0318,-3.8181,-3.695,-3.7954,-3.993,-4.2326,-4.5403,-4.9289,-5.4762,-5.7741,-6.0623,-6.5675,-6.8655,-7.0513,-7.1014,-7.2165,-7.3247,-7.3764,-7.3441,-7.348,-7.4505,-7.4798,-7.4743,-7.4316,-7.4354,-7.4239,-7.3845,-7.3601,-7.3416,-7.3324,-7.3107,-7.3107,-7.3262,-7.3107,-7.3045,-7.3169,-7.3045,-7.3291,-7.3968,-7.3783,-7.4088,-7.4966,-7.5658,-7.6207,-7.6656,-7.6226,-7.6143,-7.6338,-7.5661,-7.5194,-7.5031,-7.5361,-7.481,-7.3666,-7.2739,-7.2637,-7.2774,-7.1427,-7.0649,-7.035,-7.0739,-7.0889,-7.1009,-4.5111,-4.5252,-4.55,-4.564,-4.4754,-4.3818,-4.3126,-4.3369,-4.3396,-4.2667,0.0,0.0,0.0,0.0,0.0,-4.4389,-4.3976,-4.3428,-4.2683,-4.2586,-4.2586,-4.2586,-4.3298,-4.3298,-4.2619,-4.3298,-4.2974,-4.1579,-4.2974,-4.5267,-4.8464,-5.0422,-5.4118,-5.892,-5.5303,-5.6369,-6.0764,-5.8779,-5.7227,-5.6176,-5.7139,-5.677,-5.6275,-6.252,-6.2844,-5.9931,-5.9943,-5.8065,-5.5345,-5.3272,-5.1523,-4.9548,-4.5921,-4.0901,-3.6238,-3.5493,-3.6303,-3.7376,0.0,0.0,0.0,-5.1388,-5.2527,-5.4794,-6.5319,-6.6711,-6.6841,-7.05,-7.2133,-7.3141,-7.4042,-7.3948,-7.3834,-7.4282,-7.469,-7.4676,-7.4044,-7.419,-7.4419,-7.4419,-7.3906,-7.3601,-7.3844,-7.3385,-7.3262,-7.3844,-7.3324,-7.3169,-7.3509,-7.32,-7.3291,-7.3937,-7.4645,-7.5292,-7.5938,-7.6,-7.6338,-7.6985,-7.6985,-7.6985,-7.6954,-7.6277,-7.6,-7.6,-7.5644,-7.512,-7.4396,-7.3666,-7.3196,-7.2744,-7.1427,-7.0919,-7.0919,-7.0919,-7.0949,-7.1098,-4.4659,-4.6041,-4.6727,-4.5162,-4.5925,-4.6174,-4.4236,-4.4398,-4.4623,0.0,0.0,0.0,-4.5218,-4.6255,-4.6848,-4.6618,-4.5732,-4.4723,-4.3492,-4.2456,-4.2099,-4.2586,-4.2326,-4.2326,-4.2586,-4.2813,-4.2229,-4.0772,-4.2229,-4.3363,-4.4332,-4.6802,-5.0069,-5.3873,-5.3693,-5.4613,-5.6025,-5.2797,-5.3246,-5.6143,-5.5738,-5.7581,-6.0696,-6.1966,-6.4094,-6.619,-6.4802,-6.3182,-6.1627,-6.153,-5.745,-5.1459,-4.5791,-4.116,-3.7792,-3.7566,-3.8505,-3.9509,-3.9023,0.0,0.0,0.0,0.0,0.0,-5.4729,-5.7579,-6.0591,-6.574,-6.7471,-6.9362,-7.3695,-7.406,-7.4139,-7.5496,-7.5475,-7.522,-7.5029,-7.4862,-7.4659,-7.4419,-7.4239,-7.4057,-7.3905,-7.3722,-7.3722,-7.3905,-7.3601,-7.3386,-7.3509,-7.3632,-7.3568,-7.326,-7.4399,-7.4861,-7.4553,-7.5538,-7.6092,-7.6277,-7.6277,-7.6277,-7.6277,-7.56,-7.5538,-7.5969,-7.5348,-7.515,-7.5089,-7.3864,-7.3058,-7.2415,-7.1313,-7.1188,-7.1673,-7.1964,-7.2631,-7.3539,-4.4603,-4.6138,-4.7022,-4.5737,-4.6971,-4.749,-4.545,-4.5872,-4.6288,0.0,0.0,0.0,-4.8,-4.8561,-4.8785,-4.8524,-4.6908,-4.5438,-4.4367,-4.2843,-4.2197,-4.2586,-4.252,-4.265,-4.3039,-4.3362,-4.278,-4.1387,-4.2198,-4.2586,-4.2651,-4.4749,-4.7162,-4.9812,-5.0384,-5.1158,-5.1702,-4.8327,-5.0069,-5.5175,-5.7085,-5.9274,-6.1752,-6.4287,-6.6117,-6.7433,-6.8285,-6.7451,-6.6127,-6.6986,-6.1854,-5.4082,-4.822,-4.3945,-4.0836,-3.9638,-4.048,-4.1614,-4.064,-4.1678,-4.3331,-4.4528,0.0,0.0,-5.2527,-5.4762,-5.7417,-6.3685,-6.6064,-6.8169,-7.212,-7.3079,-7.3697,-7.5338,-7.52,-7.5023,-7.5337,-7.4853,-7.4522,-7.4627,-7.4479,-7.4299,-7.4118,-7.3966,-7.3966,-7.4087,-7.3814,-7.3601,-7.3509,-7.3817,-7.3691,-7.3014,-7.3753,-7.4091,-7.3999,-7.4769,-7.5323,-7.56,-7.56,-7.56,-7.5569,-7.4892,-7.4953,-7.5569,-7.4861,-7.4672,-7.4817,-7.3807,-7.3023,-7.237,-7.1718,-7.1678,-7.2002,-7.2601,-7.3334,-7.4094,0.0,-4.5891,-4.6853,-4.6993,-4.7998,-4.8349,-4.7046,-4.7857,-4.833,0.0,-4.8364,-4.9692,-5.1877,-5.1699,-5.1196,-5.0505,-4.8091,-4.6189,-4.5277,-4.3588,-4.2586,-4.2586,-4.3201,-4.3589,-4.3589,-4.4366,-4.401,-4.236,-4.2619,-4.2586,-4.2392,-4.3719,-4.5041,-4.6407,-4.6233,-4.6799,-4.7778,-4.5597,-4.8041,-5.3798,-5.9111,-6.0991,-6.1389,-6.7848,-6.8615,-6.6793,-7.0792,-7.106,-6.9515,-6.9957,-6.4883,-5.7482,-5.2139,-4.822,-4.5014,-4.1873,-4.2618,-4.4107,-4.2617,-4.3201,-4.4852,-4.7087,-4.5402,0.0,-5.3887,-5.4697,-5.5539,-6.2145,-6.5189,-6.7262,-6.9205,-7.0675,-7.2034,-7.3318,-7.3628,-7.4109,-7.5263,-7.4563,-7.4139,-7.4743,-7.4599,-7.4419,-7.4359,-7.4147,-7.4118,-7.4485,-7.4212,-7.3877,-7.3509,-7.3817,-7.3754,-7.3014,-7.3045,-7.3353,-7.3876,-7.3968,-7.4307,-7.4892,-7.4892,-7.4892,-7.4861,-7.4184,-7.4245,-7.4861,-7.4184,-7.3907,-7.3968,-7.3591,-7.308,-7.253,-7.2465,-7.236,-7.2373,-7.3304,-7.3677,-7.3894,-4.5219,-4.6206,-4.7098,-4.8161,-4.948,-5.0424,-5.046,-5.0692,-5.119,-5.2009,-5.266,-5.4072,-5.6797,-5.5357,-5.4159,-5.4033,-5.1255,-4.8537,-4.6059,-4.3847,-4.2586,-4.2586,-4.2748,-4.2813,-4.2813,-4.414,-4.3524,-4.0901,-4.265,-4.2618,-4.0934,-4.2296,-4.3137,-4.3428,-4.3396,-4.3685,-4.4381,-4.6617,-4.9744,-5.3292,-5.4991,-5.9483,-6.5404,-6.7932,-7.0556,-7.3011,-7.3578,-7.3715,-7.3099,-6.9483,-6.6142,-6.2307,-5.4988,-5.1782,-4.9839,-4.5305,-4.6277,-4.8414,-4.6407,-4.6892,-4.7572,-4.5856,-4.6212,0.0,-4.508,-4.7054,-5.0131,-5.324,-5.5604,-5.8583,-6.3441,-6.532,-6.6287,-6.6792,-6.8872,-7.1644,-7.5208,-7.4881,-7.4283,-7.4445,-7.4659,-7.4599,-7.4026,-7.4388,-7.4879,-7.5296,-7.5206,-7.4712,-7.3601,-7.4067,-7.3942,-7.3014,-7.3506,-7.3599,-7.3199,-7.3722,-7.4061,-7.4184,-7.4184,-7.4184,-7.4153,-7.3476,-7.3537,-7.4153,-7.3476,-7.3476,-7.3937,-7.3352,-7.3161,-7.3269,-7.2979,-7.3516,-7.4456,-7.4907,-7.5404,-7.5958,-4.5568,-4.6887,-4.8314,-4.9545,-5.1059,-5.2302,-5.3026,-5.3228,-5.369,-5.4895,-5.6123,-5.7021,-5.7383,-5.6415,-5.5384,-5.47,-5.1499,-4.8742,-4.6911,-4.4529,-4.2975,-4.2619,-4.2586,-4.3104,-4.414,-4.4593,-4.4075,-4.265,-4.3362,-4.278,-4.1063,-4.2101,-4.3105,-4.4009,-4.304,-4.3396,-4.4763,-4.5218,-4.7668,-5.1764,-5.7132,-6.2562,-6.7832,-7.0631,-7.332,-7.5597,-7.5534,-7.5777,-7.5328,-7.046,-6.7751,-6.532,-5.9025,-5.6543,-5.5118,-5.0843,-5.0843,-5.1685,-4.9159,-4.903,-4.9321,-4.8252,-4.7702,0.0,0.0,-4.7184,-4.8544,-5.2495,-5.3596,-5.5053,-5.8972,-6.0502,-6.1607,-6.3135,-6.5769,-6.842,-7.0802,-7.2325,-7.3353,-7.3584,-7.4053,-7.4155,-7.3497,-7.3826,-7.4221,-7.4419,-7.5707,-7.5773,-7.403,-7.506,-7.4998,-7.3293,-7.388,-7.3848,-7.2983,-7.3322,-7.3476,-7.3476,-7.3476,-7.3476,-7.3476,-7.3137,-7.3168,-7.3476,-7.3137,-7.3168,-7.3476,-7.3476,-7.3813,-7.4237,-7.3883,-7.4446,-7.5535,-7.5866,-7.6396,-7.6982,-4.5838,-4.7259,-4.9024,-5.0387,-5.1934,-5.3376,-5.4556,-5.5029,-5.5696,-5.6951,-5.883,-5.9466,-5.8016,-5.7752,-5.7218,-5.6126,-5.2495,-4.973,-4.8551,-4.5992,-4.4107,-4.3072,-4.2877,-4.3622,-4.537,-4.4852,-4.4302,-4.3783,-4.346,-4.2585,-4.1223,-4.1905,-4.304,-4.449,-4.3331,-4.3975,-4.5786,-4.4261,-4.6599,-5.2125,-6.0741,-6.533,-6.7567,-7.2287,-7.468,-7.5645,-7.6896,-7.7382,-7.6714,-7.2003,-6.958,-6.759,-6.2525,-6.0935,-6.017,-5.6187,-5.5507,-5.5409,-5.2527,-5.1944,-5.2041,-5.1523,-5.02,-4.9224,0.0,0.0,0.0,-5.256,-5.2786,-5.2851,-5.4729,-5.5636,-5.6899,-5.9166,-6.2123,-6.4176,-6.4301,-6.7756,-7.0607,-7.1396,-7.2659,-7.321,-7.2404,-7.2391,-7.2661,-7.3352,-7.5014,-7.5422,-7.4105,-7.5743,-7.5683,-7.3477,-7.4129,-7.4035,-7.3107,-7.3045,-7.2983,-7.2983,-7.2983,-7.2983,-7.2983,-7.2983,-7.2983,-7.2983,-7.2983,-7.3045,-7.3229,-7.3783,-7.4461,-7.5199,-7.4878,-7.5444,-7.6435,-7.6671,-7.7233,-7.7753,-4.5838,-4.6413,-4.7642,-4.9419,-5.1061,-5.2704,-5.4306,-5.5277,-5.6478,-5.8409,-6.0349,-6.1969,-6.3024,-6.2562,-6.2278,-6.2507,-5.8641,-5.4992,-5.2123,-4.9138,-4.6633,-4.4625,-4.3913,-4.3719,-4.3945,-4.3881,-4.2618,-4.0121,-4.1288,-4.1126,-3.9765,-4.0415,-4.0869,-4.113,-4.2813,-4.3911,-4.4569,-4.6956,-5.1909,-5.8462,-6.1597,-6.2156,-6.1837,-6.8583,-7.1612,-7.2851,-7.7179,-7.8158,-7.6882,-7.3539,-7.1767,-6.9879,-6.3449,-6.3221,-6.4315,-5.881,-5.9457,-6.1303,-5.8453,-5.8615,-5.8389,-5.3337,-5.4244,-5.4308,-4.6471,0.0,-4.903,-4.6504,0.0,-4.8868,-4.971,0.0,0.0,-5.1394,-5.5442,-5.8109,-5.7085,-6.0622,-6.4193,-6.6582,-6.9927,-7.1515,-7.0255,-6.9296,-7.0086,-7.3163,-7.1635,-7.1156,-7.2504,-7.4485,-7.4773,-7.3034,-7.3942,-7.4191,-7.3447,-7.3169,-7.2983,-7.2983,-7.2983,-7.2983,-7.2983,-7.2983,-7.2983,-7.2983,-7.2983,-7.3322,-7.3876,-7.3968,-7.4738,-7.5907,-7.5843,-7.6673,-7.7775,-7.7842,-7.8303,-7.8887,-4.5771,-4.665,-4.7612,-4.8245,-4.9315,-5.0726,-5.2487,-5.6012,-5.874,-5.947,-6.157,-6.3122,-6.332,-6.2563,-6.218,-6.2596,-5.9909,-5.6605,-5.2959,-5.0932,-4.8512,-4.55,-4.4723,-4.4528,-4.4917,-4.414,-4.2715,-4.0737,-4.0899,-4.0478,-3.9505,-4.0189,-4.1779,-4.4073,-4.5077,-4.7397,-5.055,-5.098,-5.2925,-5.6135,-5.9547,-5.9816,-5.9329,-6.9795,-7.4537,-7.5922,-7.7935,-7.8439,-7.7509,-7.411,-7.1981,-7.0151,-6.7277,-6.585,-6.4835,-6.2553,-6.2081,-6.1724,-5.9252,-5.9684,-5.9814,-5.5701,-5.5507,-5.4762,-4.8771,-4.7508,-4.7443,-4.6795,0.0,0.0,0.0,0.0,0.0,0.0,-5.1888,-5.3761,-5.2476,-5.6422,-6.0439,-6.3054,-6.4398,-6.5639,-6.6972,-6.8092,-6.9741,-7.2033,-7.1408,-7.1585,-7.3115,-7.5541,-7.5955,-7.3803,-7.4995,-7.5059,-7.3753,-7.3416,-7.3293,-7.3293,-7.3107,-7.2983,-7.2983,-7.2983,-7.2983,-7.3014,-7.3383,-7.3722,-7.4061,-7.483,-7.5507,-7.6092,-7.6892,-7.7539,-7.8031,-7.8031,-7.8493,-7.8986,-4.5399,-4.6413,-4.7173,-4.6871,-4.7934,-4.9613,-5.1828,-5.5954,-5.9066,-5.986,-6.2052,-6.3683,-6.4145,-6.3902,-6.401,-6.4815,-6.2736,-5.9804,-5.6013,-5.3636,-5.1005,-4.7993,-4.6245,-4.5694,-4.6407,-4.4625,-4.2909,-4.132,-4.0739,-4.0448,-4.0351,-4.0448,-4.2522,-4.6168,-4.7276,-5.037,-5.47,-5.4677,-5.5545,-5.7226,-6.0357,-6.1774,-6.2998,-7.171,-7.6649,-7.8926,-7.8926,-7.8799,-7.8162,-7.4924,-7.2698,-7.1186,-7.0236,-6.8608,-6.6881,-6.6224,-6.5417,-6.4153,-6.1433,-6.1724,-6.1757,-5.732,-5.5798,-5.4341,-5.0163,-4.835,-4.7702,-4.8188,-4.7961,0.0,0.0,0.0,-4.6633,-4.7831,0.0,-5.0536,-4.9047,-5.2069,-5.5514,-5.8272,-5.9301,-6.1022,-6.4214,-6.5554,-6.7409,-7.0243,-6.9706,-7.0441,-7.3191,-7.5403,-7.5851,-7.4319,-7.5359,-7.5302,-7.4057,-7.3753,-7.3601,-7.3601,-7.3293,-7.3107,-7.3107,-7.3045,-7.3076,-7.3291,-7.3783,-7.4214,-7.4615,-7.56,-7.6123,-7.6431,-7.7785,-7.8216,-7.8062,-7.8247,-7.877,-7.9232,-4.4649,-4.5229,-4.5684,-4.5324,-4.7319,-5.0109,-5.344,-5.4528,-5.6208,-5.9529,-6.1318,-6.357,-6.7069,-6.8658,-7.0298,-7.2199,-6.9501,-6.6424,-6.3251,-5.817,-5.4632,-5.3103,-4.9062,-4.7184,-4.7929,-4.5176,-4.265,-4.0513,-4.0513,-4.1193,-4.2457,-4.1128,-4.2067,-4.5014,-4.8447,-5.1385,-5.3898,-5.7547,-6.1806,-6.6196,-6.6511,-7.0165,-7.5178,-7.3156,-7.5603,-8.0059,-8.0059,-7.9611,-7.8591,-7.6123,-7.4971,-7.4001,-7.1036,-7.1333,-7.225,-6.9483,-7.0357,-7.1245,-6.7003,-6.6906,-6.5934,-5.7547,-5.5442,-5.3952,-4.8285,-4.958,-5.1426,-4.9418,-5.2236,-5.4244,-5.1556,-5.0422,-4.9515,-4.822,-4.8605,0.0,0.0,-4.6621,-4.7956,-5.116,-5.555,-5.9602,-6.275,-6.0389,-6.1337,-6.7794,-6.4799,-6.5365,-7.1547,-7.259,-7.3254,-7.3917,-7.4256,-7.4482,-7.4359,-7.4026,-7.3905,-7.3905,-7.3601,-7.3509,-7.3509,-7.3169,-7.3322,-7.3968,-7.3968,-7.4738,-7.5938,-7.6,-7.64,-7.7139,-7.8524,-7.8647,-7.8124,-7.8801,-7.9478,-8.0063,-4.4716,-4.5076,-4.5134,-4.3954,-4.4884,-4.7072,-5.0924,-5.4183,-5.7836,-6.2321,-6.4167,-6.6817,-7.1455,-7.1837,-7.2348,-7.3961,-7.2572,-6.9829,-6.5716,-6.2431,-5.9697,-5.7644,-5.3434,-5.1038,-5.0778,-4.8447,-4.5434,-4.1874,-4.2391,-4.2618,-4.2586,-4.2101,-4.3427,-4.6342,-4.9904,-5.3688,-5.76,-6.1594,-6.393,-6.5034,-6.6329,-7.0513,-7.5877,-7.5047,-7.6402,-7.8683,-7.8683,-7.8841,-7.8937,-7.8116,-7.6529,-7.4844,-7.4929,-7.3511,-7.179,-7.1659,-7.1907,-7.1789,-7.0093,-7.0986,-7.0598,-6.2987,-6.0364,-5.7903,-5.1264,-5.1394,-5.2203,-4.9511,-5.243,-5.4535,-5.1718,-5.0584,-4.9645,-4.8252,-4.8188,-4.7276,0.0,-4.3297,-4.4054,-4.7262,-5.2311,-5.5765,-5.6356,-5.8828,-6.1828,-6.5481,-6.4954,-6.6617,-7.1547,-7.3317,-7.4107,-7.3917,-7.4904,-7.5444,-7.5444,-7.511,-7.4989,-7.4989,-7.4622,-7.4469,-7.4469,-7.4407,-7.4687,-7.534,-7.5553,-7.589,-7.6353,-7.6557,-7.7077,-7.7785,-7.8739,-7.8955,-7.8832,-7.9509,-7.9632,-7.9386,-4.5495,-4.5183,-4.474,-4.3925,-4.4775,-4.6791,-5.0489,-5.4878,-5.9365,-6.3813,-6.632,-6.9434,-7.4122,-7.4346,-7.4818,-7.6267,-7.539,-7.2718,-6.7965,-6.6012,-6.3789,-6.0947,-5.7968,-5.5992,-5.528,-5.2916,-4.971,-4.5662,-4.5629,-4.5207,-4.4495,-4.3978,-4.5014,-4.741,-5.0714,-5.4785,-5.9428,-6.3804,-6.6097,-6.7005,-6.8635,-7.185,-7.5624,-7.5908,-7.6825,-7.8026,-7.8026,-7.8468,-7.9069,-7.8816,-7.7678,-7.6569,-7.7385,-7.5855,-7.3779,-7.4147,-7.4269,-7.401,-7.2746,-7.363,-7.348,-6.71,-6.4606,-6.1919,-5.5021,-5.5345,-5.6219,-5.3039,-5.5247,-5.7352,-5.6316,-5.3855,-5.162,0.0,0.0,0.0,0.0,-4.1532,-4.2362,-4.4929,-4.9043,-5.2331,-5.4168,-5.6227,-5.941,-6.4025,-6.3241,-6.4994,-7.0521,-7.2489,-7.3443,-7.3507,-7.5118,-7.6003,-7.6003,-7.6011,-7.6016,-7.6016,-7.571,-7.5525,-7.5525,-7.5402,-7.5714,-7.6369,-7.6426,-7.6639,-7.6823,-7.6962,-7.7262,-7.7754,-7.8432,-7.8862,-7.917,-7.9847,-7.9847,-7.9417,-4.6786,-4.5554,-4.4673,-4.5232,-4.6889,-4.916,-5.2189,-5.6312,-6.0462,-6.4144,-6.7744,-7.1421,-7.5198,-7.6525,-7.7696,-7.9144,-7.8088,-7.5245,-7.0392,-6.9065,-6.6971,-6.3603,-6.2599,-6.1821,-6.1174,-5.8227,-5.4988,-5.1459,-4.9872,-4.8771,-4.8026,-4.6601,-4.6666,-4.8123,-5.0973,-5.4695,-5.9188,-6.4186,-6.8436,-7.2021,-7.3412,-7.4328,-7.496,-7.5719,-7.6793,-7.7931,-7.7994,-7.8468,-7.9005,-7.831,-7.8531,-7.9005,-7.8279,-7.8242,-7.8295,-7.6959,-7.744,-7.7905,-7.5137,-7.5168,-7.4808,-6.9853,-6.8039,-6.5805,-5.9534,-6.1316,-6.3246,-5.9608,-6.0688,-6.2761,-6.4397,-5.9716,-5.528,0.0,0.0,0.0,-4.1205,-4.1342,-4.2521,-4.4219,-4.6028,-4.9521,-5.5505,-5.2768,-5.4252,-6.3052,-5.9757,-6.0788,-6.8659,-7.0038,-7.1231,-7.2717,-7.4866,-7.6003,-7.6035,-7.6698,-7.7046,-7.7046,-7.674,-7.6555,-7.6617,-7.6338,-7.6526,-7.7213,-7.6831,-7.7011,-7.7569,-7.7208,-7.7077,-7.7139,-7.7816,-7.8555,-7.9324,-7.9909,-8.0124,-8.0248,-4.6921,-4.715,-4.7412,-4.7456,-4.7299,-4.8597,-5.2611,-5.6027,-6.0398,-6.6751,-7.0759,-7.4867,-7.9604,-7.9661,-7.9649,-8.0433,-7.9617,-7.793,-7.5144,-7.3424,-7.2254,-7.1601,-6.8363,-6.6485,-6.629,-6.1951,-5.8194,-5.515,-5.2106,-5.0001,-4.8702,-4.7864,-4.7637,-4.8155,-5.1523,-5.5467,-5.989,-6.4409,-6.9009,-7.3443,-7.4297,-7.4739,-7.496,-7.5719,-7.6193,-7.6635,-7.7646,-7.8468,-7.91,-7.8879,-7.8942,-7.91,-7.8879,-7.891,-7.8844,-7.8413,-7.8971,-7.9501,-7.8687,-7.9056,-7.8856,-7.5455,-7.2832,-7.0015,-6.5708,-6.6809,-6.7586,-6.3473,-6.561,-6.6744,-6.1951,-5.9252,-5.6307,-5.1912,0.0,0.0,-4.3654,-4.2752,-4.3553,-4.7009,-4.7946,-4.8487,-4.8763,-5.2545,-5.5536,-5.6898,-5.8769,-6.2362,-6.8287,-6.8022,-6.9128,-7.2242,-7.4731,-7.6224,-7.673,-7.7394,-7.7741,-7.7741,-7.7618,-7.7902,-7.8438,-7.8313,-7.8975,-8.0109,-7.9463,-7.9016,-7.8639,-7.8019,-7.7754,-7.7847,-7.8457,-7.9817,-8.1233,-8.0402,-8.0402,-8.0709,-4.7834,-4.9175,-5.0259,-4.9726,-5.0754,-5.2473,-5.4957,-5.7276,-6.092,-6.6949,-7.1488,-7.5397,-7.861,-8.0256,-8.1228,-8.1369,-8.0869,-7.9341,-7.6491,-7.6317,-7.5689,-7.4192,-7.2842,-7.1792,-7.0986,-6.7068,-6.3117,-5.9295,-5.5086,-5.1815,-4.9483,-4.8479,-4.7831,-4.7702,-5.1588,-5.5081,-5.8486,-6.5021,-6.9831,-7.3096,-7.436,-7.5087,0.0,-7.5845,-7.6351,-7.6983,-7.7741,-7.8279,-7.8626,-7.8626,-7.8847,-7.9163,-7.9448,-7.9416,-7.9444,-8.0007,-8.0443,-8.0845,-8.1081,-8.1326,-8.1122,-7.9503,-7.7657,-7.5196,-7.131,-7.1634,-7.1861,-6.8816,-6.8849,-6.8784,-6.6614,-6.2048,-5.6501,-5.0228,-4.7216,-4.5337,-4.43,-4.3944,-4.478,-4.7484,-4.828,-4.8175,-4.6945,-5.1229,-5.4173,-5.4457,-5.671,-5.9841,-6.3741,-6.6141,-6.85,-7.0955,-7.4394,-7.65,-7.7226,-7.8056,-7.85,-7.85,-7.8784,-7.9132,-7.9543,-7.989,-8.0459,-8.1186,-8.0572,-7.9838,-7.905,-7.8495,-7.801,-7.7693,-7.8678,-7.994,-8.1171,-8.0709,-8.0956,-8.1356,-4.9123,-5.1328,-5.2902,-5.1859,-5.524,-5.831,-5.8866,-6.0357,-6.2941,-6.7115,-7.2051,-7.5463,-7.6192,-8.0025,-8.2412,-8.2025,-8.1741,-8.0113,-7.6491,-7.8202,-7.7812,-7.4474,-7.6219,-7.6544,-7.4905,-7.2022,-6.8072,-6.302,-5.7903,-5.3499,-4.9807,-4.8576,-4.7605,-4.7054,-5.1297,-5.4437,-5.7229,-6.5983,-7.0568,-7.2116,-7.4107,-7.5276,-7.5845,-7.594,-7.673,-7.7773,-7.8024,-7.8121,-7.8279,-7.8279,-7.8784,-7.9479,-7.9953,-7.989,-7.9886,-8.1062,-8.1405,-8.1546,-8.2219,-8.2207,-8.1964,-8.1964,-8.1479,-8.0021,-7.6168,-7.5811,-7.5876,-7.4419,-7.1569,-7.0274,-7.3318,-6.561,-5.6566,-4.9936,-4.822,-4.7216,-4.5726,-4.614,-4.6977,-4.8026,-4.9126,0.0,-4.8393,-5.007,-5.1881,-5.3556,-5.3938,-5.5419,-5.8397,-6.403,-6.7944,-6.9777,-7.4142,-7.68,-7.75,-7.8591,-7.9163,-7.9258,-7.9827,-8.0206,-8.0396,-8.1028,-8.1376,-8.147,-8.1083,-8.0222,-7.9239,-7.894,-7.8301,-7.7539,-7.877,-7.9694,-8.0432,-8.0894,-8.151,-8.1971,-4.9809,-5.2539,-5.4418,-5.2692,-5.6549,-6.1027,-6.4432,-6.7281,-7.0129,-7.3343,-7.7682,-8.073,-8.1492,-8.26,-8.2938,-8.209,-8.2289,-8.1479,-7.94,-7.9076,-7.8687,-7.7981,-7.7812,-7.7293,-7.6427,-7.3026,-6.8816,-6.3829,-5.8162,-5.3013,-4.8382,-4.8123,-4.7605,-4.7054,-5.0746,-5.5886,-6.2157,-6.7462,-7.082,-7.2748,-7.4297,-7.496,-7.515,-7.575,-7.613,-7.6538,-7.7921,-7.9001,-7.9732,-7.9732,-8.0238,-8.0744,-8.0238,-8.008,-7.9985,-8.0013,-8.0133,-8.0438,-8.0778,-8.1077,-8.122,-8.122,-8.1122,-8.0669,-7.9341,-7.9115,-7.8823,-7.7366,-7.6135,-7.4257,-7.0824,-6.4347,-5.8162,-5.3952,-5.2657,-5.2883,-5.4859,-5.3298,-5.2683,-5.46,-5.6007,-5.5384,-5.1777,-5.2211,-5.1875,-4.9946,-5.0235,-5.3391,-5.9984,-6.0376,-6.3851,-7.136,-7.4997,-7.7038,-7.75,-7.8838,-7.9636,-7.9922,-8.0048,-8.0712,-8.1818,-8.1944,-8.2324,-8.2795,-8.2465,-8.1412,-7.9957,-8.0186,-7.997,-7.9601,-7.9847,-8.0679,-8.1694,-8.1233,-8.151,-8.1971,-5.3416,-5.5134,-5.674,-5.7431,-6.1662,-6.6256,-6.9803,-7.4122,-7.6486,-7.4918,-7.7185,-7.9074,-7.9438,-8.1711,-8.2905,-8.2289,-8.2739,-8.2636,-8.1656,-8.1297,-8.0848,-8.0282,-7.9509,-7.877,-7.7884,-7.5099,-7.0824,-6.5092,-5.9716,-5.4107,-4.8512,-4.7767,-4.7022,-4.6536,-5.1118,-5.6445,-6.2333,-6.6921,-6.9951,-7.1958,-7.4044,-7.534,-7.6063,-7.6624,-7.7416,-7.8461,-7.9085,-8.0167,-8.103,-8.0142,-7.9953,-8.0111,-8.0111,-7.9985,-7.9984,-8.049,-8.093,-8.1305,-8.1967,-8.231,-8.2368,-8.2163,-8.1576,-8.0928,-8.0604,-8.0248,-7.9762,-7.9082,-7.8078,-7.5682,-7.0274,-6.493,-6.0688,-5.8583,-5.6381,-5.583,-5.8324,-5.7191,-5.6404,-5.7482,-5.8184,-5.7181,-5.3693,-5.3582,-5.2282,-4.8663,-4.9296,-5.2236,-5.7741,-5.9117,-6.3322,-7.0918,-7.4317,-7.6566,-7.7708,-7.931,-8.011,-8.0111,-8.0838,-8.1534,-8.2197,-8.2576,-8.2892,-8.3142,-8.2632,-8.1645,-8.0313,-7.9818,-7.9785,-8.0094,-8.0094,-8.0709,-8.151,-8.1202,-8.1402,-8.1787,-5.7673,-5.8777,-6.0386,-6.3006,-6.7577,-7.1701,-7.4131,-7.9187,-8.107,-7.6583,-7.7077,-7.7821,-7.7821,-8.1017,-8.3002,-8.2626,-8.3153,-8.3465,-8.3336,-8.3015,-8.2537,-8.1786,-8.1011,-8.0178,-7.9147,-7.7172,-7.3091,-6.6776,-6.1627,-5.5822,-4.9645,-4.7767,-4.6989,-4.741,-5.2377,-5.7343,-6.2268,-6.6472,-6.9568,-7.1869,-7.4224,-7.5902,-7.6915,-7.7443,-7.8742,-8.0393,-8.032,-8.1115,-8.1979,-8.0546,-7.9854,-7.97,-8.0175,-8.0175,-8.0141,-8.1284,-8.1697,-8.2075,-8.2901,-8.309,-8.299,-8.281,-8.1867,-8.0966,-8.0966,-8.0475,-7.9983,-7.9762,-7.8596,-7.5973,-7.0695,-6.7359,-6.4898,-6.3408,-6.0818,-5.9749,-6.1886,-6.1161,-6.0352,-6.019,-5.977,-5.8292,-5.515,-5.4146,-5.2333,-4.8933,-4.9382,-5.1453,-5.5215,-5.8346,-6.307,-6.9723,-7.3112,-7.5635,-7.7184,-7.9497,-8.0618,-8.0554,-8.166,-8.226,-8.2418,-8.2987,-8.3145,-8.2987,-8.2418,-8.1589,-8.0632,-7.9476,-7.9537,-8.0309,-8.0309,-8.0617,-8.1148,-8.1217,-8.1392,-8.1597,-6.1065,-6.3951,-6.6382,-6.7655,-7.2223,-7.5936,-7.6457,-8.0034,-8.2536,-8.198,-8.2343,-8.2644,-8.2644,-8.3417,-8.3763,-8.3416,-8.3449,-8.3662,-8.3965,-8.2786,-8.221,-8.2503,-8.176,-8.0926,-7.9951,-7.8402,-7.4775,-6.8978,-6.3344,-5.7611,-5.1815,-4.8447,-4.8576,-5.175,-5.5076,-5.9767,-6.5413,-6.7915,-7.1082,-7.4562,-7.5746,-7.6327,-7.6581,-7.7548,-7.8684,-7.9788,-8.0671,-8.1499,-8.2106,-8.1584,-8.1373,-8.1348,-8.1124,-8.106,-8.1092,-8.1219,-8.1031,-8.0837,-8.1213,-8.1073,-8.0896,-8.1132,-8.1063,-8.0966,-8.0966,-8.0475,-7.9795,-7.9115,-7.7884,-7.5747,-7.1925,-7.2476,-7.2217,-6.8234,-6.7327,-6.7845,-7.0015,-6.8039,-6.6161,-6.5481,-6.3667,-6.085,-5.6705,-5.3369,-5.1329,-5.0908,-4.9697,-5.0822,-5.5142,-5.6796,-6.0929,-6.8201,-7.1893,-7.4153,-7.501,-7.9039,-8.1379,-8.2008,-8.2134,-8.2513,-8.3145,-8.3208,-8.2892,-8.2292,-8.2229,-8.1742,-8.1018,-8.0621,-8.065,-8.0986,-8.0986,-8.1017,-8.1148,-8.1461,-8.1597,-8.1759,-6.7395,-6.8292,-6.9847,-7.2987,-7.5138,-7.7346,-8.0129,-8.2154,-8.3339,-8.3339,-8.3332,-8.3332,-8.3332,-8.3716,-8.3952,-8.3804,-8.4234,-8.4738,-8.5314,-8.4247,-8.3552,-8.3492,-8.2628,-8.1674,-8.0604,-7.9179,-7.607,-7.1213,-6.5513,-6.0008,-5.4729,-5.2009,-5.2657,-5.6145,-5.9141,-6.2887,-6.7199,-7.0653,-7.3195,-7.4907,-7.6469,-7.7055,-7.7182,-7.8197,-7.9402,-8.0608,-8.1389,-8.1923,-8.2055,-8.1704,-8.1493,-8.1217,-8.0427,-8.0269,-8.027,-8.0491,-8.0713,-8.1157,-8.2109,-8.2585,-8.2708,-8.2426,-8.1997,-8.1576,-8.1122,-8.0475,-7.9892,-7.96,-7.8758,-7.7625,-7.6168,-7.4484,-7.335,-7.335,-7.1213,-7.0403,-7.2962,-7.1245,-6.9464,-6.8784,-6.5643,-6.2372,-5.936,-5.5474,-5.3272,-5.3693,-4.9576,-4.9087,-5.3848,-5.5845,-5.9531,-6.5513,-7.1213,-7.4596,-7.5362,-7.955,-8.1856,-8.2197,-8.2608,-8.2956,-8.3208,-8.2798,-8.2229,-8.1628,-8.2008,-8.1936,-8.1408,-8.1076,-8.1144,-8.1392,-8.1392,-8.1392,-8.1461,-8.1802,-8.2104,-8.2333,-7.2732,-7.2868,-7.4086,-7.8145,-7.8791,-7.992,-8.3235,-8.39,-8.4128,-8.4509,-8.4133,-8.3743,-8.3632,-8.3849,-8.4175,-8.4606,-8.4937,-8.55,-8.6428,-8.5623,-8.4998,-8.4931,-8.3715,-8.2639,-8.1793,-8.0113,-7.7528,-7.4063,-6.859,-6.3635,-5.9263,-5.6705,-5.7191,-6.0287,-6.3088,-6.6304,-6.9837,-7.2916,-7.4775,-7.5835,-7.7221,-7.7836,-7.8063,-7.9007,-8.012,-8.13,-8.1791,-8.2195,-8.2325,-8.1855,-8.1608,-8.1204,-8.0292,-8.0041,-8.0106,-8.0586,-8.1094,-8.1729,-8.2747,-8.3289,-8.3479,-8.3266,-8.2644,-8.1964,-8.1446,-8.0961,-8.0475,-8.0054,-7.9568,-7.9212,-7.9212,-7.6751,-7.5229,-7.6848,-7.4548,-7.3124,-7.471,-7.3447,-7.1796,-7.0274,-6.629,-6.2728,-6.0397,-5.7029,-5.5409,-5.6242,-5.2333,-5.162,-5.5604,-5.6834,-5.9943,-6.5384,-7.1245,-7.4863,-7.6097,-8.0094,-8.2143,-8.2197,-8.2892,-8.3019,-8.2608,-8.2134,-8.1628,-8.1249,-8.1913,-8.2001,-8.1673,-8.1628,-8.1761,-8.2044,-8.2044,-8.2237,-8.2392,-8.2833,-8.2978,-8.3117,-7.6115,-7.801,-7.9938,-8.2915,-8.4031,-8.4702,-8.5174,-8.4865,-8.504,-8.6196,-8.5482,-8.4768,-8.4421,-8.4148,-8.4573,-8.603,-8.55,-8.5732,-8.7157,-8.656,-8.6376,-8.6744,-8.5062,-8.3977,-8.3677,-8.1236,-7.9244,-7.7754,-7.2767,-6.8849,-6.5902,-6.2372,-6.1854,-6.4041,-6.6577,-7.0083,-7.4019,-7.4139,-7.561,-7.7883,-7.8271,-7.8661,-7.9067,-7.9803,-8.0691,-8.1608,-8.1608,-8.2304,-8.3065,-8.2353,-8.2094,-8.1973,-8.1268,-8.1083,-8.1243,-8.1884,-8.2139,-8.2234,-8.264,-8.2187,-8.1862,-8.2972,-8.2644,-8.2126,-8.2094,-8.2094,-8.1673,-8.0248,-7.9957,-8.0015,-8.0015,-7.9924,-7.9406,-7.8014,-7.7754,-7.7236,-7.5909,-7.5034,-7.3253,-6.9723,-6.5513,-6.1789,-5.8896,-5.732,-5.7061,-5.8443,-5.9166,-6.017,-6.1627,-6.0429,-6.2599,-6.9011,-7.2055,-7.4605,-7.6742,-8.0318,-8.2143,-8.2197,-8.2892,-8.2513,-8.1218,-8.1218,-8.1218,-8.1249,-8.1913,-8.2001,-8.1736,-8.2395,-8.2884,-8.3201,-8.3201,-8.3576,-8.4238,-8.4613,-8.4279,-8.3939,-8.0412,-8.1426,-8.2408,-8.3321,-8.3973,-8.4386,-8.4514,-8.4674,-8.49,-8.5348,-8.5538,-8.5704,-8.5921,-8.5641,-8.5666,-8.613,-8.5964,-8.603,-8.6494,-8.5865,-8.5299,-8.4964,-8.4418,-8.3628,-8.2632,-8.1344,-8.0216,-7.9277,-7.4289,-7.0598,-6.8234,-6.71,-6.8234,-7.1278,-7.2595,-7.4448,-7.6678,-7.7737,-7.8326,-7.8661,-7.9451,-7.9648,-7.9428,-8.0107,-8.0553,-8.0932,-8.169,-8.1811,-8.177,-8.2029,-8.177,-8.1322,-8.1109,-8.0867,-8.0752,-8.1305,-8.1435,-8.1625,-8.2479,-8.2863,-8.3054,-8.3198,-8.3357,-8.3292,-8.2321,-8.1738,-8.1511,-8.2062,-8.177,-8.1414,-8.1414,-8.1025,-8.054,-8.0086,-7.9179,-7.8402,-7.7949,-7.5973,-7.3804,-7.1731,-6.8525,-6.5772,-6.3926,-6.2437,-6.1368,-6.085,-5.9608,-5.9393,-6.0332,-6.2242,-6.4283,-6.6323,-7.2022,-7.583,-7.7536,-8.0573,-8.2143,-8.2197,-8.2892,-8.2766,-8.1913,-8.3366,-8.3208,-8.1944,-8.3114,-8.3269,-8.2758,-8.322,-8.3427,-8.361,-8.4112,-8.4425,-8.4613,-8.5055,-8.4965,-8.4969,-8.2813,-8.3659,-8.437,-8.437,-8.4818,-8.5317,-8.5586,-8.5624,-8.585,-8.6388,-8.6567,-8.6767,-8.7276,-8.6971,-8.6678,-8.6652,-8.6593,-8.6593,-8.6593,-8.6163,-8.5722,-8.5334,-8.4892,-8.4135,-8.2877,-8.2042,-8.1209,-8.0378,-7.6427,-7.3545,-7.1699,-7.199,-7.3285,-7.5455,-7.6459,-7.7471,-7.8487,-7.9251,-7.9515,-7.9408,-8.0081,-8.015,-7.9966,-8.0795,-8.0952,-8.0823,-8.1775,-8.1641,-8.109,-8.1543,-8.1414,-8.0966,-8.0966,-8.0846,-8.0763,-8.1,-8.126,-8.1643,-8.2278,-8.2791,-8.3146,-8.349,-8.3681,-8.3648,-8.3033,-8.2353,-8.2094,-8.3001,-8.2839,-8.2515,-8.2515,-8.2159,-8.177,-8.1479,-8.0442,-7.9503,-7.8953,-7.6653,-7.4289,-7.2314,-7.0274,-6.8266,-6.629,-6.6517,-6.6388,-6.5481,-6.5189,-6.5125,-6.5287,-6.5125,-6.6209,-6.8895,-7.416,-7.7603,-7.9071,-8.1085,-8.2016,-8.1818,-8.2513,-8.2608,-8.2229,-8.3809,-8.3809,-8.264,-8.3777,-8.4188,-8.3963,-8.4172,-8.4451,-8.4735,-8.5207,-8.5522,-8.5811,-8.6016,-8.5768,-8.5452,-8.3659,-8.4843,-8.5858,-8.5858,-8.6433,-8.7144,-8.782,-8.738,-8.7482,-8.8835,-8.8239,-8.7846,-8.8519,-8.8103,-8.7611,-8.7315,-8.7349,-8.7256,-8.719,-8.719,-8.719,-8.7123,-8.6132,-8.511,-8.4031,-8.3073,-8.2064,-8.1025,-7.9017,-7.7398,-7.6168,-7.6848,-7.7204,-7.7301,-7.8596,-7.9392,-7.9736,-7.9354,-7.9602,-8.0245,-8.0173,-8.0297,-8.067,-8.165,-8.1608,-8.1122,-8.1802,-8.1641,-8.1122,-8.1122,-8.1122,-8.1122,-8.1155,-8.1155,-8.1122,-8.1122,-8.1576,-8.2126,-8.2159,-8.2223,-8.258,-8.3875,-8.3713,-8.3454,-8.4134,-8.3713,-8.3227,-8.3325,-8.3292,-8.326,-8.326,-8.3227,-8.2968,-8.2288,-8.1511,-8.0475,-7.9082,-7.7107,-7.4743,-7.1958,-7.1116,-6.9691,-6.6971,-6.9788,-7.1666,-7.1375,-7.3933,-7.5164,-7.4419,-6.8816,-6.8752,-7.5585,-7.7819,-7.9661,-8.1147,-8.1851,-8.192,-8.1344,-8.2008,-8.2324,-8.2355,-8.3114,-8.3398,-8.3335,-8.3999,-8.4631,-8.5231,-8.5294,-8.5737,-8.6437,-8.6432,-8.6811,-8.7348,-8.738,-8.6527,-8.5579,-8.5249,-8.5993,-8.6636,-8.6636,-8.6805,-8.6974,-8.7144,-8.7482,-8.7854,-8.8192,-8.8542,-8.8701,-8.8586,-8.8276,-8.7962,-8.7611,-8.7434,-8.7024,-8.6461,-8.6428,-8.6104,-8.5248,-8.4463,-8.3827,-8.3369,-8.2531,-8.1897,-8.1381,-8.0625,-8.0378,-8.0604,-8.0766,-8.1155,-8.1705,-8.2029,-8.2195,-8.2296,-8.2256,-8.2001,-8.1626,-8.1613,-8.1322,-8.0938,-8.116,-8.1187,-8.1058,-8.122,-8.1543,-8.1867,-8.1867,-8.1867,-8.1964,-8.2515,-8.2288,-8.1867,-8.1867,-8.1964,-8.2223,-8.2774,-8.3325,-8.3778,-8.4134,-8.4069,-8.4134,-8.4879,-8.4069,-8.3486,-8.4555,-8.4361,-8.3972,-8.3972,-8.3551,-8.313,-8.2968,-8.1414,-7.9892,-7.9017,-7.7528,-7.5876,-7.4063,-7.4225,-7.3966,-7.2703,-7.4354,-7.416,-7.0889,-7.2282,-7.2929,-7.2217,-7.1763,-7.3091,-7.6427,-7.8078,-7.9828,-8.182,-8.2012,-8.2334,-8.2766,-8.3461,-8.3777,-8.3809,-8.5073,-8.5041,-8.403,-8.4188,-8.4378,-8.4567,-8.5105,-8.5737,-8.6432,-8.6938,-8.6938,-8.6685,-8.719,-8.6843,-8.6242,-8.6298,-8.6907,-8.7414,-8.7414,-8.7685,-8.7922,-8.7922,-8.8226,-8.8497,-8.8497,-8.8835,-8.9151,-8.9319,-8.8986,-8.8772,-8.8931,-8.7951,-8.709,-8.6693,-8.666,-8.6435,-8.5861,-8.5465,-8.4925,-8.4301,-8.3907,-8.3277,-8.2536,-8.2297,-8.2344,-8.2612,-8.2256,-8.2483,-8.3195,-8.2839,-8.2709,-8.2677,-8.2353,-8.1964,-8.1641,-8.1964,-8.2062,-8.2062,-8.2353,-8.2483,-8.2483,-8.2483,-8.2547,-8.2612,-8.2612,-8.2612,-8.2677,-8.3065,-8.313,-8.313,-8.3454,-8.3098,-8.2774,-8.3454,-8.3681,-8.381,-8.4134,-8.4458,-8.4814,-8.5203,-8.4976,-8.4879,-8.5656,-8.5721,-8.5591,-8.5268,-8.462,-8.394,-8.3292,-8.1382,-7.973,-7.8985,-7.7398,-7.6232,-7.607,-7.6427,-7.6653,-7.6556,-7.7884,-7.7366,-7.403,-7.5131,-7.5455,-7.4387,-7.5714,-7.7042,-7.8208,-7.9633,-8.0952,-8.2139,-8.2175,-8.249,-8.324,-8.4251,-8.4757,-8.4789,-8.5863,-8.5768,-8.4757,-8.5073,-8.5231,-8.5294,-8.5989,-8.6495,-8.6874,-8.7254,-8.7159,-8.6874,-8.7254,-8.6969,-8.6463,-8.7042,-8.7651,-8.8158,-8.8158,-8.8666,-8.9072,-8.9072,-8.9072,-8.9072,-8.9072,-8.9173,-8.9478,-9.0154,-8.9749,-8.9668,-9.017,-8.8568,-8.7422,-8.7422,-8.7422,-8.7389,-8.7289,-8.7157,-8.674,-8.5947,-8.5756,-8.5221,-8.4156,-8.3998,-8.3751,-8.3386,-8.29,-8.2932,-8.3325,-8.2806,-8.2515,-8.2385,-8.177,-8.1382,-8.1252,-8.1867,-8.2483,-8.3098,-8.3681,-8.394,-8.4037,-8.4037,-8.3746,-8.3357,-8.3357,-8.3357,-8.3357,-8.3486,-8.3843,-8.4361,-8.5203,-8.462,-8.381,-8.4393,-8.4037,-8.3648,-8.4231,-8.4911,-8.5462,-8.5462,-8.6045,-8.6563,-8.6563,-8.7016,-8.7243,-8.666,-8.5851,-8.4782,-8.326,-8.1317,-7.96,-7.8564,-7.7042,-7.6524,-7.7819,-7.8175,-7.8629,-7.9471,-8.054,-8.0475,-7.8758,-7.9568,-7.9698,-7.8694,-7.9698,-8.0378,-8.0604,-8.1576,-8.221,-8.2457,-8.2555,-8.2863,-8.3464,-8.4789,-8.5484,-8.5484,-8.6084,-8.6053,-8.5484,-8.5989,-8.6274,-8.64,-8.7001,-8.7317,-8.7412,-8.7412,-8.7348,-8.7254,-8.7348,-8.6969,-8.6463,-8.774,-8.8395,-8.8903,-8.8903,-8.9004,-8.9072,-8.9072,-8.9072,-8.9072,-8.9072,-8.9647,-9.0087,-9.0188,-9.0186,-9.0002,-8.95,-8.8642,-8.815,-8.815,-8.815,-8.7885,-8.7289,-8.666,-8.6593,-8.7031,-8.6138,-8.5893,-8.6327,-8.5401,-8.4772,-8.45,-8.5021,-8.4771,-8.4069,-8.4555,-8.4458,-8.3875,-8.3746,-8.3033,-8.1964,-8.2062,-8.2191,-8.2288,-8.2385,-8.2806,-8.3357,-8.3357,-8.3648,-8.4037,-8.4037,-8.4037,-8.4134,-8.4782,-8.462,-8.4458,-8.5851,-8.6077,-8.5948,-8.6045,-8.5527,-8.4976,-8.5073,-8.5689,-8.6239,-8.6239,-8.679,-8.7275,-8.7275,-8.734,-8.7405,-8.7275,-8.6174,-8.462,-8.2612,-8.0961,-7.9082,-7.6556,-7.6945,-7.7787,-7.8629,-7.9795,-8.1058,-8.2385,-8.2159,-8.2062,-8.2321,-8.1414,-8.1317,-8.2321,-8.1997,-8.2321,-8.3519,-8.2612,-8.2559,-8.3446,-8.4088,-8.4462,-8.4589,-8.5651,-8.6211,-8.6211,-8.6305,-8.6305,-8.6179,-8.5673,-8.58,-8.6369,-8.6495,-8.6874,-8.7412,-8.7412,-8.7032,-8.659,-8.719,-8.6969,-8.6463,-8.8586,-8.8869,-8.9072,-8.9072,-8.9072,-8.9072,-8.9072,-8.9444,-8.9681,-8.9681,-9.0324,-9.0932,-9.1338,-9.1304,-9.1185,-9.11,-9.062,-9.009,-8.9509,-8.8415,-8.7786,-8.7852,-8.7488,-8.7687,-8.8415,-8.76,-8.7221,-8.7403,-8.613,-8.5527,-8.5523,-8.549,-8.5429,-8.5339,-8.5274,-8.4956,-8.4446,-8.4117,-8.3443,-8.2774,-8.3519,-8.381,-8.3875,-8.4264,-8.4652,-8.4911,-8.4911,-8.5138,-8.5397,-8.5397,-8.5624,-8.5948,-8.5915,-8.5915,-8.6142,-8.7211,-8.7275,-8.6952,-8.6952,-8.6693,-8.6433,-8.6433,-8.6693,-8.6952,-8.6952,-8.7502,-8.7988,-8.7988,-8.8312,-8.8344,-8.7567,-8.6563,-8.5203,-8.3033,-8.0507,-7.8629,-7.8078,-7.7593,-7.7949,-7.9827,-8.0961,-8.2029,-8.3098,-8.2871,-8.2677,-8.2612,-8.1997,-8.19,-8.258,-8.2288,-8.2742,-8.4167,-8.3786,-8.3761,-8.4312,-8.4795,-8.5237,-8.5651,-8.6337,-8.6832,-8.7181,-8.7043,-8.6716,-8.6437,-8.6432,-8.64,-8.6469,-8.678,-8.7127,-8.7412,-8.7412,-8.719,-8.6969,-8.7285,-8.719,-8.6969,-8.9172,-8.9128,-8.9072,-8.9072,-8.9072,-8.914,-8.9309,-8.985,-9.0256,-9.0425,-9.1102,-9.1778,-9.2353,-9.2297,-9.227,-9.2373,-9.2009,-9.1403,-9.0304,-8.8714,-8.8018,-8.8548,-8.8747,-8.9078,-8.9641,-8.8945,-8.846,-8.825,-8.6798,-8.6157,-8.638,-8.5823,-8.5795,-8.6258,-8.5701,-8.522,-8.4813,-8.4259,-8.3751,-8.3415,-8.4485,-8.4941,-8.5106,-8.5656,-8.611,-8.6401,-8.6401,-8.6401,-8.6401,-8.6401,-8.6757,-8.7081,-8.6563,-8.6951,-8.7663,-8.8214,-8.8085,-8.7696,-8.747,-8.7437,-8.7437,-8.7437,-8.7535,-8.7664,-8.7664,-8.8247,-8.8765,-8.8765,-8.9186,-8.9251,-8.8117,-8.7211,-8.5883,-8.3551,-8.0734,-7.8953,-7.9406,-7.8499,-7.8726,-8.122,-8.2321,-8.3195,-8.4102,-8.4167,-8.394,-8.3389,-8.3195,-8.3098,-8.3098,-8.3098,-8.3681,-8.4911,-8.508,-8.518,-8.518,-8.5696,-8.6206,-8.6783,-8.7087,-8.749,-8.7899,-8.7656,-8.7165,-8.6653,-8.7348,-8.7254,-8.6653,-8.7348,-8.7538,-8.7412,-8.7412,-8.7412,-8.7412,-8.7412,-8.7412,-8.7412,-8.9245,-8.924,-8.9072,-8.9072,-8.9072,-8.9309,-9.0019,-9.0188,-9.0459,-9.1135,-9.188,-9.2353,-9.2421,-9.2769,-9.264,-9.1643,-9.1275,-9.0671,-8.9542,-8.9343,-8.9277,-8.9343,-8.9972,-9.037,-9.0436,-8.9707,-8.9343,-8.9282,-8.7885,-8.7044,-8.6744,-8.6744,-8.6563,-8.6291,-8.6226,-8.5832,-8.5177,-8.5145,-8.4538,-8.3649,-8.3779,-8.402,-8.4296,-8.4361,-8.5203,-8.6401,-8.6401,-8.6401,-8.6401,-8.6401,-8.6433,-8.6466,-8.6433,-8.7046,-8.7853,-8.7918,-8.8373,-8.8635,-8.7664,-8.7437,-8.7437,-8.7437,-8.7923,-8.8409,-8.8409,-8.8992,-8.951,-8.951,-8.9542,-8.9542,-8.9445,-8.8279,-8.6433,-8.3648,-8.2418,-8.0896,-7.8337,-7.9568,-8.1284,-8.2839,-8.4231,-8.5591,-8.6984,-8.7114,-8.7081,-8.7049,-8.6433,-8.6077,-8.6077,-8.6077,-8.6433,-8.7146,-8.6564,-8.6273,-8.6273,-8.7307,-8.7819,-8.7884,-8.8225,-8.8239,-8.7899,-8.7899,-8.7693,-8.7348,-8.8075,-8.798,-8.738,-8.8075,-8.798,-8.7412,-8.7412,-8.7412,-8.7412,-8.7412,-8.7412,-8.7412,-8.947,-8.9295,-8.9241,-8.9681,-8.9376,-8.9478,-9.0696,-9.0865,-9.1135,-9.1913,-9.2658,-9.3131,-9.3131,-9.3284,-9.3174,-9.2573,-9.2179,-9.1742,-9.1075,-9.0891,-9.0569,-9.0105,-9.0801,-9.1165,-9.1165,-9.0469,-9.0105,-9.0105,-8.9111,-8.8554,-8.8399,-8.7937,-8.7678,-8.7524,-8.7095,-8.6645,-8.6201,-8.6201,-8.5855,-8.5323,-8.5748,-8.5752,-8.5531,-8.5955,-8.6216,-8.6412,-8.6618,-8.6718,-8.6719,-8.6951,-8.734,-8.7761,-8.7954,-8.8244,-8.8631,-8.8823,-8.9409,-8.9868,-8.9285,-8.8961,-8.8765,-8.8765,-8.8636,-8.8636,-8.9057,-8.9057,-8.9057,-8.9478,-8.9575,-8.9445,-8.8992,-8.8085,-8.6919,-8.543,-8.3454,-8.2029,-8.1802,-8.1738,-8.2223,-8.3648,-8.5106,-8.6207,-8.6757,-8.679,-8.679,-8.679,-8.6563,-8.6401,-8.6401,-8.6401,-8.6725,-8.7405,-8.7178,-8.7049,-8.7049,-8.7891,-8.831,-8.8343,-8.9074,-8.9058,-8.8303,-8.889,-8.8772,-8.8044,-8.8328,-8.8296,-8.8044,-8.7854,-8.7633,-8.7412,-8.7412,-8.7412,-8.7412,-8.7412,-8.7664,-8.8044,-8.9724,-8.9777,-8.9894,-9.029,-9.0155,-9.0335,-9.144,-9.1643,-9.1913,-9.2692,-9.3267,-9.3571,-9.3571,-9.3571,-9.3453,-9.3156,-9.2883,-9.2581,-9.2276,-9.203,-9.1612,-9.0867,-9.1099,-9.1364,-9.1562,-9.0668,-9.0304,-9.0536,-8.9774,-8.9409,-8.9409,-8.8647,-8.8316,-8.8283,-8.7587,-8.717,-8.699,-8.699,-8.6777,-8.654,-8.7229,-8.7168,-8.6684,-8.7405,-8.7503,-8.7339,-8.7614,-8.7747,-8.7749,-8.7952,-8.8408,-8.8862,-8.9055,-8.9411,-8.9767,-9.0346,-9.0609,-9.0777,-9.0749,-9.0327,-8.9837,-8.9641,-8.9218,-8.8959,-8.9478,-8.9186,-8.8992,-8.9478,-8.9575,-8.9445,-8.8927,-8.8247,-8.747,-8.6563,-8.4555,-8.3357,-8.4102,-8.3584,-8.3648,-8.5041,-8.6304,-8.7146,-8.7373,-8.7405,-8.7405,-8.7405,-8.7178,-8.7081,-8.7081,-8.7081,-8.747,-8.8376,-8.8409,-8.8538,-8.8765,-8.8797,-8.8959,-8.9186,-8.9825,-8.9743,-8.9211,-8.9723,-8.9533,-8.877,-8.8992,-8.896,-8.8739,-8.8486,-8.8265,-8.8044,-8.8044,-8.8044,-8.8044,-8.8044,-8.836,-8.877,-9.0113,-9.0789,-9.1007,-9.0763,-9.1285,-9.1919,-9.2378,-9.2421,-9.2692,-9.347,-9.3571,-9.3571,-9.3571,-9.3571,-9.3453,-9.3156,-9.3096,-9.2943,-9.2641,-9.2581,-9.2337,-9.1658,-9.09,-9.0867,-9.1562,-9.0171,-8.9807,-9.0536,-8.9807,-8.9442,-8.9409,-8.868,-8.8316,-8.8283,-8.7587,-8.7289,-8.7289,-8.7289,-8.711,-8.6876,-8.76,-8.7713,-8.7532,-8.8254,-8.8879,-8.9469,-8.9469,-8.9469,-8.9469,-8.9502,-8.9502,-8.9502,-8.9502,-9.0247,-9.1288,-9.2394,-9.1907,-9.1257,-9.1982,-9.1397,-9.0454,-8.9772,-8.9575,-8.9575,-8.9575,-8.9575,-8.9575,-8.9575,-8.9575,-8.9575,-8.9575,-8.8992,-8.8053,-8.666,-8.5818,-8.5041,-8.4328,-8.4847,-8.5851,-8.7243,-8.8053,-8.8797,-8.951,-8.9575,-8.9575,-8.9575,-8.8895,-8.8506,-8.8506,-8.8506,-8.9154,-9.0546,-9.0611,-9.0935,-9.168,-9.0287,-8.9931,-9.0611,-9.0276,-9.0257,-9.0586,-9.0239,-8.9819,-8.9529,-9.0224,-9.0129,-8.9561,-9.0224,-9.0098,-8.9497,-8.9497,-8.9497,-8.9497,-8.9497,-8.9497,-8.9497,-9.0319,-9.0789,-9.1178,-9.1409,-9.1625,-9.2089,-9.3088,-9.2759,-9.2692,-9.347,-9.3571,-9.3571,-9.3571,-9.3571,-9.3571,-9.3453,-9.3275,-9.2943,-9.2641,-9.2581,-9.252,-9.2337,-9.1892,-9.1735,-9.1968,-9.1289,-9.1032,-9.1264,-9.1032,-9.0668,-9.0171,-8.9442,-8.9078,-8.9045,-8.7819,-8.7554,-8.7985,-8.7488,-8.7494,-8.7898,-8.8069,-8.8466,-8.8806,-8.9037,-8.9235,-8.9433,-8.9153,-8.942,-8.9784,-8.9565,-8.9829,-9.0319,-9.0573,-9.1021,-9.1504,-9.1828,-9.1699,-9.1441,-9.142,-9.1556,-9.1431,-9.0261,-8.9578,-8.9253,-8.9543,-8.9186,-8.8959,-8.9478,-8.9575,-8.9575,-8.9575,-8.8992,-8.8538,-8.8636,-8.802,-8.747,-8.7243,-8.7405,-8.7502,-8.7437,-8.8053,-8.8603,-8.8797,-8.883,-8.883,-8.883,-8.8636,-8.8927,-8.9931,-8.951,-8.9899,-9.1323,-9.087,-9.0935,-9.168,-9.1259,-9.1162,-9.1388,-9.1466,-9.122,-9.0618,-9.1189,-9.1025,-9.0224,-9.0445,-9.0414,-9.0193,-8.9908,-8.9687,-8.9497,-8.9497,-8.9497,-8.9497,-8.9497,-8.9813,-9.0224,-9.0513,-9.1005,-9.1577,-9.1885,-9.2203,-9.2702,-9.3461,-9.3199,-9.3064,-9.3537,-9.3571,-9.3571,-9.3571,-9.3571,-9.3571,-9.3571,-9.3394,-9.3216,-9.3036,-9.3036,-9.3036,-9.3036,-9.2641,-9.2459,-9.2276,-9.1792,-9.1669,-9.203,-9.1844,-9.1417,-9.0687,-9.0133,-8.9707,-8.9376,-8.8515,-8.8349,-8.8714,-8.8283,-8.8349,-8.878,-8.9078,-8.9442,-8.9906,-9.0502,-9.0701,-9.0734,-9.0846,-9.1084,-9.148,-9.129,-9.1326,-9.1457,-9.1648,-9.1702,-9.1629,-9.1927,-9.1828,-9.1695,-9.2039,-9.2239,-9.2211,-9.1565,-9.0587,-8.9838,-8.9805,-8.9382,-8.9057,-8.9478,-8.9575,-8.9575,-8.9575,-8.9218,-8.8992,-8.9121,-8.8797,-8.8506,-8.8506,-8.8506,-8.8441,-8.8312,-8.8668,-8.8927,-8.8927,-8.9154,-8.9316,-8.9316,-8.9607,-8.9996,-9.0579,-9.0481,-9.0935,-9.2101,-9.168,-9.1809,-9.2522,-9.2522,-9.2392,-9.2165,-9.2006,-9.1788,-9.145,-9.1747,-9.1547,-9.0951,-9.0951,-9.0951,-9.0888,-9.0477,-9.0319,-9.0319,-9.0319,-9.0319,-9.0319,-9.0319,-9.0572,-9.0951,-9.0622,-9.1433,-9.2031,-9.2061,-9.2735,-9.335,-9.3486,-9.3537,-9.3571,-9.3571,-9.3571,-9.3571,-9.3571,-9.3571,-9.3571,-9.3571,-9.3571,-9.3571,-9.3571,-9.3571,-9.3605,-9.3673,-9.3368,-9.3036,-9.2802,-9.2105,-9.1978,-9.2581,-9.2343,-9.1853,-9.1026,-9.072,-9.0233,-8.957,-8.9503,-8.9442,-8.9509,-8.9442,-8.9442,-8.9575,-9.0304,-9.0668,-9.0867,-9.2258,-9.2788,-9.2888,-9.355,-9.3848,-9.3881,-9.3815,-9.3318,-9.2689,-9.2689,-9.2225,-9.1828,-9.2556,-9.2291,-9.2059,-9.3418,-9.3351,-9.2957,-9.3264,-9.2384,-9.1272,-9.0424,-9.0,-8.9705,-8.9607,-8.9705,-8.9738,-8.9672,-8.9737,-8.9575,-8.8992,-8.8895,-8.8895,-8.8895,-8.8895,-8.9121,-8.9704,-8.9769,-8.9769,-8.9769,-9.032,-9.0676,-9.0611,-9.1259,-9.1388,-9.0741,-9.1388,-9.2101,-9.2878,-9.2878,-9.3202,-9.3817,-9.3817,-9.3493,-9.291,-9.2087,-9.2058,-9.2698,-9.1913,-9.1583,-9.1583,-9.1583,-9.1583,-9.1583,-9.1583,-9.1583,-9.1583,-9.1583,-9.1583,-9.1583,-9.1583,-9.1583,-9.1583,-9.0494,-9.1308,-9.1893,-9.1433,-9.245,-9.318,-9.2716,-9.3199,-9.3571,-9.3571,-9.3571,-9.3571,-9.3571,-9.3571,-9.3571,-9.3571,-9.3571,-9.3571,-9.3571,-9.3571,-9.3842,-9.4451,-9.385,-9.3723,-9.4272,-9.3561,-9.3016,-9.2581,-9.3122,-9.266,-9.1389,-9.1329,-9.1168,-9.1001,-9.016,-9.0106,-9.0605,-8.9796,-8.9741,-9.0337,-9.1066,-9.1695,-9.2324,-9.3219,-9.355,-9.3583,-9.3749,-9.4179,-9.4577,-9.3981,-9.3318,-9.2689,-9.2689,-9.2589,-9.2589,-9.3351,-9.3451,-9.3384,-9.3716,-9.408,-9.4312,-9.3817,-9.3726,-9.3237,-9.137,-9.1109,-9.0913,-8.9836,-9.026,-9.0683,-9.0451,-9.0838,-9.1356,-9.1809,-9.1874,-9.1874,-9.1874,-9.1874,-9.1712,-9.1259,-9.1226,-9.1226,-9.1226,-9.1356,-9.1194,-9.0643,-9.1259,-9.1615,-9.1453,-9.2165,-9.2878,-9.3558,-9.359,-9.3655,-9.3817,-9.3817,-9.3752,-9.359,-9.2826,-9.2538,-9.2698,-9.1913,-9.1583,-9.1583,-9.1583,-9.1583,-9.1583,-9.1583,-9.1583,-9.1583,-9.1583,-9.1583,-9.1583,-9.1583,-9.1583,-9.1583,-9.0601,-9.1051,-9.148,-9.1638,-9.2223,-9.2839,-9.2977,-9.3334,-9.3571,-9.3571,-9.3571,-9.3571,-9.3571,-9.3571,-9.3571,-9.3571,-9.3571,-9.3571,-9.3571,-9.3571,-9.3774,-9.4146,-9.4146,-9.4315,-9.4687,-9.5062,-9.4712,-9.3601,-9.3454,-9.3225,-9.2789,-9.2239,-9.2011,-9.2011,-9.1429,-9.1281,-9.1492,-9.0909,-9.099,-9.1596,-9.196,-9.2556,-9.3318,-9.4047,-9.4312,-9.4378,-9.471,-9.5107,-9.5306,-9.4577,-9.408,-9.3683,-9.3318,-9.3219,-9.3285,-9.3683,-9.3782,-9.3881,-9.4213,-9.461,-9.4875,-9.4842,-9.501,-9.4585,-9.245,-9.2057,-9.1959,-9.1042,-9.1401,-9.1762,-9.1431,-9.1689,-9.1979,-9.2266,-9.2263,-9.2263,-9.2263,-9.2263,-9.2263,-9.223,-9.1906,-9.1742,-9.1962,-9.213,-9.2,-9.1377,-9.2227,-9.2554,-9.223,-9.2878,-9.3461,-9.3817,-9.3817,-9.3817,-9.3817,-9.4141,-9.4266,-9.4057,-9.3494,-9.321,-9.3139,-9.2738,-9.2373,-9.2057,-9.2057,-9.1899,-9.1583,-9.1583,-9.1583,-9.1583,-9.1583,-9.1583,-9.1583,-9.1583,-9.1583,-9.1583,-9.076,-9.076,-9.1048,-9.1856,-9.2087,-9.2464,-9.3282,-9.3503,-9.3571,-9.3571,-9.3571,-9.3571,-9.3571,-9.3571,-9.3571,-9.3571,-9.3571,-9.3571,-9.3571,-9.3706,-9.3842,-9.3943,-9.4552,-9.4958,-9.506,-9.6142,-9.6176,-9.5093,-9.4212,-9.4024,-9.4436,-9.342,-9.2896,-9.2762,-9.2836,-9.2721,-9.2476,-9.2486,-9.27,-9.2951,-9.3083,-9.3418,-9.408,-9.4809,-9.5074,-9.5173,-9.577,-9.6101,-9.6101,-9.5339,-9.5074,-9.4975,-9.4378,-9.4179,-9.4179,-9.4179,-9.4279,-9.4478,-9.4975,-9.5074,-9.524,-9.5869,-9.6001,-9.5474,-9.3631,-9.3139,-9.2909,-9.2415,-9.2645,-9.2876,-9.2512,-9.2543,-9.2507,-9.2171,-9.2201,-9.2165,-9.2068,-9.2165,-9.2425,-9.291,-9.2425,-9.2256,-9.2821,-9.2899,-9.2838,-9.253,-9.3383,-9.3655,-9.2846,-9.3688,-9.4076,-9.3817,-9.3947,-9.3947,-9.3817,-9.446,-9.4541,-9.4092,-9.389,-9.3707,-9.3611,-9.3331,-9.2942,-9.2436,-9.2436,-9.2089,-9.1583,-9.1583,-9.1583,-9.1583,-9.1583,-9.1583,-9.1583,-9.1583,-9.1583,-9.1583,-9.0494,-9.0654,-9.0876,-9.1227,-9.1801,-9.2294,-9.2513,-9.3165,-9.3571,-9.3571,-9.3571,-9.3571,-9.3571,-9.3571,-9.3571,-9.3571,-9.3571,-9.3571,-9.3571,-9.4214,-9.4857,-9.5466,-9.5601,-9.5939,-9.6582,-9.6176,-9.6142,-9.6582,-9.648,-9.6115,-9.5574,-9.4771,-9.4095,-9.3487,-9.3829,-9.3978,-9.3924,-9.3973,-9.4057,-9.4097,-9.4474,-9.4643,-9.4842,-9.5571,-9.5869,-9.5869,-9.5968,-9.6432,-9.6863,-9.6101,-9.5869,-9.5836,-9.5736,-9.5703,-9.5703,-9.5703,-9.6167,-9.6532,-9.6001,-9.5869,-9.5869,-9.5968,-9.6001,-9.5804,-9.5178,-9.4585,-9.3927,-9.2876,-9.3203,-9.3629,-9.3596,-9.3851,-9.4105,-9.4037,-9.4283,-9.4238,-9.3623,-9.4076,-9.427,-9.3752,-9.359,-9.4044,-9.5334,-9.44,-9.3619,-9.3619,-9.4335,-9.4173,-9.2878,-9.4627,-9.5112,-9.3849,-9.4432,-9.4465,-9.3817,-9.418,-9.4034,-9.3454,-9.393,-9.3823,-9.325,-9.2307,-9.1804,-9.1709,-9.1709,-9.1646,-9.1583,-9.1583,-9.1583,-9.1583,-9.1583,-9.1583,-9.1583,-9.1583,-9.1583,-9.1583,-9.1239,-9.1017,-9.117,-9.2406,-9.239,-9.2452,-9.3152,-9.3452,-9.3571,-9.3571,-9.3571,-9.3571,-9.3571,-9.3571,-9.3571,-9.3571,-9.3977,-9.4214,-9.4214,-9.4518,-9.5229,-9.6345,-9.6007,-9.6345,-9.7495,-9.7191,-9.7394,-9.8104,-9.6886,-9.6548,-9.6988,-9.5838,-9.5127,-9.4823,-9.5041,-9.4995,-9.4813,-9.4656,-9.4745,-9.4923,-9.4905,-9.514,-9.5538,-9.5869,-9.6001,-9.6068,-9.6465,-9.683,-9.7062,-9.673,-9.6631,-9.6565,-9.6134,-9.6001,-9.6001,-9.6001,-9.6233,-9.6432,-9.6101,-9.6001,-9.6001,-9.6001,-9.6001,-9.5936,-9.5772,-9.531,-9.4782,-9.4354,-9.4684,-9.5046,-9.504,-9.4838,-9.47,-9.4644,-9.4437,-9.4335,-9.44,-9.4335,-9.4173,-9.3849,-9.4529,-9.5042,-9.5058,-9.5005,-9.4945,-9.4735,-9.5237,-9.4978,-9.3734,-9.4783,-9.4816,-9.3572,-9.446,-9.4562,-9.3817,-9.4568,-9.4407,-9.352,-9.3626,-9.3464,-9.321,-9.2909,-9.25,-9.2152,-9.2152,-9.1931,-9.1583,-9.1583,-9.1583,-9.1583,-9.1583,-9.1583,-9.1583,-9.1583,-9.1583,-9.1583]},{"header":{"parameterUnit":"m.s-1","parameterCategory":1,"la1":30.6,"la2":28.766,"lo1":-90.7593,"lo2":-88.6598,"dy":0.0162,"dx":0.0183,"nx":116,"ny":114,"refTime":"2024-04-07T00:00:00:Z","depth":0,"parameterNumber":3,"parameterNumberName":"V-component_of_WINDS"},"data":[0.0,0.0,0.0,0.0,0.0,0.0,0.0,0.0,0.0,0.0,0.0,0.0,0.0,0.0,0.0,0.0,0.0,0.0,0.0,0.0,0.0,0.0,0.0,0.0,0.0,0.0,0.0,0.0,0.0,0.0,0.0,0.0,0.0,0.0,0.0,0.0,0.0,0.0,0.0,0.0,0.0,0.0,0.0,0.0,0.0,0.0,0.0,0.0,0.0,0.0,0.0,0.0,0.0,0.0,0.0,0.0,0.0,0.0,0.0,0.0,0.0,0.0,0.0,0.0,0.0,0.0,0.0,0.0,0.0,0.0,0.0,0.0,0.0,0.0,0.0,0.0,0.0,0.0,0.0,0.0,0.0,0.0,0.0,0.0,0.0,0.0,0.0,0.0,0.0,0.0,0.0,0.0,0.0,0.0,0.0,0.0,0.0,0.0,0.0,0.0,0.0,0.0,0.0,0.0,0.0,0.0,0.0,0.0,0.0,0.0,0.0,0.0,0.0,0.0,0.0,0.0,0.0,0.0,0.0,0.0,0.0,0.0,0.0,0.0,0.0,0.0,0.0,0.0,0.0,0.0,0.0,0.0,0.0,0.0,0.0,0.0,0.0,0.0,0.0,0.0,0.0,0.0,0.0,0.0,0.0,0.0,0.0,0.0,0.0,0.0,0.0,0.0,0.0,0.0,0.0,0.0,0.0,0.0,0.0,0.0,0.0,0.0,0.0,0.0,0.0,0.0,0.0,0.0,0.0,0.0,0.0,0.0,0.0,0.0,0.0,0.0,0.0,0.0,0.0,0.0,0.0,0.0,0.0,0.0,0.0,0.0,0.0,0.0,0.0,0.0,0.0,0.0,0.0,0.0,0.0,0.0,0.0,0.0,0.0,0.0,0.0,0.0,0.0,0.0,0.0,0.0,0.0,0.0,0.0,0.0,0.0,0.0,0.0,0.0,0.0,0.0,0.0,0.0,0.0,0.0,0.0,0.0,0.0,0.0,0.0,0.0,0.0,0.0,0.0,0.0,0.0,0.0,0.0,0.0,0.0,0.0,0.0,0.0,0.0,0.0,0.0,0.0,0.0,0.0,0.0,0.0,0.0,0.0,0.0,0.0,0.0,0.0,0.0,0.0,0.0,0.0,0.0,0.0,0.0,0.0,0.0,0.0,0.0,0.0,0.0,0.0,0.0,0.0,0.0,0.0,0.0,0.0,0.0,0.0,0.0,0.0,0.0,0.0,0.0,0.0,0.0,0.0,0.0,0.0,0.0,0.0,0.0,0.0,0.0,0.0,0.0,0.0,0.0,0.0,0.0,0.0,0.0,0.0,0.0,0.0,0.0,0.0,0.0,0.0,0.0,0.0,0.0,0.0,0.0,0.0,0.0,0.0,0.0,0.0,0.0,0.0,0.0,0.0,0.0,0.0,0.0,0.0,0.0,0.0,0.0,0.0,0.0,0.0,0.0,0.0,0.0,0.0,0.0,0.0,0.0,0.0,0.0,0.0,0.0,0.0,0.0,0.0,0.0,0.0,0.0,0.0,0.0,0.0,0.0,0.0,0.0,0.0,0.0,0.0,0.0,0.0,0.0,0.0,0.0,0.0,0.0,0.0,0.0,0.0,0.0,0.0,0.0,0.0,0.0,0.0,0.0,0.0,0.0,0.0,0.0,0.0,0.0,0.0,0.0,0.0,0.0,0.0,0.0,0.0,0.0,0.0,0.0,0.0,0.0,0.0,0.0,0.0,0.0,0.0,0.0,0.0,0.0,0.0,0.0,0.0,0.0,0.0,0.0,0.0,0.0,0.0,0.0,0.0,0.0,0.0,0.0,0.0,0.0,0.0,0.0,0.0,0.0,0.0,0.0,0.0,0.0,0.0,0.0,0.0,0.0,0.0,0.0,0.0,0.0,0.0,0.0,0.0,0.0,0.0,0.0,0.0,0.0,0.0,0.0,0.0,0.0,0.0,0.0,0.0,0.0,0.0,0.0,0.0,0.0,0.0,0.0,0.0,0.0,0.0,0.0,0.0,0.0,0.0,0.0,0.0,0.0,0.0,0.0,0.0,0.0,0.0,0.0,0.0,0.0,0.0,0.0,0.0,0.0,0.0,0.0,0.0,0.0,0.0,0.0,0.0,0.0,0.0,0.0,0.0,0.0,0.0,0.0,0.0,0.0,0.0,0.0,0.0,0.0,0.0,0.0,0.0,0.0,0.0,0.0,0.0,0.0,0.0,0.0,0.0,0.0,0.0,0.0,0.0,0.0,0.0,0.0,0.0,0.0,0.0,0.0,0.0,0.0,0.0,0.0,0.0,0.0,0.0,0.0,0.0,0.0,0.0,0.0,0.0,0.0,0.0,0.0,0.0,0.0,0.0,0.0,0.0,0.0,0.0,0.0,0.0,0.0,0.0,0.0,0.0,0.0,0.0,0.0,0.0,0.0,0.0,0.0,0.0,0.0,0.0,0.0,0.0,0.0,0.0,0.0,0.0,0.0,0.0,0.0,0.0,0.0,0.0,0.0,0.0,0.0,0.0,0.0,0.0,0.0,0.0,0.0,0.0,0.0,0.0,0.0,0.0,0.0,0.0,0.0,0.0,0.0,0.0,0.0,0.0,0.0,0.0,0.0,0.0,0.0,0.0,0.0,0.0,0.0,0.0,0.0,0.0,0.0,0.0,0.0,0.0,0.0,0.0,0.0,0.0,0.0,0.0,0.0,0.0,0.0,0.0,0.0,0.0,0.0,0.0,0.0,0.0,0.0,0.0,0.0,0.0,0.0,0.0,0.0,0.0,0.0,0.0,0.0,0.0,0.0,0.0,0.0,0.0,0.0,0.0,0.0,0.0,0.0,0.0,0.0,0.0,0.0,0.0,0.0,0.0,0.0,0.0,0.0,0.0,0.0,0.0,0.0,0.0,0.0,0.0,0.0,0.0,0.0,0.0,0.0,0.0,0.0,0.0,0.0,0.0,0.0,0.0,0.0,0.0,0.0,0.0,0.0,0.0,0.0,0.0,0.0,0.0,0.0,0.0,0.0,0.0,0.0,0.0,0.0,0.0,0.0,0.0,0.0,0.0,0.0,0.0,0.0,0.0,0.0,0.0,0.0,0.0,0.0,0.0,0.0,0.0,0.0,0.0,0.0,0.0,0.0,0.0,0.0,0.0,0.0,0.0,0.0,0.0,0.0,0.0,0.0,0.0,0.0,0.0,0.0,0.0,0.0,0.0,0.0,0.0,0.0,0.0,0.0,0.0,0.0,0.0,0.0,0.0,0.0,0.0,0.0,0.0,0.0,0.0,0.0,0.0,0.0,0.0,0.0,0.0,0.0,0.0,0.0,0.0,0.0,0.0,0.0,0.0,0.0,0.0,0.0,0.0,0.0,0.0,0.0,0.0,0.0,0.0,0.0,0.0,0.0,0.0,0.0,0.0,0.0,0.0,0.0,0.0,0.0,0.0,0.0,0.0,0.0,0.0,0.0,0.0,0.0,0.0,0.0,0.0,0.0,0.0,0.0,0.0,0.0,0.0,0.0,0.0,0.0,0.0,0.0,0.0,0.0,0.0,0.0,0.0,0.0,0.0,0.0,0.0,0.0,0.0,0.0,0.0,0.0,0.0,0.0,0.0,0.0,0.0,0.0,0.0,0.0,0.0,0.0,0.0,0.0,0.0,0.0,0.0,0.0,0.0,0.0,0.0,0.0,0.0,0.0,0.0,0.0,0.0,0.0,0.0,0.0,0.0,0.0,0.0,0.0,0.0,0.0,0.0,0.0,0.0,0.0,0.0,0.0,0.0,0.0,0.0,0.0,0.0,0.0,0.0,0.0,0.0,0.0,0.0,0.0,0.0,0.0,0.0,0.0,0.0,0.0,0.0,0.0,0.0,0.0,0.0,0.0,0.0,0.0,0.0,0.0,0.0,0.0,0.0,0.0,0.0,0.0,0.0,0.0,0.0,0.0,0.0,0.0,0.0,0.0,0.0,0.0,0.0,0.0,0.0,0.0,0.0,0.0,0.0,0.0,0.0,0.0,0.0,0.0,0.0,0.0,0.0,0.0,0.0,0.0,0.0,0.0,0.0,0.0,0.0,0.0,0.0,0.0,0.0,0.0,0.0,0.0,0.0,0.0,0.0,0.0,0.0,0.0,0.0,0.0,0.0,0.0,0.0,0.0,0.0,0.0,0.0,0.0,0.0,0.0,0.0,0.0,0.0,0.0,0.0,0.0,0.0,0.0,0.0,0.0,0.0,0.0,0.0,0.0,0.0,0.0,0.0,0.0,0.0,0.0,0.0,0.0,0.0,0.0,0.0,0.0,0.0,0.0,0.0,0.0,0.0,0.0,0.0,0.0,0.0,0.0,0.0,0.0,0.0,0.0,0.0,0.0,0.0,0.0,0.0,0.0,0.0,0.0,0.0,0.0,0.0,0.0,0.0,0.0,0.0,0.0,0.0,0.0,0.0,0.0,0.0,0.0,0.0,0.0,0.0,0.0,0.0,0.0,0.0,0.0,0.0,0.0,0.0,0.0,0.0,0.0,0.0,0.0,0.0,0.0,0.0,0.0,0.0,0.0,0.0,0.0,0.0,0.0,0.0,0.0,0.0,0.0,0.0,0.0,0.0,0.0,0.0,0.0,0.0,0.0,0.0,0.0,0.0,0.0,0.0,0.0,0.0,0.0,0.0,0.0,0.0,0.0,0.0,0.0,0.0,0.0,0.0,0.0,0.0,0.0,0.0,0.0,0.0,0.0,0.0,0.0,0.0,0.0,0.0,0.0,0.0,0.0,0.0,0.0,0.0,0.0,0.0,0.0,0.0,0.0,0.0,0.0,0.0,0.0,0.0,0.0,0.0,0.0,0.0,0.0,0.0,0.0,0.0,0.0,0.0,0.0,0.0,0.0,0.0,0.0,0.0,0.0,0.0,0.0,0.0,0.0,0.0,0.0,0.0,0.0,0.0,0.0,0.0,0.0,0.0,0.0,0.0,0.0,0.0,0.0,0.0,0.0,0.0,0.0,0.0,0.0,0.0,0.0,0.0,0.0,0.0,0.0,0.0,0.0,0.0,0.0,0.0,0.0,0.0,0.0,0.0,0.0,0.0,0.0,0.0,0.0,0.0,0.0,0.0,0.0,0.0,0.0,0.0,0.0,0.0,0.0,0.0,0.0,0.0,0.0,0.0,0.0,0.0,0.0,0.0,0.0,0.0,0.0,0.0,0.0,0.0,0.0,0.0,0.0,0.0,0.0,0.0,0.0,0.0,0.0,0.0,0.0,0.0,0.0,0.0,0.0,0.0,0.0,0.0,0.0,0.0,0.0,0.0,0.0,0.0,0.0,0.0,0.0,0.0,0.0,0.0,0.0,0.0,0.0,0.0,0.0,0.0,0.0,0.0,0.0,0.0,0.0,0.0,0.0,0.0,0.0,0.0,0.0,0.0,0.0,0.0,0.0,0.0,0.0,0.0,0.0,0.0,0.0,0.0,0.0,0.0,0.0,0.0,0.0,0.0,0.0,0.0,0.0,0.0,0.0,0.0,0.0,0.0,0.0,0.0,0.0,0.0,0.0,0.0,0.0,0.0,0.0,0.0,0.0,0.0,0.0,0.0,0.0,0.0,0.0,0.0,0.0,0.0,0.0,0.0,0.0,0.0,0.0,0.0,0.0,0.0,0.0,0.0,0.0,0.0,0.0,0.0,0.0,0.0,0.0,0.0,0.0,0.0,0.0,0.0,0.0,0.0,0.0,0.0,0.0,0.0,0.0,0.0,0.0,0.0,0.0,0.0,0.0,0.0,0.0,0.0,0.0,0.0,0.0,0.0,0.0,0.0,0.0,0.0,0.0,0.0,0.0,0.0,0.0,0.0,0.0,0.0,0.0,0.0,0.0,0.0,0.0,0.0,0.0,0.0,0.0,0.0,0.0,0.0,0.0,0.0,0.0,0.0,0.0,0.0,0.0,0.0,0.0,0.0,0.0,0.0,0.0,0.0,0.0,0.0,0.0,0.0,0.0,0.0,0.0,0.0,0.0,0.0,0.0,0.0,0.0,0.0,0.0,0.0,0.0,0.0,0.0,0.0,0.0,0.0,0.0,0.0,0.0,0.0,0.0,0.0,0.0,0.0,0.0,0.0,3.8199,3.613,0.0,0.0,0.0,0.0,0.0,0.0,0.0,0.0,0.0,0.0,0.0,0.0,0.0,0.0,0.0,0.0,0.0,0.0,0.0,0.0,0.0,0.0,0.0,2.4696,2.5407,2.5777,2.5636,2.5577,2.5685,2.5444,0.0,0.0,0.0,0.0,2.4034,2.3872,2.4179,2.4926,2.5997,2.7666,2.9755,2.9488,2.8145,2.5886,0.0,0.0,0.0,0.0,0.0,0.0,0.0,0.0,0.0,0.0,0.0,0.0,0.0,0.0,0.0,0.0,0.0,0.0,0.0,0.0,0.0,0.0,0.0,0.0,0.0,0.0,0.0,0.0,0.0,0.0,0.0,0.0,0.0,0.0,0.0,0.0,0.0,0.0,0.0,0.0,0.0,0.0,0.0,0.0,0.0,0.0,0.0,0.0,0.0,0.0,0.0,0.0,0.0,0.0,0.0,0.0,0.0,0.0,0.0,0.0,0.0,0.0,0.0,0.0,0.0,0.0,0.0,0.0,0.0,0.0,4.2205,4.0793,0.0,0.0,0.0,0.0,0.0,0.0,0.0,0.0,0.0,0.0,0.0,0.0,0.0,0.0,0.0,0.0,0.0,0.0,0.0,0.0,0.0,2.337,2.4014,2.4894,2.5812,2.6671,2.6344,2.6171,2.6428,2.5889,2.5277,2.4634,2.4654,2.439,2.3823,2.4054,2.5022,2.6647,2.8996,3.1869,3.5211,3.5065,3.3281,3.0177,2.8674,0.0,0.0,0.0,0.0,0.0,0.0,0.0,0.0,0.0,0.0,0.0,0.0,0.0,0.0,0.0,0.0,0.0,0.0,0.0,0.0,0.0,0.0,0.0,0.0,0.0,0.0,0.0,0.0,0.0,0.0,0.0,0.0,0.0,0.0,0.0,0.0,0.0,0.0,0.0,0.0,0.0,0.0,0.0,0.0,0.0,0.0,0.0,0.0,0.0,0.0,0.0,0.0,0.0,0.0,0.0,0.0,0.0,0.0,0.0,0.0,0.0,0.0,0.0,4.6228,4.6971,4.741,4.8128,4.8878,4.9572,4.7318,4.6934,4.7636,4.3757,0.0,0.0,0.0,0.0,0.0,0.0,0.0,0.0,0.0,0.0,0.0,0.0,0.0,0.0,0.0,0.0,0.0,0.0,0.0,2.3282,2.4258,2.4885,2.5829,2.7289,2.7254,2.7394,2.7806,2.7119,2.6441,2.5889,2.5409,2.5144,2.5072,2.5564,2.6791,2.8883,3.3282,3.663,3.8888,3.8864,3.8978,3.9009,3.4462,3.213,3.1384,0.0,0.0,0.0,0.0,0.0,0.0,0.0,0.0,0.0,0.0,0.0,0.0,0.0,0.0,0.0,0.0,0.0,0.0,0.0,0.0,0.0,0.0,0.0,0.0,0.0,0.0,0.0,0.0,0.0,0.0,0.0,0.0,0.0,0.0,0.0,0.0,0.0,0.0,0.0,0.0,0.0,3.6655,3.7606,0.0,0.0,0.0,0.0,0.0,0.0,0.0,0.0,0.0,0.0,0.0,0.0,0.0,4.3063,4.4905,4.7315,4.9227,5.0518,5.3444,5.479,5.4636,5.5277,5.5451,5.5351,5.6111,0.0,4.99,4.7703,0.0,0.0,0.0,0.0,0.0,0.0,0.0,0.0,0.0,0.0,0.0,0.0,0.0,0.0,0.0,0.0,0.0,0.0,0.0,0.0,0.0,2.7307,2.9011,3.037,3.1483,3.1388,2.9715,2.9385,2.8267,2.603,2.5805,2.5757,2.5757,2.744,3.0567,3.5088,3.9177,4.2089,4.3966,4.4147,4.439,4.4694,4.2127,3.9018,3.5526,3.2538,0.0,0.0,0.0,0.0,0.0,0.0,0.0,0.0,0.0,0.0,0.0,0.0,0.0,0.0,0.0,0.0,0.0,0.0,0.0,0.0,0.0,0.0,0.0,0.0,0.0,0.0,0.0,0.0,0.0,0.0,0.0,0.0,0.0,0.0,0.0,0.0,0.0,0.0,0.0,3.642,3.8681,3.8741,3.8482,3.7297,0.0,0.0,0.0,0.0,0.0,0.0,0.0,0.0,0.0,4.5424,4.6075,4.7649,5.029,5.1796,5.3375,5.5031,5.6482,5.7166,5.7309,5.7953,5.8323,5.8531,5.9093,5.8441,5.6665,5.3079,5.0079,4.7375,0.0,0.0,0.0,0.0,4.2008,4.3413,0.0,0.0,0.0,0.0,0.0,0.0,0.0,0.0,0.0,0.0,0.0,0.0,2.7186,2.9737,3.1959,3.3623,3.5017,3.4778,3.23,3.136,2.9603,2.6738,2.6295,2.6238,2.6502,3.0182,3.4895,4.0595,4.416,4.6728,4.8311,4.8706,4.8977,4.9167,4.8475,4.5291,4.0232,3.685,3.4301,3.2098,0.0,0.0,0.0,0.0,0.0,0.0,0.0,0.0,0.0,0.0,0.0,0.0,0.0,0.0,0.0,0.0,0.0,0.0,0.0,0.0,0.0,0.0,0.0,0.0,0.0,0.0,0.0,0.0,0.0,0.0,0.0,0.0,0.0,0.0,0.0,0.0,0.0,3.8877,4.0939,4.0372,4.1576,4.0867,0.0,0.0,0.0,0.0,0.0,0.0,4.461,4.5424,4.7134,4.9926,5.0661,5.224,5.5012,5.56,5.6734,5.8515,5.8641,5.8829,5.9261,5.9879,6.0413,6.0799,6.1172,6.1762,6.2071,5.7097,5.395,5.1871,4.7853,4.5717,4.5071,4.6307,4.7347,4.8612,0.0,0.0,0.0,0.0,0.0,0.0,0.0,0.0,0.0,0.0,0.0,2.5864,2.9505,3.1179,3.3186,3.609,3.6056,3.5822,3.5683,3.2371,2.9929,2.8786,2.7024,2.6574,2.7594,3.4174,3.9465,4.3313,4.69,4.9528,5.1136,5.153,5.2149,5.2874,5.183,4.9587,4.6365,4.2797,4.0298,3.8263,3.2639,0.0,0.0,0.0,0.0,0.0,0.0,0.0,0.0,0.0,0.0,0.0,0.0,0.0,0.0,0.0,0.0,0.0,0.0,0.0,0.0,0.0,0.0,0.0,0.0,0.0,0.0,0.0,0.0,0.0,0.0,0.0,0.0,0.0,0.0,0.0,0.0,0.0,0.0,4.3617,4.6512,0.0,0.0,0.0,0.0,4.3465,4.4583,4.6591,4.9494,5.077,5.2533,5.4976,5.5627,5.6549,5.789,5.827,5.9198,6.0712,6.1042,6.1398,6.1846,6.2464,6.2773,6.2858,6.401,6.4207,6.3307,5.8362,5.5243,5.3304,5.0045,4.878,4.8869,5.0129,5.1731,5.3501,0.0,0.0,0.0,0.0,0.0,2.124,2.078,2.0992,2.1643,2.2762,2.5414,2.8205,3.0897,3.4918,3.8121,4.0053,4.1604,4.1499,3.9219,3.5822,3.3515,3.2724,3.001,3.0798,3.5761,3.9272,4.3048,4.7088,4.9596,5.1436,5.2639,5.335,5.3803,5.4119,5.3718,5.2923,5.163,4.7059,4.3819,4.1243,3.6686,3.2742,0.0,0.0,0.0,0.0,0.0,0.0,0.0,0.0,0.0,0.0,0.0,0.0,0.0,0.0,0.0,0.0,0.0,0.0,0.0,0.0,0.0,0.0,0.0,0.0,0.0,0.0,0.0,0.0,0.0,0.0,0.0,0.0,0.0,0.0,0.0,0.0,0.0,4.6175,4.8948,0.0,4.4917,4.633,4.7512,4.7642,4.9973,5.1981,5.3578,5.4689,5.5844,5.7092,5.7336,5.8205,5.9806,5.9941,6.0619,6.1753,6.1706,6.1847,6.2274,6.2697,6.3364,6.4122,6.4572,6.4628,6.415,6.0807,5.8559,5.7041,5.5131,5.4147,5.395,5.5187,5.6339,5.7294,0.0,0.0,0.0,0.0,0.0,2.1074,2.0585,2.0952,2.1866,2.345,2.6783,3.0175,3.3141,3.7637,4.1095,4.2594,4.4207,4.4066,4.145,3.787,3.5503,3.4785,3.3007,3.4942,4.1076,4.3265,4.6102,4.9638,5.1617,5.2951,5.3689,5.468,5.5214,5.539,5.5013,5.4938,5.4888,5.1197,4.7933,4.4844,4.0777,3.7258,3.4022,0.0,0.0,0.0,0.0,0.0,0.0,0.0,0.0,0.0,0.0,0.0,0.0,0.0,0.0,0.0,0.0,0.0,0.0,0.0,0.0,0.0,0.0,0.0,0.0,0.0,0.0,0.0,0.0,0.0,0.0,0.0,0.0,0.0,0.0,4.5931,4.9239,4.842,5.1566,5.2217,4.8219,5.0308,5.2011,5.2356,5.4475,5.6242,5.7389,5.8046,5.8585,5.8964,5.9371,6.005,6.1027,6.1409,6.1876,6.2344,6.2756,6.2875,6.2917,6.3959,6.4684,6.5106,6.5499,6.5443,6.4937,6.3083,6.1706,6.0554,5.8502,5.7828,5.8109,5.8924,5.9626,6.0132,0.0,0.0,0.0,0.0,0.0,2.0863,2.0715,2.0919,2.2311,2.5628,2.8207,3.1548,3.6209,3.9236,4.1615,4.3421,4.3443,4.3094,4.2413,3.8309,3.5573,3.4856,3.6033,3.8671,4.2916,4.6006,4.8652,5.0768,5.3058,5.4205,5.4254,5.5603,5.6446,5.6948,5.5942,5.5767,5.6194,5.5089,5.2729,4.9389,4.5028,4.2074,3.9829,0.0,0.0,0.0,0.0,0.0,0.0,0.0,0.0,0.0,0.0,0.0,0.0,0.0,0.0,0.0,0.0,0.0,0.0,0.0,0.0,0.0,0.0,0.0,0.0,0.0,0.0,0.0,0.0,0.0,0.0,0.0,0.0,0.0,4.4122,4.8486,5.1371,5.0601,5.4563,5.5908,5.2165,5.4788,5.6912,5.753,5.798,5.8937,6.0674,6.0782,6.0782,6.0782,6.1922,6.2248,6.1678,6.2598,6.2947,6.2715,6.4347,6.4637,6.3858,6.6398,6.6848,6.5808,6.6988,6.6792,6.5612,6.4993,6.4375,6.3448,5.9879,5.9598,6.1172,6.12,6.1565,6.1959,0.0,0.0,0.0,2.1853,2.1866,2.1551,2.0435,2.1247,2.2718,2.479,2.8578,3.2537,3.6356,4.0132,4.3217,4.534,4.5162,4.4664,4.3995,3.9758,3.7206,3.715,4.1099,4.4563,4.7281,4.8964,5.0672,5.2427,5.3327,5.4156,5.4912,5.5906,5.6651,5.7174,5.7174,5.7298,5.7349,5.6244,5.5131,5.3847,4.9799,4.6417,4.3543,0.0,0.0,0.0,0.0,0.0,0.0,0.0,0.0,0.0,0.0,0.0,0.0,0.0,0.0,0.0,0.0,0.0,0.0,0.0,0.0,0.0,0.0,0.0,0.0,0.0,0.0,0.0,0.0,0.0,0.0,0.0,4.4957,4.8224,4.8224,5.1648,5.4158,5.4328,5.6647,5.7564,5.6179,5.7671,5.8742,5.8652,5.9923,6.0537,6.0384,6.0997,6.1379,6.1379,6.1678,6.2193,6.2926,6.316,6.3085,6.2583,6.4166,6.4615,6.4011,6.6084,6.6899,6.6591,6.7212,6.6567,6.5062,6.4893,6.4375,6.3757,6.3195,6.2998,6.3111,6.3588,6.3307,6.2605,0.0,0.0,0.0,2.1708,2.1612,2.1324,2.0443,2.1285,2.3053,2.5926,2.9528,3.3409,3.7524,4.0824,4.3368,4.4999,4.4707,4.3938,4.2798,3.9933,3.8897,4.0341,4.4167,4.7303,4.9501,5.1153,5.2355,5.3077,5.3858,5.4591,5.5199,5.6053,5.6774,5.7595,5.7775,5.8102,5.8379,5.7244,5.6609,5.6065,5.3462,5.0959,4.8461,4.5948,4.4258,4.2916,4.0741,3.9837,3.945,3.7624,0.0,0.0,0.0,0.0,0.0,0.0,0.0,0.0,0.0,0.0,0.0,0.0,0.0,0.0,0.0,0.0,0.0,0.0,0.0,0.0,0.0,0.0,0.0,0.0,4.8956,5.2197,5.3661,5.5203,5.6458,5.7268,5.8261,5.8836,5.8758,5.9449,6.0067,6.0456,6.1145,6.1608,6.1561,6.2053,6.2248,6.2004,6.2492,6.2953,6.3415,6.4074,6.4092,6.352,6.5427,6.5791,6.4995,6.6989,6.7457,6.6923,6.7138,6.6623,6.5499,6.5246,6.5078,6.4937,0.0,0.0,0.0,0.0,6.4561,6.3845,0.0,0.0,0.0,2.1336,2.1029,2.075,2.0642,2.1339,2.3396,2.7815,3.0543,3.3942,3.8881,4.1109,4.2606,4.3533,4.3018,4.2068,4.0548,3.9798,4.0787,4.3798,4.6049,4.8275,5.0413,5.271,5.3651,5.3341,5.4609,5.5245,5.5318,5.6075,5.7046,5.8114,5.8075,5.8479,5.9237,5.8122,5.7435,5.695,5.6116,5.5006,5.3487,5.0447,4.9473,4.9244,4.5913,4.4113,4.3099,4.1078,0.0,0.0,0.0,0.0,0.0,0.0,0.0,0.0,0.0,0.0,0.0,0.0,0.0,0.0,0.0,0.0,0.0,0.0,0.0,0.0,0.0,0.0,0.0,0.0,5.2798,5.5804,5.9019,5.8575,5.834,5.9333,5.9516,5.9751,6.0274,6.0585,6.1148,6.2206,6.1996,6.2259,6.3279,6.3442,0.0,0.0,0.0,6.4201,6.374,6.5091,6.5555,6.4981,6.7074,6.7414,6.6257,6.8123,6.818,6.6879,6.6851,6.6802,6.6539,6.6089,6.6202,6.6539,6.4797,6.4527,6.5102,6.5261,6.534,6.5284,0.0,0.0,2.199,2.166,2.188,2.1779,2.1034,2.185,2.3875,2.7403,3.0277,3.3681,3.7942,4.0126,4.2012,4.3958,4.3309,4.2743,4.2568,4.2633,4.3705,4.6027,4.8334,5.0526,5.2601,5.3509,5.431,5.4952,5.5222,5.5535,5.5992,5.6513,5.7242,5.8295,5.8561,5.9,5.9411,5.8253,5.8098,5.8488,5.7146,5.5739,5.4517,5.3679,5.3309,5.306,5.1899,5.1951,5.2186,4.9967,4.8394,4.6877,4.3581,3.9616,0.0,0.0,0.0,0.0,0.0,0.0,0.0,0.0,0.0,0.0,0.0,0.0,0.0,0.0,0.0,0.0,0.0,0.0,0.0,5.2746,5.5804,5.8235,5.983,5.9856,5.9803,6.0039,6.0483,6.0823,6.0927,6.1711,6.2185,6.2312,6.2936,6.3109,6.2692,6.3632,6.4093,6.3984,6.4663,6.5205,6.5585,6.5904,6.5714,6.5189,6.6522,0.0,6.5453,6.7161,6.7349,6.6546,6.6835,6.683,6.6623,6.6988,6.7213,6.7241,6.637,6.6354,6.6688,6.5875,6.5299,6.4877,0.0,2.2091,2.1919,2.1737,2.1745,2.1634,2.1265,2.1757,2.3387,2.6777,2.9149,3.1973,3.6084,3.7684,3.8935,3.9985,3.9668,4.0066,4.1668,4.3019,4.4949,4.7767,4.9727,5.1428,5.2892,5.3696,5.4408,5.5001,5.5297,5.5704,5.6227,5.657,5.7477,5.8758,5.9127,5.9676,6.0195,5.9363,5.906,5.9105,5.8264,5.7568,5.6887,5.6106,5.5855,5.5857,5.5308,5.5282,5.5229,5.3309,5.21,5.0815,4.7637,4.4369,4.0978,0.0,0.0,0.0,0.0,0.0,0.0,0.0,0.0,0.0,0.0,0.0,0.0,0.0,0.0,4.4251,4.6839,0.0,5.3112,5.6275,5.8,5.9437,6.0901,6.0849,6.0666,6.0666,6.1189,6.1659,6.1947,6.2347,6.2646,6.2868,6.2945,6.3151,6.3514,6.4127,6.4687,6.5205,6.5504,6.5802,6.6128,6.6427,6.6399,6.6101,6.7024,6.7132,6.6562,6.7386,6.7408,6.6816,6.6425,6.631,6.6623,6.6932,6.7186,6.7298,6.6778,6.6735,6.6847,6.6536,6.6295,6.6041,0.0,0.0,2.193,2.176,2.146,2.1296,2.146,2.1638,2.2981,2.6288,2.8026,3.0349,3.4056,3.5084,3.5457,3.539,3.6151,3.7758,4.0494,4.3016,4.5897,4.9135,5.0561,5.1775,5.2741,5.3662,5.4304,5.4842,5.5469,5.5898,5.6238,5.6661,5.7643,5.9127,5.9445,6.0101,6.0858,6.0199,5.9718,5.9237,5.8978,5.8922,5.8991,5.7821,5.7655,5.7895,5.7146,5.6373,5.5643,5.433,5.3524,5.262,5.0095,4.8205,4.6006,4.126,3.9926,0.0,0.0,0.0,0.0,0.0,0.0,0.0,0.0,3.8386,4.0253,4.3353,4.6607,4.9646,5.2302,5.4419,5.6641,5.9281,5.9699,6.0274,6.1921,6.1738,6.145,6.145,6.1868,6.2313,6.2783,6.2617,6.2712,6.3231,6.2656,6.2845,6.425,6.4566,6.5166,6.5951,6.627,6.6481,6.6481,6.6942,6.7186,6.7186,6.7675,6.7838,6.7729,6.7729,6.7531,6.7065,6.6353,6.6393,6.6988,6.7213,6.7312,6.7212,6.7045,6.6876,6.6834,6.7001,6.7027,6.6943,0.0,0.0,0.0,2.1935,2.1773,2.1735,2.1773,2.2323,2.3618,2.6044,2.8015,3.0147,3.2663,3.3387,3.3748,3.3861,3.6889,3.9514,4.1046,4.4664,4.7676,4.9732,5.0788,5.2008,5.3505,5.3645,5.427,5.5593,5.6079,5.631,5.639,5.6765,5.7715,5.9127,5.9127,5.9603,6.0365,5.9812,5.9489,5.9237,5.8403,5.8401,5.8971,5.847,5.8675,5.9019,5.7596,5.6435,5.5433,5.492,5.4347,5.3663,5.2511,5.0981,4.8886,4.5077,4.1613,3.8592,3.659,3.6095,3.6488,3.7906,3.8194,3.9955,0.0,4.6993,4.7205,5.1407,5.3384,5.4915,5.665,5.7608,5.8758,6.0614,6.0927,6.1346,6.2548,6.2679,6.2626,6.2626,6.2705,6.2757,6.2809,6.2757,6.2775,6.2703,6.2646,6.2741,6.3218,6.4578,6.542,6.5549,6.698,6.7702,6.7702,6.7756,6.7783,6.7783,6.7865,6.762,6.7105,6.7105,6.6903,6.6585,6.7652,6.8181,6.8337,6.9433,6.8899,6.7537,6.8028,6.7916,6.7354,6.6862,6.6328,6.5934,0.0,0.0,0.0,2.1963,2.1939,2.2056,2.2211,2.2385,2.3002,2.4507,2.6104,2.7551,2.8849,2.937,2.9813,3.0144,3.3972,3.7247,3.9225,4.3984,4.7485,4.9148,5.0671,5.1872,5.2677,5.3379,5.4208,5.5245,5.5493,5.59,5.6405,5.6876,5.7847,5.9243,5.9479,5.9754,6.0099,6.0089,5.9726,5.9054,5.9135,5.9161,5.9107,5.8493,5.8067,5.7623,5.6655,5.5349,0.0,5.2966,5.268,5.2638,5.2251,5.1064,4.9317,4.6857,4.4503,4.2615,4.1965,4.0961,4.046,4.1799,4.3113,4.4933,4.8382,4.9558,5.0805,5.4296,5.6489,5.8037,5.8838,5.9825,6.0697,6.1178,6.1519,6.1958,6.2681,6.2581,6.2504,6.2759,6.2522,6.2469,6.2783,6.2835,6.2807,6.2722,6.2633,6.2936,6.3721,6.4509,6.5313,6.6012,6.6877,6.7376,6.7376,6.7729,6.7892,6.7892,6.7539,6.7431,6.7512,6.7159,6.6835,6.6634,6.7541,6.7772,6.7657,6.8405,6.8225,6.755,6.7803,6.7522,6.696,6.6679,6.6651,6.6735,0.0,0.0,0.0,2.2271,2.2251,2.2369,2.2568,2.2551,2.2839,2.3656,2.478,2.5646,2.607,2.6468,2.6863,2.7273,3.1221,3.4914,3.7621,4.2906,4.6821,4.8799,5.0478,5.1549,5.2161,5.3051,5.3957,5.4776,5.5032,5.5566,5.6458,5.6919,5.7941,5.9285,5.9674,5.9943,6.0129,6.0267,5.9752,5.9007,5.9636,5.9565,5.8858,5.8167,5.6938,5.5459,5.4679,5.3161,5.1202,4.9584,4.9343,4.9773,4.9621,4.9355,4.8863,4.7221,4.5699,4.4468,4.4016,4.3564,4.3514,4.4769,4.6979,4.9113,5.0142,5.185,5.3873,5.6192,5.8283,5.9756,5.9735,6.0777,6.1597,6.142,6.1759,6.2276,6.2968,6.2532,6.2248,6.2315,6.1999,6.1842,6.2077,6.2391,6.26,6.26,6.2667,6.3028,6.3844,6.4474,6.5199,6.6209,6.6806,6.7116,6.7268,6.7675,6.7892,6.7892,6.7458,6.7485,6.7865,6.7344,6.7162,6.7236,6.7585,6.7524,6.7307,6.7764,6.7725,6.7417,6.7417,6.7209,6.6789,6.6454,6.6664,6.7185,0.0,0.0,0.0,0.0,2.2794,2.2554,2.2737,2.3165,2.3697,2.4382,2.49,2.5321,2.5585,2.5803,2.6021,2.6325,2.9845,3.3563,3.7052,4.1905,4.5973,4.9269,5.0367,5.1353,5.2294,5.2746,5.3488,5.4524,5.4891,5.5567,5.6491,5.7004,5.7941,5.9285,5.9285,5.9821,6.0621,6.0019,5.9469,5.9103,5.9398,5.895,5.8069,5.7325,5.534,5.2847,5.1611,4.938,4.6764,4.4742,4.4367,4.4719,4.4192,4.5908,4.7744,4.6059,4.4023,4.1961,4.03,4.1781,4.4166,4.5849,4.8736,5.1749,5.3909,5.5666,5.7096,5.8173,5.9287,5.9896,5.9276,5.9993,6.0889,6.1344,6.153,6.2097,6.349,6.2868,6.1936,6.1219,6.1163,6.0927,6.0352,6.1319,6.1999,6.1999,6.2496,6.2809,6.2862,6.437,6.5363,6.5775,6.6799,6.748,6.7865,6.7892,6.7892,6.7892,6.7865,6.7865,6.7865,6.7647,6.79,6.8421,6.8269,6.8142,6.8197,6.8777,6.8335,6.7285,6.7285,6.7258,6.7092,6.5932,6.5988,6.6553,0.0,0.0,0.0,0.0,0.0,2.2846,2.323,2.3277,2.3527,2.4231,2.4285,0.0,0.0,0.0,0.0,0.0,2.9052,3.2104,3.5194,3.9541,4.3295,4.623,4.874,5.0476,5.1463,5.2204,5.2943,5.3573,5.3652,5.4163,5.5101,5.6291,5.7349,5.8362,5.9164,5.9353,5.934,5.9357,5.8656,5.7575,5.8027,5.7341,5.6078,5.5386,5.268,4.8992,0.0,4.4744,4.3028,4.1986,4.1505,4.1505,4.2409,4.2861,4.276,4.1239,4.1309,4.2083,4.2981,4.5153,4.7581,4.964,5.2377,5.4838,5.5942,5.7223,5.8202,5.853,5.8604,5.8273,5.7339,5.8264,5.9173,5.9408,6.0737,6.1988,6.2689,6.2582,6.1812,5.9982,6.0357,6.022,5.8869,6.0362,6.1711,6.2469,6.2932,6.3378,6.3907,6.4577,6.5069,6.5363,6.6193,6.6788,6.6941,6.7549,6.7892,6.7892,6.7892,6.7675,6.7322,6.7968,6.8159,6.8094,6.8174,6.8269,6.8401,6.8509,6.8031,6.7313,6.7313,6.6816,6.607,6.5656,6.5633,6.5846,0.0,0.0,0.0,0.0,0.0,0.0,0.0,0.0,0.0,0.0,0.0,0.0,0.0,0.0,0.0,0.0,0.0,3.0703,3.3692,3.7038,4.0348,4.3501,4.5748,4.7444,4.8508,4.9207,4.9987,5.0813,5.1255,5.2264,5.3716,5.4973,5.6034,5.6875,5.7892,5.8163,5.7845,5.8217,5.7576,5.6309,5.6167,5.5041,5.325,5.1673,4.8549,0.0,4.1514,3.9237,3.7616,3.7564,3.7713,3.8065,3.8919,3.962,3.989,3.9055,4.0413,4.2772,4.5445,4.7795,5.0097,5.2723,5.5221,5.7124,5.7325,5.8201,5.883,5.8252,5.732,5.6233,5.5261,5.5593,5.6433,5.7458,5.8882,6.0353,6.1889,6.1704,6.0786,5.9227,5.9602,5.954,5.8393,5.9648,6.104,6.2156,6.2801,6.3457,6.4168,6.4528,6.4944,6.5421,6.6095,6.6584,6.6738,6.7472,6.7892,6.7892,6.7892,6.7702,6.7349,6.8034,6.8122,6.7865,6.8016,6.8147,6.8323,6.8168,6.7722,6.7145,6.6953,6.6377,6.5691,6.5444,6.5527,6.5636,0.0,0.0,0.0,0.0,0.0,0.0,0.0,0.0,0.0,0.0,0.0,0.0,0.0,0.0,0.0,0.0,0.0,0.0,3.2572,3.4566,3.7272,4.1049,4.1602,4.2543,4.3968,4.4294,4.5113,4.6581,4.794,4.976,5.1991,5.2878,5.3816,5.4657,5.5596,5.6049,5.6081,5.6342,5.5839,5.4885,5.3595,5.1905,4.9772,4.6546,4.3284,3.9907,3.6476,3.3419,3.1174,3.2006,3.3452,3.4856,3.4354,3.6545,3.9454,3.9652,4.1317,4.3831,4.7406,4.9628,5.1712,5.4863,5.7175,5.8627,5.8193,5.8773,5.893,5.7098,5.5465,5.3909,5.266,5.2226,5.284,5.5335,5.611,5.7646,6.107,6.0355,5.9338,5.9025,5.9048,5.8965,5.8761,5.9325,6.0068,6.1036,6.2208,6.3097,6.3698,6.4273,6.4979,6.595,6.6447,6.6837,6.7225,6.7661,6.7892,6.7892,6.7892,6.7892,6.7892,6.7892,6.7892,6.7892,6.7892,6.7892,6.7892,6.7892,6.7539,6.6942,6.6399,6.6155,6.6047,6.545,6.5585,6.5911,0.0,0.0,0.0,0.0,0.0,0.0,0.0,0.0,0.0,0.0,0.0,0.0,0.0,0.0,0.0,0.0,0.0,0.0,2.9818,3.1636,3.4122,3.7361,3.9006,4.0864,4.2997,4.3469,4.4161,4.5172,4.5401,4.6095,4.7124,4.8271,4.9084,4.972,5.09,5.146,5.1403,5.1481,5.058,4.9099,4.844,4.6769,4.4653,4.3832,4.0845,3.7016,3.5842,3.3207,3.0597,3.2739,3.5494,3.8065,3.8084,3.9128,4.0501,4.1371,4.3733,4.6573,4.8663,5.1849,5.477,5.6001,5.7706,5.8797,5.8188,5.7868,5.7,5.4206,5.184,4.9475,4.6909,4.886,5.1172,5.2312,5.6317,5.9736,6.1129,6.1328,6.0669,5.8933,5.9389,5.9311,5.806,5.9319,6.059,6.1236,6.2266,6.3254,6.4273,6.4848,6.5319,6.5529,6.595,6.6212,6.6342,6.7043,6.7584,6.7892,6.7892,6.7892,6.7892,6.7892,6.7892,6.7892,6.7892,6.7892,6.7892,6.7892,6.7539,6.6996,6.6834,6.6508,6.6101,6.5938,6.5694,6.5395,0.0,0.0,0.0,0.0,0.0,0.0,0.0,0.0,0.0,0.0,0.0,0.0,0.0,0.0,0.0,0.0,0.0,0.0,0.0,2.9379,3.1086,3.3302,3.481,3.6372,3.7997,3.868,3.9412,4.0279,4.1045,4.1839,4.2748,4.387,4.4595,4.5119,4.6381,4.6795,4.6534,4.7132,4.6433,0.0,0.0,4.2377,4.0523,3.9369,3.6946,3.4,3.3189,3.2563,3.2425,3.4728,3.7295,3.9622,4.0171,4.1314,4.2705,4.3893,4.6384,4.9208,5.1165,5.4107,5.6675,5.6969,5.8251,5.8802,5.6346,5.5683,5.4396,5.0298,4.7633,4.5445,4.3198,4.5251,4.7858,4.9606,5.3978,5.8,6.0251,6.0584,6.0362,5.9859,5.999,5.9894,5.9186,6.0048,6.1094,6.2043,6.2555,6.3332,6.4482,6.4822,6.5136,6.5371,6.5792,6.6133,6.629,6.6993,6.7303,6.7353,6.7507,6.7507,6.7353,6.7353,6.743,6.7661,6.7661,6.7738,6.7892,6.7892,6.7539,6.6996,6.6996,6.6806,6.6508,6.6508,6.6454,6.6345,0.0,0.0,0.0,0.0,0.0,0.0,0.0,0.0,0.0,0.0,2.5324,2.5128,0.0,0.0,0.0,0.0,0.0,0.0,0.0,0.0,2.8512,2.9689,3.0467,3.1246,3.2058,3.2921,3.3793,3.4668,3.6214,3.7599,3.8825,3.9689,4.0319,4.0698,4.1845,4.2051,4.166,4.2677,4.2404,4.121,3.9798,3.8364,3.6908,0.0,3.2853,3.1264,2.9987,3.1674,3.4815,3.6982,3.9091,4.0936,4.2044,4.3808,4.577,4.7058,4.9253,5.173,5.4078,5.6144,5.7618,5.7667,5.8569,5.827,5.3936,5.2788,5.123,4.5921,4.3235,4.1519,4.0252,4.1687,4.411,4.7293,5.0968,5.4886,5.9185,5.9401,5.9608,6.1115,6.0788,6.0594,6.1011,6.1011,6.1526,6.287,6.2947,6.3412,6.4482,6.4691,6.4979,6.5475,6.5845,6.6212,6.6603,6.6993,6.6993,6.6681,6.707,6.707,6.6681,6.6681,6.6915,6.7225,6.7225,6.743,6.7738,6.7738,6.744,6.698,6.7056,6.7056,6.7056,6.7132,6.7403,6.7702,0.0,0.0,0.0,0.0,0.0,0.0,0.0,0.0,0.0,0.0,2.5996,2.5254,0.0,0.0,0.0,0.0,0.0,0.0,0.0,0.0,0.0,2.8854,2.9306,3.0342,3.2058,3.2847,3.3459,3.3912,3.4431,3.4796,3.5084,3.5694,3.6067,3.6181,3.6839,3.7121,3.703,3.6822,3.6371,3.573,3.5265,3.4117,3.2795,3.2983,0.0,0.0,2.9515,3.104,3.3752,3.7498,4.1605,4.5424,4.673,4.8286,4.99,5.0984,5.2548,5.4207,5.5559,5.6811,5.7847,5.8304,5.7638,5.6178,5.3522,5.0843,4.7475,4.2201,3.9578,3.7565,3.5281,3.8644,4.2741,4.5933,5.1049,5.5954,5.9806,6.0626,6.104,6.1768,6.1366,6.1119,6.1119,6.1435,6.1979,6.2592,6.3333,6.3935,6.443,6.5449,6.6024,6.6129,6.6209,6.6212,6.6133,6.6185,6.6369,6.6681,6.6759,6.6759,6.6681,6.6681,6.6759,6.6759,6.6759,6.6837,6.6915,6.6915,6.6861,6.6754,6.7141,6.7218,6.7295,6.7603,6.7485,6.7159,0.0,0.0,0.0,0.0,0.0,0.0,0.0,2.5984,2.7199,2.9031,2.8258,2.7538,2.7458,2.6212,2.5783,0.0,0.0,0.0,0.0,0.0,0.0,2.7786,2.8461,2.925,3.022,3.1104,3.1659,3.1984,0.0,3.2523,3.2383,3.2952,3.3165,3.3059,3.3376,3.3496,3.3503,3.3163,3.2919,3.2784,3.2685,3.2333,3.1926,3.2019,0.0,0.0,2.9814,3.1496,3.3959,3.6573,4.1269,4.6377,4.8571,5.0482,5.2139,5.3197,5.4423,5.5698,5.6756,5.7622,5.8151,5.7838,5.678,5.4668,5.0207,4.7182,4.3627,3.783,3.5503,3.4108,3.2609,3.5771,3.9511,4.2412,4.6844,5.1649,5.6623,5.7773,5.9131,6.1692,6.1768,6.1718,6.2019,6.2205,6.2547,6.3042,6.3629,6.4188,6.4584,6.5422,6.5815,6.5815,6.5815,6.5764,6.5713,6.5871,6.6028,6.6028,6.6212,6.6212,6.6028,6.6028,6.6107,6.6369,6.6603,6.6681,6.6681,6.6915,6.6915,6.6681,6.6915,6.6993,6.6993,6.7225,6.7114,6.6872,0.0,0.0,0.0,0.0,0.0,0.0,2.5937,2.71,2.8539,3.0602,3.0581,3.0088,2.9127,2.7195,2.6205,0.0,0.0,0.0,0.0,0.0,0.0,0.0,0.0,0.0,2.8525,0.0,0.0,3.0381,3.1009,0.0,0.0,0.0,0.0,0.0,3.109,3.1119,3.1285,3.0771,3.0785,0.0,0.0,3.1445,3.1852,0.0,0.0,0.0,0.0,3.1638,3.3523,3.5537,3.9655,4.4525,4.7714,5.0556,5.2878,5.3908,5.498,5.6176,5.7323,5.8027,5.8123,5.7108,5.58,5.307,4.7005,4.3719,4.0298,3.4198,3.2216,3.1477,3.1016,3.3295,3.623,3.9207,4.269,4.7178,5.3121,5.5007,5.7248,6.1341,6.1943,6.222,6.2772,6.2822,6.2985,6.3311,6.3797,6.4438,6.5102,6.5525,6.5684,6.558,6.558,6.5528,6.5371,6.5713,6.5713,6.5371,6.5713,6.5713,6.5371,6.5371,6.5634,6.6028,6.6369,6.6525,6.6603,6.6915,6.6759,6.6447,6.6525,6.6525,6.6525,6.6681,6.6681,6.6655,0.0,0.0,0.0,0.0,0.0,0.0,2.5945,2.7325,2.9108,3.204,3.2067,3.158,3.099,2.8834,2.7283,0.0,0.0,0.0,0.0,0.0,0.0,0.0,0.0,0.0,0.0,0.0,0.0,3.0199,3.1225,0.0,0.0,0.0,0.0,0.0,0.0,3.0663,3.1191,2.9657,0.0,0.0,0.0,0.0,0.0,0.0,0.0,0.0,0.0,3.0217,3.0879,3.5132,3.7402,3.9101,4.3075,4.749,5.1514,5.2552,5.3943,5.5452,5.696,5.7408,5.7314,5.6666,5.4391,5.0904,4.5764,4.1911,3.7982,3.2877,3.1019,3.0248,3.02,3.1645,3.4173,3.8214,4.1777,4.6131,5.1989,5.5181,5.7976,6.0914,6.1692,6.222,6.2772,6.2822,6.2822,6.2822,6.3635,6.4672,6.6101,6.6678,6.6704,6.6207,6.6207,6.5946,6.5397,6.5476,6.5476,6.5371,6.5476,6.5476,6.5371,6.5371,6.5634,6.6028,6.6028,6.6028,6.6028,6.6107,6.5871,6.5555,6.595,6.6028,6.6133,6.6525,6.6681,6.6601,0.0,0.0,0.0,0.0,0.0,0.0,2.6675,2.7474,2.905,3.2478,3.2625,3.2397,3.239,3.0703,2.8886,2.7311,0.0,0.0,0.0,0.0,0.0,0.0,0.0,0.0,0.0,0.0,2.9796,2.9958,3.1003,0.0,0.0,0.0,0.0,0.0,0.0,3.0283,3.0061,2.9011,0.0,0.0,0.0,0.0,0.0,0.0,0.0,0.0,0.0,0.0,3.1205,3.2897,3.5167,3.7326,3.7775,4.1329,4.619,5.0118,5.217,5.3771,5.6514,5.7055,5.6679,5.6161,5.3434,4.9698,4.4866,4.0539,3.6318,3.213,2.9944,2.8916,2.935,2.9965,3.1516,3.4944,3.65,3.9402,4.549,4.865,5.2147,5.7123,5.9357,6.1115,6.2672,6.2822,6.3055,6.3628,6.4393,6.5093,6.5883,6.5968,6.5972,6.5763,6.5737,6.5632,6.5371,6.5371,6.5371,6.5371,6.5371,6.5371,6.5371,6.5371,6.5476,6.5634,6.5871,6.5871,6.5634,6.5871,6.5792,6.5397,6.5555,6.5634,6.5582,6.5398,6.5371,6.5265,0.0,0.0,0.0,0.0,0.0,2.4883,2.6919,2.7679,2.9194,3.2404,3.2808,3.2845,3.3028,3.1598,2.9947,2.8333,2.7373,0.0,0.0,0.0,0.0,0.0,0.0,0.0,0.0,0.0,2.9888,3.0088,3.1096,3.1487,0.0,0.0,3.1915,3.1144,0.0,0.0,0.0,0.0,0.0,0.0,0.0,0.0,0.0,0.0,0.0,0.0,0.0,0.0,0.0,0.0,0.0,3.5474,3.4188,3.6438,4.0716,4.6559,4.9572,5.1769,5.4948,5.5917,5.5941,5.5241,5.237,4.8544,4.3916,3.9322,3.5043,3.1501,2.9221,2.8079,2.8655,2.8886,2.9803,3.2226,3.3174,3.5575,4.1268,4.4339,4.8117,5.3869,5.6498,5.8904,6.1391,6.2496,6.3382,6.4266,6.471,6.5148,6.563,6.5415,6.5318,6.5371,6.5371,6.5371,6.5371,6.5371,6.5371,6.5371,6.5371,6.5371,6.5371,6.5371,6.5555,6.587,6.595,6.6055,6.6106,6.6003,6.5897,6.5632,6.5449,6.5371,6.5318,6.4743,6.4534,6.443,0.0,0.0,0.0,0.0,0.0,2.4542,2.6333,2.7948,2.969,3.1744,3.2716,3.3065,3.2643,3.1176,3.0162,3.0083,2.8163,0.0,0.0,0.0,0.0,0.0,0.0,0.0,0.0,0.0,3.069,3.067,3.1814,3.219,3.1767,3.2342,3.2153,3.1244,0.0,0.0,0.0,0.0,0.0,0.0,0.0,0.0,3.1964,0.0,0.0,0.0,0.0,0.0,0.0,0.0,0.0,0.0,0.0,3.4027,3.5956,4.1512,4.5989,4.9571,5.1661,5.3681,5.4967,5.3957,5.1018,4.7277,4.2893,3.8387,3.4179,3.0871,2.8986,2.7962,2.8179,2.8648,2.9421,3.0735,3.3368,3.6795,4.1191,4.4386,4.7799,5.1949,5.3417,5.5329,5.8427,6.1743,6.3902,6.4429,6.4367,6.4729,6.576,6.514,6.5,6.5371,6.5371,6.5371,6.5371,6.5371,6.5371,6.5371,6.5371,6.5371,6.5371,6.5371,6.5923,6.6846,6.6292,6.6609,6.7584,6.6424,6.6134,6.6207,6.5606,6.5371,6.5318,6.4743,6.4534,6.4378,0.0,0.0,0.0,0.0,0.0,0.0,2.625,2.6641,2.7827,3.068,3.0569,3.0666,3.2019,3.0943,3.0344,3.0738,2.92,0.0,0.0,0.0,0.0,0.0,0.0,0.0,0.0,3.027,3.0995,3.1231,3.2435,3.3194,3.3578,3.3333,3.3035,3.2664,3.1383,3.0831,0.0,0.0,0.0,0.0,0.0,3.2106,3.1976,0.0,0.0,0.0,0.0,0.0,0.0,0.0,0.0,0.0,0.0,0.0,0.0,3.6599,4.103,4.5438,4.7482,4.902,4.9709,4.8331,4.638,4.3854,4.0462,3.7192,3.3968,3.0836,2.9008,2.7975,2.7992,2.8304,2.9659,3.3023,3.4246,3.6124,3.9995,4.3915,4.7498,5.0481,5.5731,5.9841,6.1484,6.2879,6.3969,6.4454,6.4471,6.4544,6.4754,6.4448,6.4681,6.5397,6.5371,6.5371,6.5371,6.5371,6.5371,6.5371,6.5371,6.5371,6.5371,6.5371,6.579,6.65,6.6316,6.6447,6.6682,6.6315,6.6027,6.5658,6.5449,6.5371,6.5318,6.4743,6.4534,6.443,0.0,0.0,0.0,0.0,0.0,0.0,2.5933,2.612,2.6967,2.9306,2.9042,2.9428,3.1606,3.0525,3.0133,3.1385,3.0194,0.0,0.0,0.0,0.0,0.0,0.0,0.0,2.9805,3.0508,3.1465,3.2745,3.3463,3.4289,3.5167,3.4938,3.4329,3.3399,3.2363,3.1649,0.0,0.0,0.0,0.0,3.1848,3.2297,3.248,0.0,0.0,0.0,0.0,0.0,0.0,0.0,0.0,0.0,0.0,0.0,0.0,0.0,3.6645,4.0686,4.4061,4.5989,4.6793,4.5645,4.3923,4.1765,3.8941,3.6025,3.3178,3.0491,2.9045,2.823,2.8075,2.842,2.9652,3.2578,3.3624,3.5372,3.9135,4.295,4.677,5.0685,5.6143,6.0063,6.1128,6.2605,6.3651,6.3903,6.4095,6.4277,6.4336,6.4022,6.42,6.492,6.5238,6.5371,6.5371,6.5371,6.5371,6.5371,6.5371,6.5501,6.5737,6.5737,6.6155,6.6913,6.6678,6.6704,0.0,6.6469,6.605,6.5711,6.5475,6.5371,6.5318,6.4743,6.4534,6.4456,0.0,0.0,0.0,0.0,0.0,0.0,0.0,2.6158,2.6952,2.7839,2.8051,2.8932,3.1181,2.9833,2.967,3.1826,3.1046,0.0,0.0,0.0,0.0,0.0,0.0,0.0,3.0234,3.0762,3.2213,3.468,3.4759,3.5451,3.6708,3.6912,3.5924,3.3818,3.3561,3.2892,3.2002,3.2302,3.2183,3.1839,3.2361,3.2868,0.0,0.0,0.0,0.0,0.0,0.0,0.0,0.0,0.0,0.0,0.0,0.0,0.0,0.0,0.0,0.0,0.0,4.3854,4.5232,4.4635,4.2816,4.041,3.7953,3.4854,0.0,2.9917,2.9114,2.8717,2.8514,2.9005,2.9715,3.0605,3.2408,3.5014,3.8926,4.2136,4.6352,5.2429,5.5304,5.7197,5.833,6.1145,6.2987,6.2987,6.3402,6.3791,6.4178,6.3727,6.361,6.4039,6.484,6.5318,6.5318,6.5318,6.5318,6.5318,6.5318,6.5684,6.6207,6.6207,6.6834,6.7828,6.7279,6.7357,6.7775,6.673,6.6259,6.6155,6.5606,6.5371,6.5318,6.4796,6.4587,6.4508,0.0,0.0,0.0,0.0,0.0,0.0,0.0,0.0,0.0,0.0,2.7122,2.7469,2.871,2.869,2.9049,0.0,0.0,0.0,0.0,0.0,0.0,0.0,0.0,0.0,3.0703,3.1797,3.3096,3.468,3.5673,3.6944,3.8425,3.7799,3.6951,3.5975,3.459,3.3016,3.1547,3.1954,3.2037,3.1989,3.2377,3.2505,0.0,0.0,0.0,0.0,3.0448,3.0462,0.0,0.0,0.0,0.0,0.0,0.0,0.0,0.0,3.2027,3.2902,3.5014,0.0,3.7701,3.6438,3.5956,3.5428,0.0,3.3086,3.1915,2.9917,2.9389,2.9521,3.0217,2.9986,3.1105,3.5439,3.6757,3.8311,4.1523,4.6391,5.1321,5.6041,5.7911,5.9113,6.0203,6.162,6.2628,6.2987,6.3027,6.3023,6.3187,6.2957,6.3097,6.3635,6.4119,6.4441,6.4441,6.4441,6.4441,6.4441,6.4761,6.4998,6.5128,6.5447,6.5998,6.6678,6.6547,6.6547,6.6652,6.639,6.6024,6.558,6.5449,6.5371,6.5371,6.524,6.5188,6.5162,0.0,0.0,0.0,0.0,0.0,0.0,0.0,0.0,0.0,0.0,2.6673,2.7006,2.8029,2.8336,2.8964,0.0,0.0,0.0,0.0,0.0,0.0,0.0,2.998,3.0388,3.1387,3.2096,3.3624,3.6098,3.6737,3.8016,3.9857,3.9158,3.8074,3.6722,3.4672,3.2975,3.1712,3.228,3.2398,3.2267,3.2691,0.0,0.0,0.0,0.0,0.0,3.0087,3.0119,0.0,3.1041,3.1547,3.1942,0.0,0.0,0.0,0.0,3.0698,3.0882,3.1662,3.3821,3.5566,3.4303,3.4349,3.4372,3.3132,3.2305,3.1295,2.9504,2.9504,2.9983,3.0407,3.099,3.2559,3.603,3.7792,4.0269,4.4855,4.916,5.3341,5.7333,5.8319,5.9147,6.041,6.0949,6.1472,6.1911,6.1801,6.1827,6.2069,6.226,6.2442,6.277,6.3265,6.3716,6.4119,6.4119,6.4248,6.4504,6.4489,6.4724,6.5294,6.5252,6.554,6.6084,6.6084,6.6036,6.5964,6.5964,6.576,6.5371,6.5371,6.5371,6.5371,6.5371,6.5371,6.5371,0.0,0.0,0.0,0.0,0.0,0.0,0.0,0.0,0.0,0.0,0.0,0.0,0.0,0.0,0.0,0.0,0.0,0.0,0.0,0.0,0.0,3.0366,3.025,3.072,3.1959,3.2117,3.3899,3.7396,3.7744,3.8863,4.0779,4.0613,3.9247,3.6825,3.4734,3.3281,3.2327,3.2943,3.305,3.279,3.3142,0.0,0.0,0.0,0.0,0.0,0.0,0.0,0.0,3.0711,3.1802,3.2813,3.1595,0.0,0.0,0.0,0.0,0.0,3.0262,3.3247,3.5818,3.444,3.4647,3.4785,3.3269,3.1938,3.0629,2.9228,2.9688,3.0422,3.067,3.2348,3.4209,3.577,3.839,4.2388,4.8434,5.1178,5.3822,5.7381,5.7886,5.8488,5.9907,6.0058,6.0203,6.0638,6.0428,6.0612,6.1291,6.1587,6.1863,6.2119,6.2571,6.3148,6.3878,6.3878,6.4158,6.4695,6.4239,6.4602,6.5575,6.5093,6.5093,6.5554,6.5554,6.5436,6.5324,6.5324,6.5281,6.5212,6.5212,6.5212,6.5212,6.5212,6.5212,6.5212,0.0,0.0,0.0,0.0,0.0,0.0,0.0,0.0,0.0,0.0,0.0,0.0,0.0,0.0,0.0,0.0,0.0,0.0,0.0,0.0,0.0,3.0954,3.037,3.0653,3.1959,3.2635,3.3922,3.6006,3.7908,3.9335,4.0344,4.1441,4.0323,3.7343,3.6204,3.4937,3.3566,3.3329,3.3521,3.3961,3.3231,0.0,0.0,0.0,0.0,0.0,0.0,0.0,0.0,2.9692,3.023,3.0481,3.0663,0.0,0.0,0.0,0.0,0.0,3.1019,3.3522,3.4877,3.1708,3.2282,3.3224,3.1708,3.118,3.0813,3.0124,3.0468,3.1619,3.397,3.4875,3.662,4.0534,4.3644,4.7143,5.173,5.3101,5.464,5.7478,5.8199,5.8752,5.945,5.984,6.0203,6.0638,5.9841,6.0069,6.1818,6.1171,6.1315,6.2672,6.2797,6.2822,6.2985,6.2985,6.3288,6.3924,6.3671,6.3885,6.4494,6.4342,6.4299,6.4376,6.4376,6.4324,6.4328,6.4328,6.4277,6.428,6.428,6.428,6.428,6.428,6.428,6.428,0.0,0.0,0.0,0.0,0.0,0.0,0.0,0.0,0.0,0.0,0.0,0.0,0.0,0.0,0.0,0.0,0.0,0.0,0.0,3.1288,3.1475,3.1828,3.124,3.1382,3.249,3.3842,3.5473,3.7415,3.9433,4.0843,4.1669,4.1069,3.9475,3.7053,3.5376,3.409,3.3226,3.3106,3.3395,3.3891,0.0,0.0,0.0,0.0,0.0,0.0,0.0,0.0,0.0,0.0,3.0039,3.1313,3.0608,0.0,0.0,0.0,0.0,0.0,2.978,3.1547,3.2902,3.2076,3.444,3.6484,3.467,3.405,3.3637,3.2856,3.2879,3.3669,3.5637,3.7692,4.0715,4.5663,4.7885,4.9911,5.278,5.3617,5.4794,5.7061,5.7838,5.8367,5.8897,5.9109,5.9316,5.9455,5.9047,5.9294,6.0667,6.0557,6.1035,6.237,6.2672,6.2822,6.2822,6.2822,6.3124,6.3676,6.3344,6.3451,6.3981,6.3564,6.3392,6.3392,6.3392,6.3554,6.3797,6.3797,6.3878,6.4119,6.4119,6.4119,6.4119,6.4119,6.4119,6.4094,0.0,0.0,0.0,0.0,0.0,0.0,0.0,0.0,0.0,0.0,0.0,0.0,0.0,0.0,0.0,0.0,0.0,0.0,0.0,3.1011,3.137,3.218,3.2187,3.267,3.3677,3.5189,3.6979,3.9096,4.111,4.2518,4.3346,4.1069,3.8916,3.6867,3.4672,3.3344,3.2654,3.2748,3.3133,3.3706,0.0,0.0,0.0,0.0,0.0,0.0,0.0,0.0,0.0,0.0,0.0,0.0,0.0,0.0,0.0,3.0171,2.9005,2.8474,2.9278,3.0445,3.1844,3.343,3.6346,3.8596,3.7747,3.6989,3.6369,3.6094,3.6025,3.6355,3.7451,4.0773,4.4948,4.9818,5.1294,5.2413,5.3985,5.458,5.5476,5.7077,5.7662,5.8151,5.856,5.8608,5.853,5.8402,5.8434,5.8802,5.9801,6.0278,6.0986,6.2169,6.2596,6.2822,6.2822,6.2822,6.3124,6.3676,6.3099,6.3124,6.3676,6.3099,6.2822,6.2822,6.2822,6.2985,6.3311,6.3311,6.3554,6.3797,6.3797,6.3797,6.3797,6.3797,6.3797,6.372,0.0,0.0,0.0,0.0,0.0,0.0,0.0,0.0,0.0,0.0,0.0,0.0,0.0,0.0,0.0,0.0,0.0,0.0,0.0,3.136,3.1422,3.1471,3.3058,3.4573,3.6003,3.6488,3.7794,4.0137,4.2373,4.3946,4.4795,4.2497,3.9992,3.7363,3.55,3.3876,3.2511,3.249,3.3133,3.3979,3.3073,0.0,0.0,0.0,0.0,0.0,0.0,0.0,0.0,0.0,0.0,0.0,0.0,0.0,3.2057,3.0583,2.9669,2.9533,3.1374,3.2305,3.3202,3.4916,3.5267,3.5887,3.8527,3.8022,3.7494,3.9367,3.9735,3.9896,4.0387,4.4393,4.8635,5.1633,5.3822,5.5518,5.6643,5.7228,5.7629,5.7819,5.8266,5.856,5.8608,5.8608,5.853,5.8402,5.8434,5.8974,6.0347,6.0477,6.116,6.264,6.2797,6.2822,6.2822,6.2822,6.3124,6.3676,6.3099,6.3124,6.3676,6.3099,6.2822,6.2822,6.2822,6.2822,6.2822,6.2822,6.2904,6.2904,6.2904,6.2904,6.2904,6.2904,6.2904,6.2829,0.0,0.0,0.0,0.0,0.0,0.0,0.0,0.0,0.0,0.0,0.0,0.0,0.0,0.0,0.0,0.0,0.0,0.0,3.0077,3.0367,3.1153,3.2561,3.3497,3.4958,3.6982,3.8827,4.0758,4.2766,4.3905,4.436,4.407,4.1214,3.8709,3.6535,3.4445,3.3178,3.2586,3.2246,3.2712,3.3698,3.2975,3.2348,0.0,0.0,0.0,0.0,0.0,0.0,0.0,0.0,2.9812,3.0958,3.0193,3.1078,3.2057,3.0267,2.9286,2.8899,2.9782,3.0816,3.2239,3.4676,3.5845,3.7098,4.0028,4.1489,4.2522,4.3602,4.4084,4.4651,4.5562,4.8052,5.0646,5.2856,5.4794,5.6335,5.7428,5.8041,5.8198,5.7907,5.831,5.8464,5.8127,5.8416,5.8449,5.808,5.866,5.9382,6.0125,6.0125,6.0968,6.2716,6.2169,6.1969,6.232,6.232,6.2421,6.2647,6.2772,6.2948,6.3149,6.2923,6.2822,6.2822,6.2822,6.2621,6.232,6.232,6.232,6.2345,6.2697,6.2621,6.232,6.232,6.2094,6.1718,0.0,0.0,0.0,0.0,0.0,0.0,0.0,0.0,0.0,0.0,0.0,0.0,0.0,0.0,0.0,0.0,0.0,0.0,2.9311,2.987,3.0967,3.2664,3.378,3.5388,3.7621,4.0584,4.2678,4.3863,4.4919,4.4733,4.3325,4.0427,3.8104,3.6453,3.4176,3.3161,3.3099,3.2448,3.2678,3.3317,3.2706,3.211,0.0,0.0,0.0,0.0,0.0,0.0,0.0,0.0,2.9659,3.0799,3.0119,3.1024,3.1979,3.0233,2.9751,2.969,2.9169,3.0125,3.1828,3.4313,3.6248,3.8475,4.1771,4.3992,4.5829,4.7459,4.7689,4.7995,4.9338,5.0399,5.1805,5.3784,5.5817,5.7362,5.8218,5.8687,5.8628,5.7907,5.8142,5.8151,5.7622,5.8031,5.8127,5.7598,5.8617,5.947,5.9638,6.0119,6.1067,6.2465,6.1994,6.1793,6.1994,6.1994,6.1918,6.1743,6.2119,6.2395,6.2571,6.2747,6.2722,6.2571,6.2571,6.2345,6.1994,6.1994,6.2094,6.2295,6.2672,6.2596,6.227,6.227,6.1918,6.1366,0.0,0.0,0.0,0.0,0.0,0.0,0.0,0.0,0.0,0.0,0.0,0.0,0.0,0.0,0.0,0.0,0.0,0.0,2.926,3.016,3.0884,3.136,3.3826,3.6058,3.7905,4.1467,4.3152,4.2932,4.5188,4.5126,4.2828,4.0572,3.8792,3.7363,3.5168,3.4152,3.4069,3.3388,3.3022,3.2848,3.218,3.1754,3.152,0.0,0.0,0.0,0.0,0.0,0.0,0.0,2.9882,2.9729,3.1149,3.1834,3.186,3.0592,3.1438,3.2347,3.0352,3.0882,3.2383,3.3907,3.6327,3.9354,4.3651,4.5025,4.6541,5.0627,5.0214,4.9531,5.092,5.1236,5.199,5.4378,5.6949,5.878,5.9391,5.944,5.902,5.7975,5.7883,5.7598,5.7069,5.7502,5.7598,5.7069,5.8411,5.9179,5.9097,6.0484,6.1484,6.2019,6.2521,6.2546,6.1994,6.1994,6.1718,6.1165,6.119,6.1492,6.2019,6.2571,6.2521,6.1994,6.1994,6.1994,6.1994,6.1994,6.232,6.2822,6.2822,6.2822,6.2822,6.2822,6.2446,6.1918,0.0,0.0,0.0,0.0,0.0,0.0,0.0,0.0,0.0,0.0,0.0,0.0,0.0,0.0,0.0,0.0,0.0,0.0,2.9311,3.0057,3.0891,3.1795,3.3508,3.4784,3.5512,3.8037,4.0959,4.4163,4.4184,4.3005,4.0709,3.9428,3.8078,3.6812,3.6769,3.6009,3.4719,3.3904,3.3586,3.3574,3.2394,3.2001,3.2044,0.0,0.0,0.0,0.0,0.0,0.0,0.0,0.0,0.0,2.9514,3.0734,3.1788,3.0543,3.0954,3.15,3.0378,3.1644,3.3734,3.5725,3.889,4.2492,4.6355,4.7643,4.9158,5.3245,5.2579,5.1631,5.2588,5.2519,5.2687,5.3582,5.5637,5.7257,5.7761,5.8458,5.855,5.7941,5.783,5.7742,5.7598,5.8055,5.8295,5.8151,5.9195,5.9888,5.974,6.0441,6.1276,6.2082,6.1832,6.1592,6.1441,6.1818,6.1517,6.0588,6.1391,6.1843,6.2019,6.2169,6.2169,6.1994,6.1994,6.1542,6.0864,6.1266,6.1743,6.2245,6.2245,6.2245,6.2144,6.1366,6.0964,6.0738,0.0,0.0,0.0,0.0,0.0,0.0,0.0,0.0,0.0,0.0,2.6428,2.6992,0.0,0.0,0.0,0.0,0.0,0.0,2.9311,3.0068,3.0933,3.1899,3.3197,3.4583,3.5926,3.7759,3.9731,4.1834,4.1848,4.088,3.8929,3.8995,3.8635,3.7869,3.8871,3.8231,3.642,3.558,3.4647,3.3643,3.2944,3.2541,3.2285,0.0,0.0,0.0,0.0,0.0,0.0,0.0,0.0,0.0,2.8462,2.9365,3.0383,3.0258,3.0921,3.1768,3.1899,3.3399,3.5501,3.7918,4.0867,4.4323,4.8873,5.0582,5.2028,5.4898,5.4049,5.3072,5.4026,5.3617,5.3287,5.3919,5.5372,5.679,5.769,5.8126,5.83,5.8151,5.7935,5.7742,5.7526,5.779,5.7983,5.7983,5.8752,5.9254,5.9325,6.0065,6.0744,6.1496,6.1315,6.1131,6.0839,6.1165,6.0889,6.001,6.0688,6.1115,6.1341,6.1567,6.1542,6.1341,6.1592,6.1291,6.0688,6.104,6.1517,6.1994,6.1768,6.1667,6.1592,6.0914,6.0512,6.0261,0.0,0.0,2.4102,2.4969,0.0,0.0,0.0,0.0,0.0,0.0,2.6712,2.7351,0.0,0.0,0.0,0.0,0.0,0.0,0.0,3.0212,3.1004,3.1776,3.3091,3.5106,3.7855,3.9122,3.8881,3.7112,3.8852,3.8889,3.7593,3.9212,3.9936,3.9979,4.0985,4.0323,3.8445,3.7649,3.579,3.3387,3.3639,3.3224,3.2394,3.1826,0.0,0.0,0.0,0.0,0.0,0.0,0.0,0.0,2.7958,2.8002,2.8263,2.962,3.1149,3.2678,3.3967,3.5539,3.7539,4.0292,4.2638,4.5746,5.1093,5.3406,5.4691,5.5725,5.4783,5.4072,5.5082,5.4373,5.3975,5.4928,5.5789,5.6831,5.8272,5.807,5.7949,5.8382,5.8079,5.7598,5.7069,5.7117,5.7141,5.7093,5.7574,5.8048,5.8426,5.9349,6.0049,6.0447,6.0974,6.0911,6.0337,6.0362,6.0085,5.9483,5.9533,5.9809,6.0261,6.0839,6.0814,6.0337,6.0814,6.1065,6.1115,6.1115,6.1441,6.1868,6.1316,6.114,6.1165,6.1065,6.0738,6.0311,0.0,0.0,2.4453,2.5028,0.0,0.0,0.0,0.0,0.0,0.0,2.6287,0.0,0.0,0.0,0.0,0.0,0.0,0.0,0.0,3.0224,3.0863,3.1755,3.3578,3.515,3.6413,3.5998,3.5561,3.5124,3.7366,3.774,3.6394,3.904,4.0236,4.0279,4.1214,4.0366,3.8022,3.6019,3.4597,3.3661,3.3377,3.3093,3.2831,3.1957,3.104,0.0,0.0,0.0,0.0,0.0,0.0,0.0,2.7762,2.8002,2.8045,2.8372,3.0341,3.2459,3.2765,3.5277,3.8528,4.1728,4.6177,5.0403,5.2844,5.3911,5.4691,5.5725,5.5036,5.4577,5.5587,5.4934,5.4326,5.4533,5.4998,5.5625,5.6243,5.652,5.69,5.7277,5.7622,5.7598,5.7069,5.7766,5.8079,5.767,5.8127,5.8497,5.8579,5.9146,5.9626,5.9989,6.0465,6.0512,6.0311,6.0763,6.0487,5.9508,5.9935,5.9985,5.9684,6.0261,6.0437,6.0311,5.9985,6.0111,6.0512,6.0512,6.0839,6.1291,6.0738,6.0788,6.1065,6.0186,6.006,6.0311,0.0,0.0,0.0,0.0,0.0,0.0,0.0,0.0,0.0,0.0,0.0,0.0,0.0,0.0,0.0,0.0,2.9663,0.0,0.0,3.0235,3.0969,3.2189,3.4,3.4954,3.4928,3.4666,3.4185,3.3508,3.4971,3.567,3.567,3.8575,4.017,4.0672,4.1612,4.0432,3.7658,3.6195,3.4622,3.3158,3.3595,3.3355,3.2656,3.1913,3.0756,2.9358,2.8156,0.0,0.0,0.0,0.0,0.0,0.0,0.0,2.7195,2.8112,2.962,3.1498,3.3814,3.6588,4.0015,4.4887,4.8902,5.199,5.3414,5.4275,5.4944,5.5472,5.4967,5.4714,5.5748,5.5105,5.4416,5.4416,5.4579,5.5079,5.5963,5.6277,5.6681,5.7325,5.7646,5.7598,5.7069,5.7526,5.7742,5.7454,5.7694,5.7959,5.8199,5.8467,5.8791,5.9194,5.957,5.9801,5.9623,6.0133,6.0085,5.9483,5.9784,5.9784,5.9508,5.9784,6.006,6.0311,6.001,6.0211,6.0713,6.0437,6.0512,6.0713,6.0136,6.0111,6.0311,5.9709,5.9684,5.9935,0.0,0.0,0.0,0.0,0.0,0.0,0.0,0.0,0.0,0.0,0.0,0.0,0.0,0.0,2.8227,0.0,0.0,0.0,0.0,0.0,0.0,3.2566,3.4128,3.4644,3.3945,3.4076,3.3617,3.2503,3.2687,3.3649,3.5408,3.8139,4.0039,4.1153,4.1677,4.0192,3.7199,3.6326,3.4469,3.2241,3.342,3.318,3.2066,3.1564,3.0297,2.8639,2.7326,2.7282,2.7696,2.6649,0.0,0.0,0.0,0.0,2.619,2.7742,2.8814,3.0362,3.436,3.7636,4.1505,4.8012,5.0587,5.1971,5.3392,5.4348,5.5022,5.5031,5.477,5.4783,5.5518,5.499,5.4393,5.4301,5.4347,5.4881,5.6139,5.6373,5.6699,5.7589,5.7742,5.7598,5.7069,5.7093,5.7117,5.7021,5.7021,5.7213,5.7646,5.767,5.7831,5.8232,5.8631,5.8886,5.8887,5.9251,5.9431,5.9483,5.9483,5.9483,5.9405,5.9508,5.9734,6.0186,6.0186,6.0437,6.0864,6.0487,6.0261,6.0136,5.9784,5.9583,5.9483,5.9483,5.9483,5.9508,0.0,0.0,0.0,0.0,0.0,0.0,0.0,0.0,0.0,0.0,2.769,2.7696,0.0,0.0,0.0,2.8599,2.8711,2.8897,2.9373,0.0,0.0,3.2318,3.3388,3.4119,3.4425,3.3268,3.2765,3.3037,3.1987,3.3021,3.5969,3.7964,3.9886,4.1546,4.0432,3.8772,3.661,3.4054,3.2241,3.1105,3.1302,3.1258,3.104,3.0581,2.9707,2.8727,2.8069,2.7609,2.7435,2.7631,2.726,0.0,0.0,0.0,2.5863,2.5729,2.7479,2.962,3.0275,3.5801,4.2754,4.8255,5.0348,5.1486,5.2876,5.3581,5.4092,5.4501,5.4879,5.5013,5.4668,5.4508,5.4278,5.3865,5.414,5.4765,5.5624,5.5809,5.6131,5.6957,5.7526,5.7598,5.7069,5.743,5.7526,5.7045,5.7021,5.7045,5.7117,5.7117,5.7276,5.7673,5.7753,5.8178,5.8887,5.8965,5.9198,5.9483,5.9483,5.9328,5.9018,5.9328,5.9533,5.9608,5.9608,5.9633,5.9759,6.0161,6.0035,5.9633,6.006,5.991,5.9483,5.9483,5.9483,5.9558,0.0,0.0,0.0,0.0,0.0,0.0,0.0,0.0,0.0,0.0,0.0,2.7801,0.0,0.0,0.0,2.8341,2.8432,2.8788,2.95,3.044,3.1245,3.1875,3.2637,3.2962,3.2896,3.2285,3.1913,3.1848,3.1052,3.2761,3.6762,3.7614,3.9187,4.1262,4.0147,3.8397,3.6107,3.3486,3.1804,3.0887,3.0887,3.1717,3.27,3.0603,3.0035,3.01,2.7958,2.7064,2.6889,2.6824,2.6911,2.6955,2.6627,0.0,0.0,0.0,2.6671,2.8833,3.3136,3.8313,4.3534,4.8047,4.991,5.0858,5.1708,5.2697,5.3423,5.3248,5.3879,5.4454,5.477,5.4393,5.4026,5.4094,5.4278,5.4742,5.5611,5.5691,5.6013,5.6941,5.7237,5.7285,5.7045,5.7237,5.7261,5.7045,5.7021,5.7021,5.7021,5.7021,5.71,5.7259,5.7497,5.8014,5.9019,5.9255,5.9562,6.0018,5.9797,5.9413,5.9044,5.8879,5.9217,5.9935,5.9633,5.9859,6.0412,6.001,5.991,5.996,5.9885,5.9533,5.9106,5.9382,5.9307,5.9131,0.0,0.0,0.0,0.0,0.0,0.0,0.0,0.0,0.0,0.0,0.0,0.0,0.0,0.0,0.0,0.0,2.8118,2.8501,2.9455,3.0027,3.0586,3.1106,3.1578,3.1651,3.128,3.1149,3.0952,3.0712,3.0433,3.2783,3.7577,3.7879,3.9418,4.1812,4.0651,3.8747,3.6231,3.3901,3.235,3.1455,3.1455,3.2525,3.3923,3.1913,3.1717,3.211,2.8877,2.7566,2.7239,2.6496,2.6649,2.7042,2.6452,2.619,0.0,0.0,0.0,2.761,3.4578,3.8663,4.2005,4.6352,4.831,4.9469,5.0572,5.1715,5.2458,5.22,5.2804,5.3638,5.4468,5.4128,5.3773,5.398,5.4232,5.4615,5.5285,5.554,5.6037,5.6782,5.6941,5.7021,5.7021,5.7021,5.7021,5.7021,5.7021,5.7021,5.7021,5.7021,5.7093,5.7213,5.7452,5.8093,5.9109,5.9508,5.9865,6.0181,5.9865,5.9508,5.9134,5.8821,5.9143,5.9997,5.9651,6.0108,6.0914,6.0211,6.0085,6.0286,5.9859,5.9382,5.8956,5.9357,5.9257,5.8981,0.0,0.0,0.0,0.0,0.0,0.0,0.0,0.0,0.0,0.0,0.0,2.7896,2.7875,2.7531,2.7404,2.7615,2.7636,2.7968,2.87,2.9434,2.9833,2.9904,3.0171,0.0,3.0275,2.9838,2.9816,3.0253,3.0453,3.3077,3.7998,3.9137,4.1302,4.4206,4.2428,3.9995,3.7178,3.5233,3.3857,3.3015,3.3015,3.3081,3.3365,3.505,3.5386,3.4644,3.1717,3.01,2.9117,2.7719,2.6933,2.6693,2.7108,2.6933,2.6279,0.0,0.0,0.0,3.0624,3.3442,3.6347,4.2049,4.4845,4.692,4.9694,5.0777,5.1257,5.1656,5.2084,5.2513,5.2989,5.3462,5.3543,5.3061,5.3773,5.4395,5.4417,5.5145,5.5876,5.6382,5.6782,5.7021,5.7021,5.7021,5.7021,5.7021,5.7021,5.7021,5.7021,5.7021,5.7237,5.7742,5.7766,5.8249,5.9187,5.9592,5.9617,5.9236,5.9617,5.9592,5.9187,5.9568,5.9539,5.9177,5.9524,5.9918,6.0412,6.0889,6.0788,6.0311,6.0286,5.9935,5.9458,5.9483,5.9483,5.9458,0.0,0.0,0.0,0.0,0.0,0.0,0.0,0.0,0.0,0.0,0.0,0.0,0.0,2.7413,2.7452,2.7809,2.8186,2.8506,2.8773,2.8994,2.928,2.9585,2.9703,2.9751,2.9751,2.9576,2.9423,2.927,2.9412,3.146,3.5329,3.6919,3.9086,4.1661,4.1331,4.0122,3.8095,3.4928,3.3377,3.3146,3.342,3.4644,3.6216,3.5364,3.6282,3.7527,3.401,3.1935,3.0777,3.0253,2.9161,2.7916,2.7457,2.6998,2.6366,2.5273,2.5579,2.702,3.0275,3.2569,3.5081,3.934,4.207,4.4211,4.6199,4.8233,4.9685,4.9791,5.0419,5.1206,5.194,5.2696,5.3337,5.3796,5.4163,5.451,5.4731,5.5113,5.5553,5.6325,5.6566,5.6702,5.6941,5.7021,5.7021,5.7021,5.7021,5.7021,5.7021,5.7021,5.7261,5.779,5.7478,5.7879,5.926,6.0351,6.0694,6.0257,5.9999,5.9747,5.9336,5.9162,5.9058,5.9211,5.9715,6.0069,6.0442,6.053,6.0713,6.0788,6.006,5.9458,5.9031,5.9382,5.9483,5.9533,0.0,0.0,0.0,2.6055,0.0,2.6732,2.6495,2.6867,2.7219,2.7249,0.0,0.0,0.0,0.0,2.7896,2.8206,2.8704,2.8967,2.8814,2.8792,2.8946,2.9274,2.9401,2.9449,2.9296,2.9401,2.9161,2.8506,2.888,3.0658,3.3812,3.5624,3.7836,4.0332,3.997,3.9911,3.9922,3.678,3.5263,3.4965,3.5334,3.6435,3.7855,3.7702,3.8554,3.9513,3.6894,3.4928,3.3486,3.2984,3.176,3.0236,2.8746,2.7195,2.5753,2.4923,2.56,2.6933,2.8549,3.0624,3.3246,3.6937,3.8947,4.0891,4.4298,4.6308,4.7674,4.8465,4.9482,5.0459,5.1291,5.2023,5.2776,5.3759,5.422,5.4429,5.4615,5.4893,5.5311,5.59,5.6221,5.6462,5.6518,5.6861,5.6861,5.6598,5.6861,5.6941,5.6782,5.6941,5.7261,5.779,5.7646,5.8144,5.9364,6.0316,6.0754,6.0566,6.0227,5.9892,5.9642,5.9113,5.9013,5.9283,5.981,6.0311,6.0725,6.0497,6.068,6.1065,5.9935,5.9282,5.9031,5.9357,5.9483,5.9583,2.5134,2.5995,2.6735,2.6417,2.6692,2.6655,2.5913,2.6642,2.7117,2.6662,0.0,0.0,0.0,0.0,0.0,2.8758,2.9245,2.9361,2.8858,2.8792,2.8792,2.8792,2.9205,2.9274,2.8814,2.9274,2.8986,2.798,2.8986,3.0894,3.3621,3.5388,3.7806,4.0684,3.8634,3.9562,4.2548,4.0682,3.9423,3.8608,3.8722,3.8292,3.8047,4.227,4.2489,4.0519,4.0432,3.9165,3.733,3.5932,3.4753,3.342,3.0974,2.7588,2.4443,2.394,2.4486,2.527,0.0,0.0,0.0,3.4743,3.543,3.6959,4.4058,4.4997,4.5085,4.7553,4.9113,5.0268,5.0888,5.13,5.194,5.2863,5.3769,5.4255,5.3796,5.4523,5.5067,5.5067,5.5819,5.6221,5.5772,5.6438,5.6598,5.5772,5.6518,5.6782,5.6405,5.6806,5.7261,5.7766,5.8319,5.8824,5.9329,5.9378,5.9642,6.0147,6.0147,6.0147,6.0123,5.9594,5.9378,5.9378,5.9767,6.0425,6.1191,6.0725,6.0742,6.104,5.9935,5.9508,5.9508,5.9508,5.9533,5.9659,2.546,2.6582,2.7114,2.6074,2.6783,2.7131,2.6187,2.6677,2.7211,0.0,0.0,0.0,2.8255,2.9467,3.0278,3.0202,3.0413,3.0166,2.9336,2.8637,2.8396,2.8792,2.8549,2.8549,2.8792,2.8946,2.8484,2.7501,2.8484,2.9387,3.0185,3.2316,3.4734,3.7199,3.7596,3.8596,3.9778,3.6627,3.6595,3.8586,3.8487,3.9667,4.1618,4.239,4.3845,4.5279,4.3916,4.2617,4.1568,4.1503,3.875,3.4709,3.0887,2.7763,2.5491,2.5338,2.5972,2.6649,2.6321,0.0,0.0,0.0,0.0,0.0,3.6915,3.8838,4.0869,4.4342,4.5617,4.7006,4.9942,5.1138,5.1913,5.2495,5.3341,5.3902,5.3765,5.4265,5.4742,5.5067,5.5311,5.5553,5.5691,5.5933,5.5933,5.5691,5.6221,5.6566,5.6405,5.7141,5.7478,5.7237,5.8127,5.8488,5.8247,5.9017,5.945,5.9594,5.9594,5.9594,5.9594,5.9065,5.9017,5.9353,5.9133,5.951,6.04,6.0484,6.0358,6.0093,5.9706,5.9734,6.0007,5.9719,6.0139,6.0756,2.5557,2.6571,2.7148,2.6406,2.7393,2.7974,2.6973,2.7563,2.8157,0.0,0.0,0.0,2.9921,3.0937,3.1455,3.1212,3.0901,3.0432,2.9645,2.883,2.8462,2.8792,2.868,2.8768,2.9099,2.9248,2.8924,2.7916,2.853,2.8792,2.8836,3.0683,3.2413,3.4075,3.5034,3.5904,3.6624,3.3682,3.4734,3.8544,3.9971,4.1408,4.2839,4.4598,4.5867,4.678,4.6712,4.5926,4.5024,4.5289,4.1721,3.6479,3.2525,2.9642,2.7545,2.6736,2.7304,2.8069,2.7347,2.8112,2.9296,3.0105,0.0,0.0,3.543,3.6937,3.8728,4.3057,4.4561,4.598,4.8645,4.9875,5.0769,5.1416,5.2168,5.2898,5.3738,5.4011,5.4268,5.4719,5.4986,5.523,5.5473,5.5611,5.5611,5.5449,5.5876,5.6221,5.6405,5.7284,5.7574,5.7045,5.7622,5.7886,5.7814,5.8416,5.8848,5.9065,5.9065,5.9065,5.9041,5.8512,5.856,5.9041,5.8488,5.8603,5.9113,5.9502,5.9662,5.9657,5.9648,5.9879,6.0283,6.0114,6.0452,6.0943,0.0,2.6295,2.7051,2.72,2.8344,2.9051,2.8338,2.9112,2.9835,0.0,3.0002,3.0751,3.2416,3.2699,3.2616,3.2175,3.1305,3.0572,2.9897,2.9193,2.8792,2.8792,2.9208,2.9401,2.9401,2.9925,2.9685,2.8639,2.8814,2.8792,2.8661,2.9837,3.074,3.1302,3.1627,3.239,3.3377,3.1928,3.3952,3.8462,4.1775,4.2905,4.3085,4.7618,4.8157,4.6878,4.8996,4.8952,4.7888,4.752,4.3867,3.8772,3.5168,3.2525,3.0362,2.8244,2.8746,2.9751,2.8678,2.9139,3.0253,3.176,3.0696,0.0,3.6347,3.6894,3.7461,4.1918,4.3971,4.5369,4.6679,4.7783,4.8702,4.9454,5.0249,5.1411,5.3437,5.3678,5.3865,5.4429,5.4824,5.5067,5.5149,5.5368,5.5473,5.5242,5.5543,5.5923,5.6405,5.7284,5.7493,5.7045,5.7069,5.7309,5.7718,5.779,5.8055,5.8512,5.8512,5.8512,5.8488,5.7959,5.8007,5.8488,5.7959,5.7742,5.779,5.8144,5.8784,5.9524,5.9603,5.9914,6.0326,6.0427,6.0465,6.0509,2.5976,2.661,2.7329,2.8298,2.9291,3.0148,3.077,3.1064,3.1523,3.2499,3.3226,3.4282,3.6184,3.5607,3.5087,3.4922,3.3604,3.205,3.0486,2.9367,2.8792,2.8792,2.8902,2.8946,2.8946,2.9773,2.9358,2.7588,2.8768,2.8746,2.761,2.8664,2.9233,2.9361,2.9409,3.0024,3.1076,3.2718,3.54,3.863,3.9679,4.2331,4.5796,4.7566,4.9404,5.1004,5.0805,5.1019,5.0947,4.7866,4.514,4.2027,3.709,3.4928,3.3617,3.0559,3.1214,3.2656,3.1302,3.1629,3.2088,3.093,3.1171,0.0,3.0335,3.1738,3.3814,3.5911,3.7505,3.9515,4.2791,4.4475,4.5345,4.5158,4.7445,5.0165,5.2906,5.3166,5.3599,5.4835,5.4742,5.4824,5.553,5.5044,5.4904,5.5589,5.5777,5.5917,5.6349,5.6962,5.7252,5.7045,5.743,5.7502,5.7189,5.7598,5.7862,5.7959,5.7959,5.7959,5.7935,5.7405,5.7454,5.7935,5.7405,5.7405,5.7766,5.7437,5.7805,5.8674,5.9097,5.9798,6.0562,6.0253,6.0383,6.0691,2.6309,2.707,2.8035,2.9257,3.0151,3.1194,3.2415,3.2458,3.2901,3.4219,3.5496,3.6414,3.6645,3.6201,3.571,3.5184,3.3444,3.1881,3.0683,2.9683,2.9055,2.8814,2.8792,2.9142,2.9843,3.0078,2.9729,2.8768,2.9248,2.8855,2.7697,2.8464,2.928,3.0035,2.9168,2.9755,3.1416,3.1515,3.3533,3.7008,4.1319,4.5142,4.8384,5.038,5.2058,5.3303,5.2645,5.2569,5.2257,4.8652,4.6455,4.4475,3.9907,3.8139,3.7178,3.4294,3.4294,3.4862,3.3158,3.3071,3.3268,3.2547,3.2175,0.0,0.0,3.1826,3.2743,3.5408,3.6151,3.7134,3.9777,4.1001,4.1946,4.2685,4.5202,4.7686,4.9461,5.1233,5.2685,5.383,5.405,5.4373,5.5259,5.4753,5.4546,5.5067,5.602,5.6325,5.5785,5.6948,5.7288,5.675,5.7204,5.7308,5.7021,5.7285,5.7405,5.7405,5.7405,5.7405,5.7405,5.7141,5.7165,5.7405,5.7141,5.7165,5.7405,5.7405,5.7799,5.8524,5.9033,6.0016,6.103,6.0618,6.0768,6.1097,2.6465,2.7285,2.8447,2.9829,3.0744,3.1834,3.3432,3.3557,3.3963,3.55,3.7209,3.7884,3.696,3.6792,3.654,3.5928,3.3847,3.2295,3.1529,3.0586,2.9751,2.9121,2.8989,2.9493,3.0603,3.0253,2.9882,2.9532,2.9314,2.8724,2.774,2.8265,2.9236,3.0577,2.9434,3.0153,3.2134,3.0634,3.2403,3.6838,4.3727,4.7248,4.8753,5.2159,5.3515,5.3709,5.3969,5.3682,5.2724,4.9718,4.7933,4.6345,4.2472,4.1198,4.0585,3.7898,3.744,3.7374,3.543,3.5037,3.5102,3.4753,3.3781,3.3202,0.0,0.0,0.0,3.5452,3.5605,3.5648,3.6915,3.7527,3.8379,3.9908,4.2298,4.421,4.492,4.7885,5.048,5.1991,5.2911,5.368,5.4437,5.3934,5.3766,5.4277,5.5381,5.5682,5.4835,5.656,5.7161,5.6126,5.6753,5.7066,5.6861,5.6941,5.7021,5.7021,5.7021,5.7021,5.7021,5.7021,5.7021,5.7021,5.7021,5.7069,5.7213,5.7646,5.8175,5.8752,5.9162,6.0145,6.1345,6.0987,6.1159,6.1571,2.6465,2.6797,2.7715,2.9547,3.0378,3.1512,3.3688,3.4123,3.478,3.641,3.8169,3.9479,4.015,3.9857,3.9867,4.0593,3.8082,3.5883,3.4418,3.291,3.1455,3.01,2.962,2.9489,2.9642,2.9598,2.8746,2.6998,2.7783,2.7674,2.6759,2.7261,2.7566,2.7808,2.8946,3.0109,3.1353,3.2574,3.6601,4.228,4.4344,4.4233,4.3399,4.8134,5.0143,5.0893,5.4042,5.4346,5.2963,5.1135,4.944,4.7356,4.3404,4.3046,4.3381,3.9668,4.0105,4.135,3.9427,3.9537,3.9384,3.5976,3.6588,3.6631,3.1345,0.0,3.3071,3.1367,0.0,3.2962,3.353,0.0,0.0,3.4666,3.7396,3.9658,3.9971,4.2547,4.5683,4.9044,5.1155,5.2557,5.2941,5.1746,5.1861,5.4138,5.2525,5.2055,5.365,5.5242,5.5836,5.516,5.6482,5.6929,5.6486,5.6782,5.7021,5.7021,5.7021,5.7021,5.7021,5.7021,5.7021,5.7021,5.7021,5.7285,5.7718,5.779,5.8392,5.9305,5.9388,6.0038,6.1038,6.0954,6.1315,6.1772,2.6426,2.6934,2.7767,2.8846,2.9339,3.0254,3.2322,3.4493,3.6172,3.7071,3.8942,4.0213,4.0339,4.0146,4.0091,4.0167,3.8998,3.72,3.4639,3.3951,3.2721,3.069,3.0166,3.0035,3.0297,2.9773,2.8811,2.7413,2.7522,2.7238,2.6584,2.7108,2.8313,3.0079,3.0548,3.2347,3.5068,3.5202,3.6716,3.9215,4.2376,4.247,4.1736,4.9669,5.3044,5.3656,5.5207,5.5307,5.4524,5.2497,5.0636,4.8892,4.6455,4.5152,4.4145,4.2292,4.1874,4.1634,4.006,4.0257,4.0345,3.7571,3.744,3.6937,3.2896,3.2044,3.2001,3.1564,0.0,0.0,0.0,0.0,0.0,0.0,3.5329,3.6949,3.6404,3.9691,4.321,4.6127,4.7003,4.8018,4.9896,5.0616,5.1605,5.3302,5.2239,5.2129,5.361,5.5389,5.5947,5.5111,5.6257,5.6561,5.5956,5.6462,5.6622,5.6622,5.6861,5.7021,5.7021,5.7021,5.7021,5.7045,5.7333,5.7598,5.7862,5.8464,5.8993,5.945,6.0075,6.058,6.0965,6.0965,6.1326,6.171,2.6211,2.6797,2.7511,2.8024,2.8376,2.9297,3.1527,3.4289,3.6462,3.7405,3.9057,4.0278,4.057,4.0808,4.1074,4.1192,4.0741,3.9302,3.6462,3.567,3.4403,3.2372,3.1192,3.0821,3.1302,3.01,2.8943,2.7805,2.7479,2.7282,2.7217,2.7282,2.8817,3.1583,3.2038,3.4296,3.7858,3.7754,3.8354,3.9699,4.2854,4.4164,4.4936,5.1624,5.4926,5.6038,5.6038,5.5948,5.5495,5.3443,5.1855,5.0543,4.918,4.7484,4.5859,4.509,4.4332,4.3272,4.1437,4.1634,4.1655,3.8663,3.7636,3.6653,3.3835,3.2612,3.2175,3.2503,3.235,0.0,0.0,0.0,3.1455,3.2263,0.0,3.4814,3.3946,3.6714,3.9689,4.2143,4.2986,4.4538,4.7516,4.8397,4.9766,5.1977,5.0994,5.1179,5.3176,5.4783,5.5362,5.4743,5.5636,5.5975,5.5553,5.5956,5.6221,5.6221,5.6622,5.6861,5.6861,5.6941,5.7093,5.7261,5.7646,5.7983,5.8295,5.9065,5.9474,5.9714,6.0772,6.1109,6.0989,6.1133,6.1542,6.1903,2.5713,2.6113,2.6575,2.7032,2.7803,2.9223,3.2031,3.3252,3.4698,3.7198,3.8316,3.9723,4.2011,4.3007,4.4141,4.5885,4.4812,4.3239,4.1667,3.8868,3.685,3.5903,3.3093,3.1826,3.2328,3.0472,2.8768,2.7326,2.7326,2.7785,2.8705,2.7741,2.8375,3.0362,3.2678,3.5234,3.7915,3.9922,4.3579,4.7984,4.7881,5.0628,5.4495,5.2423,5.3431,5.6058,5.6058,5.5744,5.5158,5.4048,5.3107,5.2178,5.0552,5.0064,4.9772,4.7866,4.7904,4.8056,4.5194,4.5129,4.4473,3.8816,3.7396,3.6391,3.2569,3.3442,3.4687,3.3333,3.5233,3.6588,3.4775,3.401,3.3399,3.2525,3.2862,0.0,0.0,3.2644,3.3735,3.6577,4.0174,4.3502,4.6539,4.4279,4.4769,5.0165,4.7513,4.7599,5.1982,5.274,5.3222,5.3704,5.4696,5.5114,5.5149,5.553,5.5691,5.5691,5.6221,5.6405,5.6405,5.6782,5.7285,5.779,5.779,5.8392,5.9329,5.9378,5.969,6.0267,6.135,6.1446,6.1037,6.1566,6.2095,6.2552,2.5752,2.6222,2.6586,2.628,2.6703,2.8144,3.1283,3.3366,3.5703,3.8848,4.0096,4.1752,4.465,4.5216,4.5869,4.7119,4.668,4.5456,4.3393,4.142,3.9888,3.8881,3.6042,3.4425,3.425,3.2678,3.0718,2.8311,2.8593,2.8746,2.8792,2.8464,2.9292,3.1258,3.3661,3.6641,4.0052,4.2929,4.4973,4.6388,4.7531,5.0879,5.5128,5.4275,5.5002,5.6513,5.6513,5.6627,5.6696,5.6365,5.5093,5.3756,5.357,5.2194,5.0501,4.9596,4.9305,4.8994,4.7389,4.7881,4.7619,4.2485,4.0716,3.9056,3.4578,3.4666,3.5212,3.3474,3.5364,3.6784,3.4884,3.4119,3.3486,3.2547,3.2503,3.2038,0.0,3.0036,3.1134,3.4102,3.7919,4.0609,4.1322,4.2839,4.5024,4.7903,4.73,4.84,5.1982,5.3268,5.3842,5.3704,5.4671,5.5191,5.5191,5.5579,5.5742,5.5742,5.6232,5.6499,5.6499,5.6581,5.6922,5.742,5.8105,5.8628,5.8986,5.9679,6.0219,6.0772,6.1518,6.1686,6.159,6.2119,6.2215,6.2023,2.62,2.635,2.6486,2.6328,2.7037,2.8533,3.132,3.3877,3.6647,3.9778,4.1441,4.3387,4.6204,4.7022,4.7664,4.8588,4.8725,4.7676,4.4878,4.3796,4.2623,4.1109,3.91,3.7767,3.7287,3.5692,3.353,3.0799,3.0777,3.0565,3.0083,2.9733,3.0362,3.1979,3.4207,3.7389,4.1323,4.4676,4.6713,4.7794,4.941,5.1963,5.4944,5.5151,5.5817,5.6689,5.6689,5.701,5.7447,5.7263,5.6436,5.5503,5.5709,5.4357,5.2626,5.2039,5.1522,5.0866,4.9531,4.9898,4.9563,4.526,4.3578,4.1765,3.7112,3.733,3.792,3.5859,3.7265,3.8685,3.7986,3.6326,3.4818,0.0,0.0,0.0,0.0,2.8879,3.0008,3.2195,3.5306,3.7759,3.9085,4.0571,4.2769,4.5985,4.5737,4.7113,5.1002,5.2546,5.336,5.3406,5.4577,5.522,5.522,5.5606,5.5865,5.5865,5.6278,5.6526,5.6526,5.669,5.7055,5.7548,5.8379,5.8807,5.9081,5.9859,6.0364,6.0748,6.1277,6.1614,6.1855,6.2384,6.2384,6.2047,2.7012,2.6566,2.6446,2.7111,2.8523,3.0199,3.206,3.4677,3.7324,3.9984,4.2331,4.4629,4.6989,4.8401,4.9617,5.0542,5.0954,4.9804,4.6591,4.6257,4.5172,4.29,4.2223,4.1699,4.1262,3.9274,3.709,3.4709,3.3639,3.2896,3.2394,3.1433,3.1476,3.2459,3.4382,3.7591,4.1733,4.5152,4.8815,5.2327,5.3337,5.4003,5.4462,5.5013,5.5794,5.662,5.6666,5.701,5.7401,5.6896,5.7056,5.7401,5.6873,5.6456,5.5847,5.4894,5.435,5.3543,5.164,5.118,5.0458,4.7116,4.5893,4.4386,4.0061,4.1261,4.266,4.0301,4.0935,4.2333,4.3539,4.0279,3.7287,0.0,0.0,0.0,2.8253,2.9015,3.019,3.1035,3.2605,3.5242,3.95,3.7552,3.843,4.4252,4.2821,4.3862,4.8974,5.0536,5.1753,5.2832,5.4393,5.522,5.5243,5.5725,5.5977,5.5977,5.6397,5.6647,5.6694,5.7004,5.7536,5.8052,5.8556,5.9093,5.9521,6.0051,6.0219,6.0267,6.0796,6.1374,6.1975,6.2432,6.26,6.2696,2.709,2.7705,2.8488,2.8868,2.9198,3.0219,3.2715,3.484,3.7649,4.171,4.4215,4.6782,4.9742,5.0384,5.0986,5.1861,5.1827,5.1337,5.0447,4.8945,4.8165,4.8296,4.6111,4.4845,4.4713,4.1786,3.9253,3.7199,3.5146,3.3726,3.2927,3.2285,3.2132,3.2481,3.4753,3.8122,4.2229,4.531,4.9224,5.336,5.398,5.4301,5.4462,5.5013,5.5357,5.5679,5.6413,5.701,5.747,5.7309,5.7355,5.747,5.7309,5.72,5.689,5.5545,5.5296,5.5152,5.3576,5.345,5.3189,5.0895,4.9126,4.7225,4.432,4.5063,4.5587,4.2813,4.4255,4.5019,4.1786,4.006,3.8069,3.5015,0.0,0.0,2.9862,2.952,3.0284,3.284,3.3339,3.3793,3.4622,3.7393,3.9522,4.0304,4.1919,4.4483,4.8149,4.8857,4.9995,5.1887,5.4046,5.538,5.5748,5.623,5.6482,5.6482,5.6652,5.6859,5.7251,5.7422,5.7907,5.8738,5.9609,5.9813,5.9663,6.0408,6.0748,6.082,6.1435,6.236,6.3466,6.2817,6.2817,6.3057,2.7617,2.9039,3.0348,3.0472,3.1484,3.2789,3.4341,3.579,3.8067,4.1835,4.467,4.7113,4.9121,5.076,5.1997,5.2716,5.2768,5.239,5.1594,5.0873,5.0335,5.0043,4.8902,4.8083,4.7881,4.5238,4.2573,3.9995,3.7156,3.4949,3.3377,3.27,3.2263,3.2175,3.4797,3.7856,4.1238,4.6272,5.0156,5.3107,5.4026,5.4554,0.0,5.5105,5.5472,5.5931,5.6482,5.6873,5.7125,5.7125,5.7286,5.7516,5.7722,5.7567,5.706,5.6674,5.6327,5.5954,5.5336,5.5114,5.4718,5.3626,5.2381,5.072,4.8099,4.8318,4.8471,4.6417,4.6439,4.6395,4.4932,4.1852,3.82,3.3879,3.1848,3.0652,3.0163,3.0061,3.0776,3.2635,3.3337,3.342,3.2795,3.5871,3.7932,3.7866,3.9893,4.2096,4.4425,4.6852,4.8861,5.0262,5.331,5.5199,5.5595,5.6581,5.7033,5.7033,5.724,5.7493,5.7791,5.8044,5.8457,5.8985,5.9756,5.989,5.9703,6.0367,6.0674,6.07,6.147,6.2456,6.3418,6.3057,6.3249,6.3562,2.8432,3.031,3.1865,3.1701,3.4183,3.6348,3.6784,3.7715,3.933,4.1938,4.5022,4.7154,4.761,5.0614,5.2755,5.314,5.3719,5.3277,5.1594,5.213,5.187,5.0115,5.0808,5.1025,5.0524,4.858,4.5915,4.2507,3.9056,3.6085,3.3595,3.2765,3.211,3.1738,3.46,3.7414,4.0445,4.7611,5.127,5.2395,5.3842,5.4691,5.5105,5.5174,5.5748,5.6505,5.6558,5.6758,5.6873,5.6873,5.724,5.7745,5.809,5.7645,5.7114,5.7821,5.7133,5.6176,5.6508,5.5973,5.5286,5.5286,5.4958,5.3975,5.1376,5.1135,5.1179,5.0196,4.8274,4.74,4.9454,4.4255,3.8244,3.3683,3.2525,3.1848,3.0843,3.1416,3.2061,3.2394,3.3763,0.0,3.3104,3.4251,3.5408,3.6209,3.7244,3.8535,4.0135,4.4626,4.7685,4.8745,5.252,5.4781,5.528,5.6708,5.7516,5.7584,5.7998,5.8273,5.8411,5.887,5.9123,5.9192,5.9589,5.9768,5.9711,6.03,6.0491,6.058,6.1542,6.2263,6.2841,6.3201,6.3682,6.4043,2.9194,3.0948,3.2375,3.2211,3.4738,3.7673,4.0261,4.2042,4.3822,4.583,4.8541,5.0446,5.0922,5.2242,5.3092,5.3183,5.3951,5.4186,5.343,5.3212,5.295,5.2599,5.2361,5.2012,5.155,4.9257,4.6417,4.3053,3.9231,3.5758,3.2634,3.2459,3.211,3.1738,3.4229,3.8409,4.3827,4.8566,5.1454,5.2855,5.398,5.4462,5.46,5.5036,5.5311,5.548,5.5966,5.6873,5.7929,5.7929,5.8296,5.8664,5.8296,5.8048,5.7846,5.7205,5.6632,5.6062,5.5777,5.5203,5.4783,5.4783,5.4718,5.4412,5.3516,5.3363,5.3167,5.2184,5.1354,5.0087,4.7772,4.3403,3.9231,3.6391,3.5517,3.567,3.7003,3.6034,3.5619,3.6828,3.7955,3.7621,3.5006,3.5549,3.5486,3.4087,3.4768,3.6867,4.0651,4.208,4.4813,4.9274,5.2391,5.4445,5.528,5.6364,5.7329,5.8067,5.8158,5.8641,5.9444,5.9536,5.9812,6.0292,6.0743,6.0655,6.0252,6.1113,6.178,6.2191,6.2384,6.3033,6.3827,6.3466,6.3682,6.4043,3.1151,3.2315,3.359,3.4338,3.7233,4.0205,4.2566,4.5311,4.6986,4.67,4.8231,4.9411,4.9638,5.1307,5.2563,5.2803,5.3475,5.3921,5.3919,5.3682,5.3512,5.3516,5.3126,5.2756,5.2533,5.0655,4.7772,4.3905,4.0279,3.6581,3.2721,3.2219,3.1717,3.1389,3.4724,3.8975,4.3849,4.7845,5.059,5.2281,5.3796,5.4737,5.5137,5.5161,5.5732,5.6354,5.6151,5.6787,5.7798,5.7561,5.7823,5.8204,5.8204,5.7846,5.7448,5.7546,5.7196,5.6798,5.6598,5.6306,5.6083,5.555,5.5024,5.4587,5.4368,5.4128,5.38,5.3342,5.2664,5.1048,4.74,4.3796,4.0935,3.9515,3.8029,3.7658,3.934,3.8575,3.8135,3.8772,3.9338,3.866,3.6216,3.6312,3.5514,3.3056,3.3722,3.565,3.8947,4.0535,4.352,4.8399,5.1316,5.3488,5.4919,5.6441,5.7539,5.8204,5.8732,5.9238,5.972,5.9995,6.0225,6.0545,6.045,6.0276,5.9973,6.0695,6.1637,6.2576,6.2576,6.3057,6.3682,6.3442,6.3313,6.3326,3.3466,3.4364,3.5482,3.7114,4.0204,4.2976,4.4543,4.7581,4.9073,4.7276,4.7813,4.8392,4.8392,5.0502,5.2117,5.2638,5.2974,5.3429,5.399,5.3911,5.3857,5.4005,5.362,5.332,5.3385,5.2053,4.9301,4.5041,4.1568,3.7741,3.3486,3.2219,3.1695,3.1979,3.5998,3.9873,4.3601,4.7196,4.9852,5.1738,5.368,5.4893,5.5626,5.5495,5.6296,5.7211,5.6502,5.6797,5.7402,5.6792,5.7091,5.7773,5.825,5.785,5.7429,5.8113,5.8005,5.747,5.7377,5.724,5.6904,5.5988,5.522,5.4741,5.4741,5.4281,5.3822,5.38,5.3014,5.1245,4.7684,4.5434,4.3774,4.2769,4.1022,4.0301,4.1743,4.1351,4.0804,4.0694,4.041,3.9318,3.7199,3.6522,3.5299,3.3005,3.3387,3.4787,3.7243,3.9447,4.2642,4.7029,4.9897,5.2226,5.4171,5.6313,5.777,5.8526,5.9329,5.9766,5.988,6.0294,6.0409,6.0294,5.988,5.9824,5.9937,6.0435,6.1446,6.2744,6.2744,6.2985,6.3257,6.3169,6.2879,6.2612,3.5791,3.7202,3.8616,4.0151,4.2862,4.5177,4.6509,4.8446,4.9592,4.938,5.0213,5.0768,5.0768,5.1746,5.2595,5.3142,5.3163,5.3556,5.4528,5.3762,5.3643,5.4478,5.4116,5.3818,5.3801,5.2883,5.0436,4.6526,4.2726,3.8859,3.4949,3.2678,3.2765,3.4906,3.8208,4.1656,4.5168,4.7998,5.0352,5.233,5.3905,5.4569,5.4751,5.6084,5.6645,5.6781,5.6749,5.7066,5.7358,5.6465,5.711,5.8293,5.8805,5.8893,5.8782,5.8874,5.82,5.7395,5.6998,5.6243,5.5468,5.4982,5.4806,5.4741,5.4741,5.4281,5.3822,5.3363,5.2533,5.1092,4.8514,4.8886,4.8711,4.6024,4.5412,4.5762,4.7225,4.5893,4.4626,4.4167,4.2944,4.1044,3.8248,3.5998,3.4622,3.4338,3.3758,3.4604,3.7281,3.8671,4.1485,4.6002,4.8492,5.0726,5.2645,5.5472,5.7779,5.9582,5.9674,5.9949,6.0409,6.0454,6.0225,5.9789,5.9743,6.021,6.1051,6.1445,6.2305,6.3274,6.3274,6.3298,6.3257,6.279,6.2612,6.2594,3.9205,3.9528,4.0428,4.2565,4.4149,4.5788,4.7909,4.9241,5.0075,5.0075,5.0691,5.1066,5.1066,5.1932,5.2587,5.2749,5.3019,5.3466,5.409,5.3801,5.3872,5.461,5.4431,5.4315,5.4368,5.3407,5.131,4.8034,4.4189,4.0476,3.6915,3.5081,3.5517,3.796,4.0362,4.312,4.6293,4.9128,5.1014,5.2451,5.4168,5.4962,5.5053,5.5648,5.6245,5.6705,5.6199,5.6042,5.6263,5.6154,5.6665,5.7399,5.7633,5.7653,5.7786,5.8346,5.8507,5.8291,5.7761,5.7558,5.7243,5.5859,5.5308,5.5024,5.4718,5.4281,5.3888,5.3691,5.3123,5.2359,5.1376,5.024,4.9475,4.9475,4.8034,4.7488,4.9213,4.8056,4.6854,4.6395,4.4277,4.207,4.0039,3.7418,3.5932,3.6216,3.3518,3.3265,3.6406,3.7846,4.0344,4.4189,4.8034,5.091,5.2891,5.5831,5.8119,5.972,6.0018,6.0271,6.0454,6.0156,5.9743,5.9306,5.9582,6.0078,6.0791,6.1234,6.1983,6.2879,6.2879,6.2879,6.279,6.2345,6.2011,6.1902,4.1992,4.207,4.2773,4.5117,4.595,4.6959,4.9029,4.9668,5.0051,5.0403,5.0802,5.1067,5.125,5.2014,5.2599,5.2868,5.3075,5.3427,5.4006,5.3893,5.415,5.4761,5.4625,5.4698,5.4911,5.391,5.2293,4.9956,4.6264,4.2922,3.9973,3.8248,3.8575,4.076,4.2754,4.5251,4.811,5.0114,5.1752,5.3101,5.4322,5.5009,5.5297,5.545,5.5971,5.6532,5.582,5.5572,5.566,5.5864,5.6087,5.6465,5.6745,5.683,5.7007,5.7747,5.8245,5.8432,5.794,5.7914,5.7777,5.6429,5.5744,5.5286,5.4936,5.4609,5.4281,5.3997,5.3669,5.3429,5.3429,5.1769,5.0742,5.1834,5.0284,4.9322,5.0393,4.9541,4.8427,4.74,4.4713,4.2311,4.0738,3.8466,3.7374,3.8025,3.5299,3.4818,3.7505,3.8335,4.0432,4.4102,4.8056,5.1211,5.3408,5.6213,5.8322,5.972,6.0225,6.0317,6.0018,5.9674,5.9306,5.9031,5.9513,5.9988,6.0435,6.0954,6.1752,6.2671,6.2671,6.2676,6.2794,6.2277,6.1822,6.1504,4.3945,4.5039,4.6152,4.7871,4.8516,4.915,5.0046,4.9492,4.9346,5.0774,5.0983,5.1186,5.1607,5.2199,5.2847,5.3758,5.3427,5.3571,5.4461,5.4089,5.4236,5.5262,5.4845,5.4796,5.5253,5.4409,5.3451,5.2446,4.9082,4.6439,4.4451,4.207,4.1721,4.3298,4.5543,4.8167,5.0991,5.0954,5.233,5.4534,5.4046,5.4442,5.5363,5.5879,5.6108,5.6087,5.6087,5.6039,5.6028,5.5548,5.5373,5.5552,5.6509,5.6775,5.6887,5.7469,5.7514,5.7447,5.693,5.6486,5.6131,5.6097,5.5744,5.5395,5.5373,5.5373,5.5089,5.4128,5.3931,5.3844,5.3844,5.391,5.356,5.2621,5.2446,5.2097,5.1201,5.0611,4.941,4.7029,4.4189,4.1677,3.9819,3.8663,3.8488,3.9513,3.9908,4.0585,4.1568,4.076,4.2223,4.6548,4.8602,5.1035,5.3985,5.637,5.8322,5.972,6.0225,5.9949,5.9008,5.9008,5.9008,5.9031,5.9513,5.9988,6.0481,6.0969,6.1752,6.2697,6.2697,6.2979,6.3334,6.2897,6.2363,6.197,4.6426,4.7012,4.7578,4.8105,4.8849,4.9459,4.9782,5.0126,5.051,5.0903,5.127,5.1751,5.2523,5.3126,5.353,5.382,5.3716,5.3758,5.4048,5.3654,5.382,5.4782,5.4691,5.4829,5.5343,5.4738,5.4106,5.3473,5.0109,4.7619,4.6024,4.526,4.6024,4.8077,4.9197,5.0571,5.2086,5.2681,5.3205,5.3684,5.4605,5.4869,5.4845,5.5443,5.5622,5.5623,5.5621,5.5442,5.5155,5.5329,5.5155,5.4981,5.5225,5.5578,5.602,5.6798,5.7021,5.7022,5.6819,5.695,5.6948,5.625,5.6225,5.6181,5.5526,5.5133,5.498,5.5351,5.5155,5.4914,5.4914,5.4652,5.4325,5.4019,5.3407,5.2883,5.2577,5.1245,4.9781,4.8383,4.6221,4.4364,4.3119,4.2114,4.1393,4.1044,4.0301,4.0061,4.0694,4.1983,4.3359,4.4735,4.858,5.1873,5.4417,5.6549,5.8322,5.972,6.0225,6.0133,5.9513,6.0569,6.0454,5.9536,6.0386,6.0637,6.0542,6.1299,6.1873,6.2151,6.2524,6.2757,6.2897,6.2365,6.2156,6.2018,4.7812,4.8301,4.8711,4.8711,4.934,4.988,5.0038,5.0437,5.0822,5.1141,5.1374,5.1878,5.27,5.3426,5.39,5.4015,5.411,5.411,5.411,5.384,5.3956,5.4495,5.4604,5.4768,5.5116,5.4819,5.4519,5.4215,5.155,4.9606,4.8361,4.8558,4.9432,5.0895,5.1572,5.2378,5.3315,5.3581,5.3887,5.4321,5.4653,5.4828,5.4959,5.527,5.5247,5.5159,5.5288,5.5067,5.4696,5.5002,5.4914,5.4741,5.4741,5.4917,5.5248,5.58,5.611,5.6243,5.6284,5.6503,5.6745,5.6447,5.6443,5.6422,5.6007,5.5548,5.5373,5.5985,5.5875,5.5657,5.5657,5.5417,5.5155,5.4958,5.4259,5.3626,5.3254,5.1703,5.0109,4.8776,4.74,4.6046,4.4713,4.4866,4.4779,4.4167,4.3971,4.3927,4.4036,4.3927,4.4764,4.658,5.0021,5.3086,5.5495,5.6908,5.8232,5.9444,5.9949,6.0018,5.9743,6.0891,6.0891,6.0041,6.0868,6.1166,6.1143,6.1718,6.2064,6.2272,6.2619,6.2851,6.2919,6.2638,6.2314,6.2085,4.8301,4.8984,4.957,4.957,4.9902,5.0312,5.0703,5.0449,5.0508,5.1289,5.146,5.1745,5.2142,5.3068,5.3951,5.4428,5.4449,5.4524,5.4482,5.4482,5.4482,5.4441,5.4477,5.4482,5.457,5.4465,5.4575,5.4652,5.3298,5.2206,5.1376,5.1834,5.2075,5.214,5.3014,5.3929,5.4673,5.3777,5.4454,5.5928,5.4588,5.4544,5.5314,5.5333,5.5045,5.4718,5.5176,5.5067,5.4718,5.4718,5.4718,5.4718,5.474,5.474,5.4718,5.4718,5.5024,5.5395,5.5417,5.546,5.5701,5.6574,5.6465,5.629,5.6749,5.6465,5.6138,5.6203,5.6181,5.6159,5.6159,5.6138,5.5963,5.5504,5.498,5.4281,5.3342,5.2009,5.0415,4.8536,4.7968,4.7007,4.5172,4.7073,4.8339,4.8143,4.9869,5.0699,5.0196,4.6417,4.6374,5.0983,5.249,5.4367,5.682,5.7313,5.8029,5.91,5.9582,5.9812,5.9835,6.0386,6.0592,6.0546,6.1028,6.1488,6.1924,6.197,6.2291,6.2656,6.2796,6.3072,6.3462,6.3485,6.2865,6.2177,4.9219,4.9648,5.0019,5.0019,5.0117,5.0215,5.0312,5.0508,5.0723,5.0918,5.1249,5.1599,5.2181,5.278,5.3377,5.3951,5.4238,5.4379,5.4027,5.4006,5.3934,5.4048,5.368,5.3661,5.4011,5.3724,5.3694,5.4121,5.4127,5.4215,5.4368,5.4477,5.474,5.5111,5.5329,5.5572,5.5771,5.5482,5.5441,5.5577,5.5178,5.4981,5.4851,5.4872,5.4761,5.4674,5.4783,5.5002,5.522,5.522,5.522,5.5286,5.5657,5.5504,5.522,5.522,5.5286,5.546,5.5832,5.6203,5.6509,5.6749,5.6706,5.6749,5.7252,5.6706,5.6312,5.7033,5.6902,5.664,5.664,5.6356,5.6072,5.5963,5.4914,5.3888,5.3298,5.2293,5.1179,4.9956,5.0065,4.989,4.9038,5.0152,5.0021,4.7815,4.8755,4.9191,4.8711,4.8405,4.9301,5.155,5.2664,5.4608,5.7424,5.7559,5.8458,6.0133,6.0638,6.0868,6.0891,6.1809,6.1786,6.1051,6.1166,6.1304,6.1442,6.1832,6.2291,6.2796,6.3164,6.3164,6.298,6.3347,6.3095,6.2659,4.9824,5.0176,5.0469,5.0469,5.0625,5.0762,5.0762,5.0937,5.1094,5.1094,5.1289,5.1601,5.2089,5.281,5.3472,5.3964,5.4293,5.442,5.4172,5.4151,5.4142,5.4174,5.3924,5.3973,5.4224,5.3971,5.4081,5.45,5.4859,5.5281,5.5723,5.5482,5.5635,5.6116,5.5875,5.5788,5.5766,5.5548,5.5286,5.5067,5.5286,5.5351,5.5351,5.5548,5.5635,5.5635,5.5635,5.5679,5.5723,5.5723,5.5723,5.5766,5.6028,5.6072,5.6072,5.629,5.605,5.5832,5.629,5.6443,5.6531,5.6749,5.6968,5.7208,5.747,5.7317,5.7252,5.7776,5.782,5.7732,5.7514,5.7077,5.6618,5.6181,5.4893,5.3779,5.3276,5.2206,5.1419,5.131,5.155,5.1703,5.1638,5.2533,5.2184,4.9934,5.0677,5.0895,5.0174,5.107,5.1966,5.2752,5.3713,5.5247,5.7514,5.821,5.9248,6.0477,6.1212,6.158,6.1603,6.2383,6.2314,6.158,6.1809,6.1924,6.197,6.2475,6.2842,6.3118,6.3393,6.3325,6.3118,6.3393,6.3187,6.2819,5.0254,5.0605,5.0898,5.0898,5.1191,5.1426,5.1426,5.1426,5.1426,5.1426,5.1484,5.166,5.2051,5.313,5.3878,5.4179,5.4408,5.4627,5.4627,5.4627,5.4606,5.4544,5.4461,5.4465,5.4623,5.4632,5.4816,5.5307,5.5334,5.5565,5.6112,5.5785,5.5807,5.6203,5.5854,5.5657,5.557,5.5155,5.4893,5.4805,5.522,5.5635,5.605,5.6443,5.6618,5.6684,5.6684,5.6487,5.6225,5.6225,5.6225,5.6225,5.6312,5.6553,5.6902,5.747,5.7077,5.6531,5.6924,5.6684,5.6422,5.6815,5.7273,5.7645,5.7645,5.8038,5.8387,5.8387,5.8693,5.8846,5.8453,5.7907,5.7186,5.6159,5.4849,5.3691,5.2992,5.1966,5.1616,5.249,5.273,5.3036,5.3604,5.4325,5.4281,5.3123,5.3669,5.3757,5.308,5.3757,5.4215,5.4368,5.5024,5.6106,5.7469,5.9022,6.0066,6.0501,6.1603,6.2108,6.2108,6.2544,6.2521,6.2108,6.2475,6.2682,6.2773,6.321,6.3439,6.3508,6.3508,6.3462,6.3393,6.3462,6.3187,6.2819,5.0529,5.1035,5.1328,5.1328,5.1387,5.1426,5.1426,5.1426,5.1426,5.1426,5.1758,5.2012,5.207,5.3389,5.4079,5.3777,5.4586,5.5082,5.5082,5.5082,5.4917,5.4544,5.4151,5.411,5.4515,5.4612,5.4852,5.5262,5.5328,5.5579,5.6062,5.6407,5.6642,5.6706,5.7033,5.6968,5.6574,5.6487,5.6007,5.5286,5.5351,5.5439,5.5504,5.557,5.5854,5.6225,5.6225,5.6422,5.6684,5.6684,5.6684,5.6749,5.7186,5.7077,5.6968,5.7907,5.806,5.7972,5.8038,5.7688,5.7317,5.7383,5.7798,5.8169,5.8169,5.854,5.8868,5.8868,5.8912,5.8955,5.8868,5.8125,5.7077,5.5723,5.4609,5.3342,5.1638,5.19,5.2468,5.3036,5.3822,5.4674,5.557,5.5417,5.5351,5.5526,5.4914,5.4849,5.5526,5.5308,5.5526,5.6334,5.5723,5.608,5.7619,5.9428,6.0385,6.0476,6.1944,6.2636,6.2636,6.2705,6.2705,6.2613,6.2245,6.2337,6.2751,6.2842,6.3118,6.3508,6.3508,6.3233,6.2911,6.3347,6.3187,6.2819,5.1017,5.1308,5.1426,5.1426,5.1426,5.1426,5.1426,5.1641,5.1777,5.1777,5.2148,5.25,5.2734,5.3648,5.4384,5.4603,5.5396,5.5885,5.5931,5.5248,5.4855,5.4896,5.4668,5.4793,5.5248,5.5005,5.5166,5.5682,5.5135,5.5277,5.6071,5.605,5.6143,5.6351,5.6308,5.6364,5.6425,5.6073,5.5887,5.5832,5.6334,5.6531,5.6574,5.6837,5.7099,5.7273,5.7273,5.7426,5.7601,5.7601,5.7754,5.7972,5.7951,5.7951,5.8104,5.8824,5.8868,5.865,5.865,5.8475,5.83,5.83,5.8475,5.865,5.865,5.9021,5.9349,5.9349,5.9567,5.9589,5.9065,5.8387,5.747,5.6007,5.4303,5.3036,5.2664,5.2337,5.2577,5.3844,5.4609,5.5329,5.605,5.5897,5.5766,5.5723,5.5308,5.5242,5.5701,5.5504,5.581,5.6771,5.6914,5.7299,5.7946,5.9374,6.0239,6.0532,6.1726,6.251,6.2761,6.2951,6.3003,6.2656,6.2796,6.2773,6.2679,6.3049,6.3302,6.3508,6.3508,6.3347,6.3187,6.3416,6.3347,6.3187,5.1095,5.1328,5.1426,5.1426,5.1426,5.1465,5.1562,5.1875,5.2109,5.2207,5.2598,5.2988,5.332,5.3961,5.4623,5.5366,5.597,5.6286,5.6428,5.5434,5.5,5.5331,5.5455,5.5662,5.6014,5.5579,5.5545,5.5951,5.5031,5.502,5.5829,5.5468,5.5583,5.6017,5.5655,5.5607,5.5871,5.5506,5.5565,5.5999,5.6718,5.7159,5.7405,5.7776,5.8082,5.8278,5.8278,5.8278,5.8278,5.8278,5.8519,5.8737,5.8387,5.8511,5.8852,5.9222,5.9135,5.9013,5.8999,5.8977,5.8977,5.8977,5.9043,5.913,5.913,5.9523,5.9873,5.9873,6.0157,6.02,5.9436,5.8824,5.7929,5.6356,5.4456,5.3254,5.356,5.2948,5.3101,5.4783,5.5526,5.6116,5.6727,5.6771,5.6618,5.6247,5.6116,5.605,5.605,5.605,5.6443,5.7273,5.7929,5.8269,5.8269,5.9311,6.0082,6.0484,6.1547,6.2262,6.2698,6.3103,6.3184,6.2957,6.3462,6.3393,6.2957,6.3462,6.36,6.3508,6.3508,6.3508,6.3508,6.3508,6.3508,6.3508,5.0493,5.1134,5.1426,5.1426,5.1426,5.1562,5.1973,5.207,5.2226,5.2617,5.3047,5.332,5.3359,5.4237,5.4842,5.5065,5.5523,5.5836,5.5952,5.5828,5.5786,5.5828,5.6221,5.6469,5.6511,5.6055,5.5828,5.5925,5.4917,5.4788,5.5262,5.5262,5.5546,5.6038,5.5996,5.574,5.5315,5.5293,5.5294,5.5366,5.5452,5.6008,5.6858,5.6902,5.747,5.8278,5.8278,5.8278,5.8278,5.8278,5.83,5.8322,5.83,5.83,5.8286,5.8329,5.8632,5.8944,5.8991,5.8977,5.8977,5.8977,5.9305,5.9633,5.9633,6.0026,6.0375,6.0375,6.0397,6.0397,6.0332,5.9545,5.83,5.6422,5.5592,5.4565,5.2839,5.3669,5.4827,5.5875,5.6815,5.7732,5.8671,5.8759,5.8737,5.8715,5.83,5.806,5.806,5.806,5.83,5.8781,5.8526,5.8329,5.8329,5.9725,6.0498,6.0542,6.1489,6.2217,6.2698,6.2698,6.2985,6.3462,6.399,6.3921,6.3485,6.399,6.3921,6.3508,6.3508,6.3508,6.3508,6.3508,6.3508,6.3508,5.0491,5.1037,5.1523,5.1777,5.1601,5.166,5.2363,5.2461,5.2617,5.3066,5.3496,5.3769,5.3769,5.4129,5.4474,5.4802,5.5387,5.5807,5.6222,5.652,5.6594,5.6304,5.6738,5.6966,5.6966,5.6531,5.6304,5.6304,5.5683,5.5469,5.5641,5.535,5.5321,5.5491,5.5219,5.5199,5.5313,5.5313,5.5489,5.5807,5.6085,5.6221,5.6344,5.6623,5.6795,5.6924,5.7603,5.7806,5.7944,5.8511,5.8912,5.9056,5.8769,5.8685,5.8525,5.8235,5.848,5.892,5.9236,5.9582,5.9873,5.9873,5.9785,5.9785,6.0069,6.0069,6.0069,6.0353,6.0419,6.0332,6.0026,5.9414,5.8628,5.7623,5.629,5.5329,5.5176,5.5133,5.546,5.6422,5.7405,5.8147,5.8519,5.854,5.854,5.854,5.8387,5.8278,5.8278,5.8278,5.8497,5.8955,5.8802,5.8715,5.8715,5.9562,5.9987,6.0009,6.1362,6.207,6.2262,6.3259,6.376,6.3967,6.4174,6.4151,6.3967,6.383,6.3669,6.3508,6.3508,6.3508,6.3508,6.3508,6.3692,6.3967,5.0119,5.0664,5.1249,5.1736,5.1658,5.1893,5.2793,5.291,5.3066,5.3516,5.3848,5.4023,5.4023,5.4023,5.4227,5.4736,5.5122,5.5628,5.6132,5.6534,5.6691,5.678,5.6925,5.709,5.7215,5.6656,5.6428,5.6573,5.6097,5.5869,5.5869,5.5393,5.5186,5.5165,5.4731,5.4735,5.502,5.502,5.5283,5.5798,5.6242,5.6337,5.6293,5.6761,5.6825,5.6719,5.7442,5.7666,5.7805,5.849,5.8933,5.9096,5.8805,5.862,5.8574,5.8112,5.8281,5.867,5.9215,5.9644,6.0027,6.0321,6.0179,6.0004,6.0353,6.0157,6.0026,6.0353,6.0419,6.0332,5.9982,5.9523,5.8999,5.8387,5.7033,5.6225,5.6727,5.6378,5.6422,5.7361,5.8213,5.8781,5.8934,5.8955,5.8955,5.8955,5.8802,5.8737,5.8737,5.8737,5.8999,5.9611,5.9633,5.972,5.9873,5.9895,6.0004,6.0157,6.1303,6.2112,6.2466,6.3704,6.4307,6.4496,6.4656,6.4633,6.4473,6.4289,6.4128,6.3967,6.3967,6.3967,6.3967,6.3967,6.4197,6.4496,4.8927,4.9809,5.0706,5.1221,5.1647,5.227,5.32,5.3359,5.3516,5.3965,5.4023,5.4023,5.4023,5.4023,5.4227,5.4736,5.4838,5.5021,5.5527,5.5628,5.6031,5.7135,5.6801,5.678,5.7215,5.6345,5.6117,5.6573,5.6117,5.589,5.5869,5.5414,5.5186,5.5165,5.4731,5.4544,5.4544,5.4544,5.483,5.5346,5.5808,5.6284,5.6709,5.7176,5.7719,5.8102,5.8102,5.8102,5.8102,5.8123,5.8123,5.8123,5.8123,5.8049,5.8017,5.7874,5.7989,5.8137,5.8599,5.8789,5.9023,6.0125,6.0419,6.0419,6.0419,6.0419,6.0419,6.0419,6.0419,6.0419,6.0419,6.0026,5.9392,5.8453,5.7885,5.7361,5.688,5.723,5.7907,5.8846,5.9392,5.9895,6.0375,6.0419,6.0419,6.0419,5.996,5.9698,5.9698,5.9698,6.0135,6.1074,6.1118,6.1336,6.1839,6.0899,6.0659,6.1118,6.1611,6.2467,6.3429,6.3922,6.4512,6.5047,6.5552,6.5483,6.507,6.5552,6.546,6.5024,6.5024,6.5024,6.5024,6.5024,6.5024,6.5024,4.9039,4.9809,5.0801,5.1585,5.1839,5.2367,5.3609,5.3555,5.3516,5.3965,5.4023,5.4023,5.4023,5.4023,5.4023,5.4227,5.4533,5.5021,5.5527,5.5628,5.5729,5.6031,5.6311,5.6491,5.6635,5.6767,5.6883,5.7028,5.6883,5.6656,5.6345,5.589,5.5662,5.5641,5.4875,5.471,5.4979,5.4668,5.4805,5.5192,5.5433,5.5683,5.6168,5.6314,5.6439,5.6565,5.6933,5.7241,5.7613,5.8025,5.8336,5.8514,5.8119,5.7708,5.7456,5.738,5.7439,5.7556,5.8101,5.8468,5.8952,5.9601,5.9572,5.9496,6.0256,6.0157,6.0004,6.0353,6.0419,6.0419,6.0419,6.0026,5.972,5.9785,5.937,5.8999,5.8846,5.8955,5.9021,5.8977,5.9392,5.9764,5.9895,5.9917,5.9917,5.9917,5.9785,5.9982,6.0659,6.0375,6.0637,6.1598,6.1293,6.1336,6.1839,6.1555,6.1489,6.1642,6.257,6.3134,6.3452,6.4745,6.5378,6.5552,6.5712,6.5689,6.5529,6.5322,6.5161,6.5024,6.5024,6.5024,6.5024,6.5024,6.5253,6.5552,4.8762,4.9412,5.0241,5.1458,5.1768,5.2315,5.3824,5.3808,5.373,5.4004,5.4023,5.4023,5.4023,5.4023,5.4023,5.4023,5.4329,5.4635,5.4939,5.4939,5.4939,5.4939,5.5527,5.583,5.6132,5.625,5.645,5.6534,5.6835,5.6709,5.6256,5.6185,5.6055,5.5848,5.531,5.5207,5.5434,5.5165,5.5207,5.5476,5.5662,5.589,5.618,5.6552,5.6676,5.6697,5.7181,5.7609,5.7859,5.8158,5.8321,5.8405,5.8105,5.758,5.7256,5.7442,5.738,5.7297,5.8072,5.834,5.8603,5.9321,5.9533,5.9604,6.0006,6.0006,6.0069,6.0353,6.0419,6.0419,6.0419,6.0179,6.0026,6.0113,5.9895,5.9698,5.9698,5.9698,5.9654,5.9567,5.9807,5.9982,5.9982,6.0135,6.0244,6.0244,6.0441,6.0703,6.1096,6.1031,6.1336,6.2123,6.1839,6.1926,6.2407,6.2407,6.2319,6.2166,6.3234,6.3824,6.4034,6.5442,6.6056,6.608,6.608,6.608,6.6034,6.5735,6.5621,6.5621,6.5621,6.5621,6.5621,6.5621,6.5804,6.608,4.8311,4.8616,4.9321,5.0899,5.1536,5.2279,5.3702,5.4004,5.4023,5.4023,5.4023,5.4023,5.4023,5.4023,5.4023,5.4023,5.4023,5.4023,5.4023,5.4023,5.4043,5.4082,5.4451,5.4939,5.5486,5.5206,5.5266,5.5628,5.6173,5.615,5.5781,5.6276,5.6247,5.5834,5.5792,5.589,5.5931,5.589,5.589,5.5973,5.6428,5.6656,5.678,5.7649,5.798,5.8043,5.8457,5.8643,5.8664,5.8622,5.8312,5.7918,5.7918,5.7629,5.738,5.7836,5.767,5.7525,5.8374,5.8332,5.8227,5.913,5.9852,6.0126,5.9709,5.9994,6.0365,6.0441,6.0365,6.0387,6.0484,6.0528,6.0419,6.0026,5.996,5.996,5.996,5.996,6.0113,6.0506,6.055,6.055,6.055,6.0921,6.1162,6.1118,6.1555,6.1642,6.1205,6.1642,6.2123,6.2647,6.2647,6.2865,6.328,6.328,6.3062,6.2669,6.3735,6.446,6.4908,6.6016,6.6539,6.6539,6.6539,6.6539,6.6539,6.6539,6.6539,6.6539,6.6539,6.6539,6.6539,6.6539,6.6539,6.6539,4.8879,4.8933,4.9247,5.0421,5.1246,5.2183,5.3395,5.3808,5.4023,5.4023,5.4023,5.4023,5.4023,5.4023,5.4023,5.4023,5.4023,5.4023,5.4023,5.4023,5.418,5.4531,5.4321,5.4384,5.484,5.5663,5.589,5.5628,5.6092,5.5951,5.5184,5.5283,5.5322,5.5221,5.525,5.5488,5.5795,5.5839,5.6076,5.6449,5.6904,5.7297,5.7691,5.825,5.8457,5.8477,5.8581,5.885,5.9098,5.8726,5.8312,5.7918,5.7918,5.7856,5.7856,5.8332,5.8394,5.8353,5.856,5.8788,5.8933,5.8766,5.9423,6.0116,6.019,5.9876,5.9889,6.031,6.031,6.0449,6.0866,6.1271,6.162,6.1926,6.197,6.197,6.197,6.197,6.1861,6.1555,6.1533,6.1533,6.1533,6.162,6.1511,6.114,6.1555,6.1795,6.1686,6.2166,6.2647,6.3106,6.3127,6.3171,6.328,6.328,6.3237,6.3127,6.4246,6.4796,6.4908,6.6016,6.6539,6.6539,6.6539,6.6539,6.6539,6.6539,6.6539,6.6539,6.6539,6.6539,6.6539,6.6539,6.6539,6.6539,4.8682,4.8668,4.9026,5.0535,5.1252,5.1992,5.341,5.3887,5.4023,5.4023,5.4023,5.4023,5.4023,5.4023,5.4023,5.4023,5.4023,5.4023,5.4023,5.4023,5.4141,5.4355,5.4355,5.4453,5.4668,5.5578,5.5789,5.5135,5.5461,5.5463,5.5204,5.5286,5.5286,5.5286,5.5344,5.5663,5.6066,5.6119,5.6582,5.7235,5.7463,5.7836,5.8312,5.8767,5.8933,5.8974,5.9181,5.9429,5.9554,5.9098,5.8788,5.8539,5.8312,5.825,5.8291,5.8539,5.8601,5.8664,5.8871,5.9119,5.9285,5.9264,5.9658,6.0112,6.0181,6.0069,6.0005,6.0545,6.0497,6.0448,6.0948,6.1264,6.1604,6.2088,6.2232,6.2232,6.2232,6.2232,6.2232,6.221,6.1992,6.2026,6.2468,6.2289,6.2201,6.2216,6.2354,6.2428,6.221,6.2647,6.304,6.328,6.328,6.328,6.328,6.3499,6.3733,6.4041,6.4859,6.5267,6.5368,6.6608,6.7113,6.6883,6.6883,6.6769,6.6539,6.6539,6.6539,6.6539,6.6539,6.6539,6.6539,6.6539,6.6539,6.6539,4.8385,4.8385,4.8922,5.0786,5.1176,5.1782,5.3586,5.3984,5.4023,5.4023,5.4023,5.4023,5.4023,5.4023,5.4023,5.4023,5.4023,5.4023,5.4023,5.4101,5.418,5.4238,5.459,5.4824,5.4883,5.5508,5.5527,5.4902,5.4943,5.5109,5.5488,5.5441,5.5405,5.5325,5.5506,5.585,5.6254,5.6537,5.7085,5.7941,5.8024,5.8374,5.8788,5.9243,5.9409,5.9471,5.9843,6.005,6.005,5.9574,5.9409,5.9347,5.8974,5.885,5.885,5.885,5.8912,5.9036,5.9347,5.9409,5.9512,5.9906,5.9988,6.0094,6.0226,6.0196,6.0336,6.0734,6.0597,6.0458,6.0942,6.1108,6.1374,6.1878,6.2044,6.2166,6.2101,6.2166,6.2341,6.2669,6.2341,6.2521,6.3496,6.3104,6.2915,6.3298,6.3433,6.3171,6.2625,6.3193,6.3455,6.328,6.3368,6.3368,6.328,6.3864,6.4371,6.4819,6.559,6.5919,6.5852,6.7189,6.7526,6.7159,6.7159,6.6906,6.6539,6.6539,6.6539,6.6539,6.6539,6.6539,6.6539,6.6539,6.6539,6.6539,4.8879,4.8583,4.8829,5.0308,5.0886,5.1687,5.3278,5.3789,5.4023,5.4023,5.4023,5.4023,5.4023,5.4023,5.4023,5.4023,5.4023,5.4023,5.4023,5.4394,5.4765,5.5117,5.5195,5.539,5.5762,5.5527,5.5508,5.5762,5.5703,5.5632,5.5319,5.4992,5.46,5.4247,5.5132,5.5495,5.574,5.7024,5.7638,5.7945,5.8747,5.914,5.9264,5.9719,5.9906,5.9906,5.9968,6.0257,6.0527,6.005,5.9906,5.9885,5.9823,5.9802,5.9802,5.9802,6.0092,6.032,5.9988,5.9906,5.9906,5.9968,5.9988,6.0156,6.0635,6.0402,6.0126,6.0314,6.0671,6.0948,6.0927,6.1678,6.2287,6.2389,6.3147,6.3564,6.3149,6.3455,6.3586,6.3237,6.3127,6.3433,6.4455,6.3674,6.3295,6.3295,6.363,6.3521,6.2647,6.3826,6.4154,6.3302,6.3695,6.3717,6.328,6.4276,6.4628,6.4229,6.6077,6.6769,6.6361,6.6605,6.67,6.6631,6.6631,6.6585,6.6539,6.6539,6.6539,6.6539,6.6539,6.6539,6.6539,6.6539,6.6539,6.6539,4.8896,4.865,4.8859,5.0434,5.095,5.1643,5.3106,5.3683,5.4023,5.4023,5.4023,5.4023,5.4023,5.4023,5.4023,5.4023,5.4258,5.4394,5.4394,5.457,5.498,5.5625,5.543,5.5625,5.6289,5.6113,5.623,5.664,5.5937,5.5742,5.5996,5.5332,5.4922,5.4746,5.5149,5.5538,5.5849,5.6875,5.7634,5.8169,5.9016,5.945,5.9699,5.9906,5.9988,6.003,6.0278,6.0506,6.0651,6.0444,6.0382,6.034,6.0071,5.9988,5.9988,5.9988,6.0133,6.0257,6.005,5.9988,5.9988,5.9988,5.9988,6.0093,6.0281,6.0427,6.0529,6.0545,6.0465,6.0697,6.1572,6.1883,6.2236,6.3239,6.3549,6.363,6.3674,6.363,6.3521,6.3302,6.3761,6.4258,6.4722,6.4383,6.4192,6.4503,6.4389,6.4214,6.3821,6.4083,6.4105,6.3711,6.3864,6.3783,6.328,6.454,6.5188,6.5028,6.6169,6.6667,6.6486,6.7039,6.7205,6.6952,6.6952,6.6792,6.6539,6.6539,6.6539,6.6539,6.6539,6.6539,6.6539,6.6539,6.6539,6.6539]}]]